[[{"header":{"parameterUnit":"m.s-1","parameterCategory":1,"la1":31.0,"la2":29.5877,"lo1":-88.7671,"lo2":-86.6584,"dy":0.0162,"dx":0.0185,"nx":115,"ny":88,"refTime":"2026-04-08T00:00:00:Z","depth":0,"parameterNumber":2,"parameterNumberName":"U-component_of_WINDS"},"data":[0.0,0.0,0.0,0.0,0.0,0.0,0.0,0.0,0.0,0.0,0.0,0.0,0.0,0.0,0.0,0.0,0.0,0.0,0.0,0.0,0.0,0.0,0.0,0.0,0.0,0.0,0.0,0.0,0.0,0.0,0.0,0.0,0.0,0.0,0.0,0.0,0.0,0.0,0.0,0.0,0.0,0.0,0.0,0.0,0.0,0.0,0.0,0.0,0.0,0.0,0.0,0.0,0.0,0.0,0.0,0.0,0.0,0.0,0.0,0.0,0.0,0.0,0.0,0.0,0.0,0.0,0.0,0.0,0.0,0.0,0.0,0.0,0.0,0.0,0.0,0.0,0.0,0.0,0.0,0.0,0.0,0.0,0.0,0.0,0.0,0.0,0.0,0.0,0.0,0.0,0.0,0.0,0.0,0.0,0.0,0.0,0.0,0.0,0.0,0.0,0.0,0.0,0.0,0.0,0.0,0.0,0.0,0.0,0.0,0.0,0.0,0.0,0.0,0.0,0.0,0.0,0.0,0.0,0.0,0.0,0.0,0.0,0.0,0.0,0.0,0.0,0.0,0.0,0.0,0.0,0.0,0.0,0.0,0.0,0.0,0.0,0.0,0.0,0.0,0.0,0.0,0.0,0.0,0.0,0.0,0.0,0.0,0.0,0.0,0.0,0.0,0.0,0.0,0.0,0.0,0.0,0.0,0.0,0.0,0.0,0.0,0.0,0.0,0.0,0.0,0.0,0.0,0.0,0.0,0.0,0.0,0.0,0.0,0.0,0.0,0.0,0.0,0.0,0.0,0.0,0.0,0.0,0.0,0.0,0.0,0.0,0.0,0.0,0.0,0.0,0.0,0.0,0.0,0.0,0.0,0.0,0.0,0.0,0.0,0.0,0.0,0.0,0.0,0.0,0.0,0.0,0.0,0.0,0.0,0.0,0.0,0.0,0.0,0.0,0.0,0.0,0.0,0.0,0.0,0.0,0.0,0.0,0.0,0.0,0.0,0.0,0.0,0.0,0.0,0.0,0.0,0.0,0.0,0.0,0.0,0.0,0.0,0.0,0.0,0.0,0.0,0.0,0.0,0.0,0.0,0.0,0.0,0.0,0.0,0.0,0.0,0.0,0.0,0.0,0.0,0.0,0.0,0.0,0.0,0.0,0.0,0.0,0.0,0.0,0.0,0.0,0.0,0.0,0.0,0.0,0.0,0.0,0.0,0.0,0.0,0.0,0.0,0.0,0.0,0.0,0.0,0.0,0.0,0.0,0.0,0.0,0.0,0.0,0.0,0.0,0.0,0.0,0.0,0.0,0.0,0.0,0.0,0.0,0.0,0.0,0.0,0.0,0.0,0.0,0.0,0.0,0.0,0.0,0.0,0.0,0.0,0.0,0.0,0.0,0.0,0.0,0.0,0.0,0.0,0.0,0.0,0.0,0.0,0.0,0.0,0.0,0.0,0.0,0.0,0.0,0.0,0.0,0.0,0.0,0.0,0.0,0.0,0.0,0.0,0.0,0.0,0.0,0.0,0.0,0.0,0.0,0.0,0.0,0.0,0.0,0.0,0.0,0.0,0.0,0.0,0.0,0.0,0.0,0.0,0.0,0.0,0.0,0.0,0.0,0.0,0.0,0.0,0.0,0.0,0.0,0.0,0.0,0.0,0.0,0.0,0.0,0.0,0.0,0.0,0.0,0.0,0.0,0.0,0.0,0.0,0.0,0.0,0.0,0.0,0.0,0.0,0.0,0.0,0.0,0.0,0.0,0.0,0.0,0.0,0.0,0.0,0.0,0.0,0.0,0.0,0.0,0.0,0.0,0.0,0.0,0.0,0.0,0.0,0.0,0.0,0.0,0.0,0.0,0.0,0.0,0.0,0.0,0.0,0.0,0.0,0.0,0.0,0.0,0.0,0.0,0.0,0.0,0.0,0.0,0.0,0.0,0.0,0.0,0.0,0.0,0.0,0.0,0.0,0.0,0.0,0.0,0.0,0.0,0.0,0.0,0.0,0.0,0.0,0.0,0.0,0.0,0.0,0.0,0.0,0.0,0.0,0.0,0.0,0.0,0.0,0.0,0.0,0.0,0.0,0.0,0.0,0.0,0.0,0.0,0.0,0.0,0.0,0.0,0.0,0.0,0.0,0.0,0.0,0.0,0.0,0.0,0.0,0.0,0.0,0.0,0.0,0.0,0.0,0.0,0.0,0.0,0.0,0.0,0.0,0.0,0.0,0.0,0.0,0.0,0.0,0.0,0.0,0.0,0.0,0.0,0.0,0.0,0.0,0.0,0.0,0.0,0.0,0.0,0.0,0.0,0.0,0.0,0.0,0.0,0.0,0.0,0.0,0.0,0.0,0.0,0.0,0.0,0.0,0.0,0.0,0.0,0.0,0.0,0.0,0.0,0.0,0.0,0.0,0.0,0.0,0.0,0.0,0.0,0.0,0.0,0.0,0.0,0.0,0.0,0.0,0.0,0.0,0.0,0.0,0.0,0.0,0.0,0.0,0.0,0.0,0.0,0.0,0.0,0.0,0.0,0.0,0.0,0.0,0.0,0.0,0.0,0.0,0.0,0.0,0.0,0.0,0.0,0.0,0.0,0.0,0.0,0.0,0.0,0.0,0.0,0.0,0.0,0.0,0.0,0.0,0.0,0.0,0.0,0.0,0.0,0.0,0.0,0.0,0.0,0.0,0.0,0.0,0.0,0.0,0.0,0.0,0.0,0.0,0.0,0.0,0.0,0.0,0.0,0.0,0.0,0.0,0.0,0.0,0.0,0.0,0.0,0.0,0.0,0.0,0.0,0.0,0.0,0.0,0.0,0.0,0.0,0.0,0.0,0.0,0.0,0.0,0.0,0.0,0.0,0.0,0.0,0.0,0.0,0.0,0.0,0.0,0.0,0.0,0.0,0.0,0.0,0.0,0.0,0.0,0.0,0.0,0.0,0.0,0.0,0.0,0.0,0.0,0.0,0.0,0.0,0.0,0.0,0.0,0.0,0.0,0.0,0.0,0.0,0.0,0.0,0.0,0.0,0.0,0.0,0.0,0.0,0.0,0.0,0.0,0.0,0.0,0.0,0.0,0.0,0.0,0.0,0.0,0.0,0.0,0.0,0.0,0.0,0.0,0.0,0.0,0.0,0.0,0.0,0.0,0.0,0.0,0.0,0.0,0.0,0.0,0.0,0.0,0.0,0.0,0.0,0.0,0.0,0.0,0.0,0.0,0.0,0.0,0.0,0.0,0.0,0.0,0.0,0.0,0.0,0.0,0.0,0.0,0.0,0.0,0.0,0.0,0.0,0.0,0.0,0.0,0.0,0.0,0.0,0.0,0.0,0.0,0.0,0.0,0.0,0.0,0.0,0.0,0.0,0.0,0.0,0.0,0.0,0.0,0.0,0.0,0.0,0.0,0.0,0.0,0.0,0.0,0.0,0.0,0.0,0.0,0.0,0.0,0.0,0.0,0.0,0.0,0.0,0.0,0.0,0.0,0.0,0.0,0.0,0.0,0.0,0.0,0.0,0.0,0.0,0.0,0.0,0.0,0.0,0.0,0.0,0.0,0.0,0.0,0.0,0.0,0.0,0.0,0.0,0.0,0.0,0.0,0.0,0.0,0.0,0.0,0.0,0.0,0.0,0.0,0.0,0.0,0.0,0.0,0.0,0.0,0.0,0.0,0.0,0.0,0.0,0.0,0.0,0.0,0.0,0.0,0.0,0.0,0.0,0.0,0.0,0.0,0.0,0.0,0.0,0.0,0.0,0.0,0.0,0.0,0.0,0.0,0.0,0.0,0.0,0.0,0.0,0.0,0.0,0.0,0.0,0.0,0.0,0.0,0.0,0.0,0.0,0.0,0.0,0.0,0.0,0.0,0.0,0.0,0.0,0.0,0.0,0.0,0.0,0.0,0.0,0.0,0.0,0.0,0.0,0.0,0.0,0.0,0.0,0.0,0.0,0.0,0.0,0.0,0.0,0.0,0.0,0.0,0.0,0.0,0.0,0.0,0.0,0.0,0.0,0.0,0.0,0.0,0.0,0.0,0.0,0.0,0.0,0.0,0.0,0.0,0.0,0.0,0.0,0.0,0.0,0.0,0.0,0.0,0.0,0.0,0.0,0.0,0.0,0.0,0.0,0.0,0.0,0.0,0.0,0.0,0.0,0.0,0.0,0.0,0.0,0.0,0.0,0.0,0.0,0.0,0.0,0.0,0.0,0.0,0.0,0.0,0.0,0.0,0.0,0.0,0.0,0.0,0.0,0.0,0.0,0.0,0.0,0.0,0.0,0.0,0.0,-0.1965,0.0,0.0,0.0,0.0,0.0,0.0,0.0,0.0,0.0,0.0,0.0,0.0,0.0,0.0,0.0,0.0,0.0,0.0,0.0,0.0,0.0,0.0,0.0,0.0,0.0,0.0,0.0,0.0,0.0,0.0,0.0,0.0,0.0,0.0,0.0,0.0,0.0,0.0,0.0,0.0,0.0,0.0,0.0,0.0,0.0,0.0,0.0,0.0,0.0,0.0,0.0,0.0,0.0,0.0,0.0,0.0,0.0,0.0,0.0,0.0,0.0,0.0,0.0,0.0,0.0,0.0,0.0,0.0,0.0,0.0,0.0,0.0,0.0,0.0,0.0,0.0,0.0,0.0,0.0,0.0,0.0,0.0,0.0,0.0,0.0,0.0,0.0,0.0,0.0,0.0,0.0,0.0,0.0,0.0,0.0,0.0,0.0,0.0,0.0,0.0,0.0,0.0,0.0,0.0,0.0,0.0,0.0,0.0,0.0,0.0,-0.1366,-0.1493,-0.1557,-0.1683,-0.1874,0.0,0.0,0.0,0.0,0.0,0.0,0.0,0.0,0.0,0.0,0.0,0.0,0.0,0.0,0.0,0.0,0.0,0.0,0.0,0.0,0.0,0.0,0.0,0.0,0.0,0.0,0.0,0.0,0.0,0.0,0.0,0.0,0.0,0.0,0.0,0.0,0.0,0.0,0.0,0.0,0.0,0.0,0.0,0.0,0.0,0.0,0.0,0.0,0.0,0.0,0.0,0.0,0.0,0.0,0.0,0.0,0.0,0.0,0.0,0.0,0.0,0.0,0.0,0.0,0.0,0.0,0.0,0.0,0.0,0.0,0.0,0.0,0.0,0.0,0.0,0.0,0.0,0.0,0.0,0.0,0.0,0.0,0.0,0.0,0.0,0.0,0.0,0.0,0.0,0.0,0.0,0.0,0.0,0.0,0.0,0.0,0.0,0.0,0.0,0.0,0.0,0.0,0.0,0.0,0.0,0.0,0.0,0.0,0.0,0.0,0.0,0.0,-0.1541,-0.1685,-0.1849,0.0,0.0,0.0,0.0,0.0,0.0,0.0,0.0,0.0,0.0,0.0,0.0,0.0,0.0,0.0,0.0,0.0,0.0,0.0,0.0,0.0,0.0,0.0,0.0,0.0,0.0,0.0,0.0,0.0,0.0,0.0,0.0,0.0,0.0,0.0,0.0,0.0,0.0,0.0,0.0,0.0,0.0,0.0,0.0,0.0,0.0,0.0,0.0,0.0,0.0,0.0,0.0,0.0,0.0,0.0,0.0,0.0,0.0,0.0,0.0,0.0,0.0,0.0,0.0,0.0,0.0,0.0,0.0,0.0,0.0,0.0,0.0,0.0,0.0,0.0,0.0,0.0,0.0,0.0,0.0,0.0,0.0,0.0,0.0,0.0,0.0,0.0,0.0,0.0,0.0,0.0,0.0,0.0,0.0,0.0,0.0,0.0,0.0,0.0,0.0,0.0,0.0,0.0,0.0,0.0,0.0,0.0,0.0,0.0,0.0,-0.1392,-0.1573,-0.159,0.0,-0.195,0.0,0.0,0.0,0.0,0.0,0.0,0.0,0.0,0.0,0.0,0.0,0.0,0.0,0.0,0.0,0.0,0.0,0.0,0.0,0.0,0.0,0.0,0.0,0.0,0.0,0.0,0.0,0.0,0.0,0.0,0.0,0.0,0.0,0.0,0.0,0.0,0.0,0.0,0.0,0.0,0.0,0.0,0.0,0.0,0.0,0.0,0.0,0.0,0.0,0.0,0.0,0.0,0.0,0.0,0.0,0.0,0.0,0.0,0.0,0.0,0.0,0.0,0.0,0.0,0.0,0.0,0.0,0.0,0.0,0.0,0.0,0.0,0.0,0.0,0.0,0.0,0.0,0.0,0.0,0.0,0.0,0.0,0.0,0.0,0.0,0.0,0.0,0.0,0.0,0.0,0.0,0.0,0.0,0.0,0.0,0.0,0.0,0.0,0.0,0.0,0.0,0.0,0.0,0.0,0.0,0.0,0.0,0.0,0.0,0.0,0.0,-0.1712,-0.1845,-0.1941,0.0,0.0,0.0,0.0,0.0,0.0,0.0,0.0,0.0,0.0,0.0,0.0,0.0,0.0,0.0,0.0,0.0,0.0,0.0,0.0,0.0,0.0,0.0,0.0,0.0,0.0,0.0,0.0,0.0,0.0,0.0,0.0,0.0,0.0,0.0,0.0,0.0,0.0,0.0,0.0,0.0,0.0,0.0,0.0,0.0,0.0,0.0,0.0,0.0,0.0,0.0,0.0,0.0,0.0,0.0,0.0,0.0,0.0,0.0,0.0,0.0,0.0,0.0,0.0,0.0,0.0,0.0,0.0,0.0,0.0,0.0,0.0,0.0,0.0,0.0,0.0,0.0,0.0,0.0,0.0,0.0,0.0,0.0,0.0,0.0,0.0,0.0,0.0,0.0,0.0,0.0,0.0,0.0,0.0,0.0,0.0,0.0,0.0,0.0,0.0,0.0,0.0,0.0,0.0,0.0,0.0,0.0,0.0,0.0,0.0,-0.1293,0.0,-0.1789,-0.2007,-0.2077,-0.2022,0.0,0.0,0.0,0.0,0.0,0.0,0.0,0.0,0.0,0.0,0.0,0.0,0.0,0.0,0.0,0.0,0.0,0.0,0.0,0.0,0.0,0.0,0.0,0.0,0.0,0.0,0.0,0.0,0.0,0.0,0.0,0.0,0.0,0.0,0.0,0.0,0.0,0.0,0.0,0.0,0.0,0.0,0.0,0.0,0.0,0.0,0.0,0.0,0.0,0.0,0.0,0.0,0.0,0.0,0.0,0.0,0.0,0.0,0.0,0.0,0.0,0.0,0.0,0.0,0.0,0.0,0.0,0.0,0.0,0.0,0.0,0.0,0.0,0.0,0.0,0.0,0.0,0.0,0.0,0.0,0.0,0.0,0.0,0.0,0.0,0.0,0.0,0.0,0.0,0.0,0.0,0.0,0.0,0.0,0.0,0.0,0.0,0.0,0.0,0.0,0.0,0.0,0.0,0.0,0.0,0.0,0.0,0.0,0.0,-0.1306,-0.147,-0.1802,-0.1991,-0.2114,0.0,0.0,0.0,0.0,0.0,0.0,0.0,0.0,0.0,0.0,0.0,0.0,0.0,0.0,0.0,0.0,0.0,0.0,0.0,0.0,0.0,0.0,0.0,0.0,0.0,0.0,0.0,0.0,0.0,0.0,0.0,0.0,0.0,0.0,0.0,0.0,0.0,0.0,0.0,0.0,0.0,0.0,0.0,0.0,0.0,0.0,0.0,0.0,0.0,0.0,0.0,0.0,0.0,0.0,0.0,0.0,0.0,0.0,0.0,0.0,0.0,0.0,0.0,0.0,0.0,0.0,0.0,0.0,0.0,0.0,0.0,0.0,0.0,0.0,0.0,0.0,0.0,0.0,0.0,0.0,0.0,0.0,0.0,0.0,0.0,0.0,0.0,0.0,0.0,0.0,0.0,0.0,0.0,0.0,0.0,0.0,0.0,0.0,0.0,0.0,0.0,0.0,0.0,0.0,0.0,0.0,0.0,0.0,0.0,-0.1507,-0.1703,-0.189,-0.1986,-0.2146,-0.2177,0.0,0.0,0.0,0.0,0.0,0.0,0.0,0.0,0.0,0.0,0.0,0.0,0.0,0.0,0.0,0.0,0.0,0.0,0.0,0.0,0.0,0.0,0.0,0.0,0.0,0.0,0.0,0.0,0.0,0.0,0.0,0.0,0.0,0.0,0.0,0.0,0.0,0.0,0.0,0.0,0.0,0.0,0.0,0.0,0.0,0.0,0.0,0.0,0.0,0.0,0.0,0.0,0.0,0.0,0.0,0.0,0.0,0.0,0.0,0.0,0.0,0.0,0.0,0.0,0.0,0.0,0.0,0.0,0.0,0.0,0.0,0.0,0.0,0.0,0.0,0.0,0.0,0.0,0.0,0.0,0.0,0.0,0.0,0.0,0.0,0.0,0.0,0.0,0.0,0.0,0.0,0.0,0.0,0.0,0.0,0.0,0.0,0.0,0.0,0.0,0.0,0.0,0.0,0.0,0.0,0.0,0.0,0.0,0.0,-0.1661,0.0,-0.2071,0.0,-0.2173,-0.2182,0.0,0.0,0.0,0.0,0.0,0.0,0.0,0.0,0.0,0.0,0.0,0.0,0.0,0.0,0.0,0.0,0.0,0.0,0.0,0.0,0.0,0.0,0.0,0.0,0.0,0.0,0.0,0.0,0.0,0.0,0.0,0.0,0.0,0.0,0.0,0.0,0.0,0.0,0.0,0.0,0.0,0.0,0.0,0.0,0.0,0.0,0.0,0.0,0.0,0.0,0.0,0.0,0.0,0.0,0.0,0.0,0.0,0.0,0.0,0.0,0.0,0.0,0.0,0.0,0.0,0.0,0.0,0.0,0.0,0.0,0.0,0.0,0.0,0.0,0.0,0.0,0.0,0.0,0.0,0.0,0.0,0.0,0.0,0.0,0.0,0.0,0.0,0.0,0.0,0.0,0.0,0.0,0.0,0.0,0.0,0.0,0.0,0.0,0.0,0.0,0.0,0.0,0.0,0.0,0.0,0.0,0.0,0.0,-0.168,-0.1816,-0.1949,-0.2047,-0.2025,-0.2082,-0.2103,0.0,0.0,0.0,0.0,0.0,0.0,0.0,0.0,0.0,0.0,0.0,0.0,0.0,0.0,0.0,0.0,0.0,0.0,0.0,0.0,0.0,0.0,0.0,0.0,0.0,0.0,0.0,0.0,0.0,0.0,0.0,0.0,0.0,0.0,0.0,0.0,0.0,0.0,0.0,0.0,0.0,0.0,0.0,0.0,0.0,0.0,0.0,0.0,0.0,0.0,0.0,0.0,0.0,0.0,0.0,0.0,0.0,0.0,0.0,0.0,0.0,0.0,0.0,0.0,0.0,0.0,0.0,0.0,0.0,0.0,0.0,0.0,0.0,0.0,0.0,0.0,0.0,0.0,0.0,0.0,0.0,0.0,0.0,0.0,0.0,0.0,0.0,0.0,0.0,0.0,0.0,0.0,0.0,0.0,0.0,0.0,0.0,0.0,0.0,0.0,0.0,0.0,0.0,0.0,0.0,0.0,0.0,0.0,0.0,-0.2285,-0.2512,-0.2567,-0.2407,-0.2293,-0.2191,0.0,0.0,0.0,0.0,0.0,0.0,0.0,0.0,0.0,0.0,0.0,0.0,0.0,0.0,0.0,0.0,0.0,0.0,0.0,0.0,0.0,0.0,0.0,0.0,0.0,0.0,0.0,0.0,0.0,0.0,0.0,0.0,0.0,0.0,0.0,0.0,0.0,0.0,0.0,0.0,0.0,0.0,0.0,0.0,0.0,0.0,0.0,0.0,0.0,0.0,0.0,0.0,0.0,0.0,0.0,0.0,0.0,0.0,0.0,0.0,0.0,0.0,0.0,0.0,0.0,0.0,0.0,0.0,0.0,0.0,0.0,0.0,0.0,0.0,0.0,0.0,0.0,0.0,0.0,0.0,0.0,0.0,0.0,0.0,0.0,0.0,0.0,0.0,0.0,0.0,0.0,0.0,0.0,0.0,0.0,0.0,0.0,0.0,0.0,0.0,0.0,0.0,0.0,0.0,0.0,0.0,0.0,0.0,0.0,-0.2972,-0.3022,-0.2963,-0.2787,-0.2561,-0.2402,-0.2234,0.0,0.0,0.0,0.0,0.0,0.0,0.0,0.0,0.0,0.0,0.0,0.0,0.0,0.0,0.0,0.0,0.0,0.0,0.0,0.0,0.0,0.0,0.0,0.0,0.0,0.0,0.0,0.0,0.0,0.0,0.0,0.0,0.0,0.0,0.0,0.0,0.0,0.0,0.0,0.0,0.0,0.0,0.0,0.0,0.0,0.0,0.0,0.0,0.0,0.0,0.0,0.0,0.0,0.0,0.0,0.0,0.0,0.0,0.0,0.0,0.0,0.0,0.0,0.0,0.0,0.0,0.0,0.0,0.0,0.0,0.0,0.0,0.0,0.0,0.0,0.0,0.0,0.0,0.0,0.0,0.0,0.0,0.0,0.0,0.0,0.0,0.0,0.0,0.0,0.0,0.0,0.0,0.0,0.0,0.0,0.0,0.0,0.0,0.0,0.0,0.0,0.0,0.0,0.0,0.0,0.0,0.0,0.0,-0.3822,-0.3527,-0.3331,-0.3154,-0.2883,-0.2667,0.0,0.0,0.0,0.0,0.0,0.0,0.0,0.0,0.0,0.0,0.0,0.0,0.0,0.0,0.0,0.0,0.0,0.0,0.0,0.0,0.0,0.0,0.0,0.0,0.0,0.0,0.0,0.0,0.0,0.0,0.0,0.0,0.0,0.0,0.0,0.0,0.0,0.0,0.0,0.0,0.0,0.0,0.0,0.0,0.0,0.0,0.0,0.0,0.0,0.0,0.0,0.0,0.0,0.0,0.0,0.0,0.0,0.0,0.0,0.0,0.0,0.0,0.0,0.0,0.0,0.0,0.0,0.0,0.0,0.0,0.0,0.0,0.0,0.0,0.0,0.0,0.0,0.0,0.0,0.0,0.0,0.0,0.0,0.0,0.0,0.0,0.0,0.0,0.0,0.0,0.0,0.0,0.0,0.0,0.0,0.0,0.0,0.0,0.0,0.0,0.0,0.0,0.0,0.0,0.0,0.0,0.0,0.0,0.0,-0.3937,-0.4374,-0.4333,-0.3788,-0.3264,-0.2893,0.0,0.0,0.0,0.0,0.0,0.0,0.0,0.0,0.0,0.0,0.0,0.0,0.0,0.0,0.0,0.0,0.0,0.0,0.0,0.0,0.0,0.0,0.0,0.0,0.0,0.0,0.0,0.0,0.0,0.0,0.0,0.0,0.0,0.0,0.0,0.0,0.0,0.0,0.0,0.0,0.0,0.0,0.0,0.0,0.0,0.0,0.0,0.0,0.0,0.0,0.0,0.0,0.0,0.0,0.0,0.0,0.0,0.0,0.0,0.0,0.0,0.0,0.0,0.0,0.0,0.0,0.0,0.0,0.0,0.0,0.0,0.0,0.0,0.0,0.0,0.0,0.0,0.0,0.0,0.0,0.0,0.0,0.0,0.0,0.0,0.0,0.0,0.0,0.0,0.0,0.0,0.0,0.0,0.0,0.0,0.0,0.0,0.0,0.0,0.0,0.0,0.0,0.0,0.0,0.0,0.0,0.0,0.0,-0.4056,-0.4368,-0.4975,-0.5053,-0.4476,-0.3733,-0.3196,0.0,0.0,0.0,0.0,0.0,0.0,0.0,0.0,0.0,0.0,0.0,0.0,0.0,0.0,0.0,0.0,0.0,0.0,0.0,0.0,0.0,0.0,0.0,0.0,0.0,0.0,0.0,0.0,0.0,0.0,0.0,0.0,0.0,0.0,0.0,0.0,0.0,0.0,0.0,0.0,0.0,0.0,0.0,0.0,0.0,0.0,0.0,0.0,0.0,0.0,0.0,0.0,0.0,0.0,0.0,0.0,0.0,0.0,0.0,0.0,0.0,0.0,0.0,0.0,0.0,0.0,0.0,0.0,0.0,0.0,0.0,0.0,0.0,0.0,0.0,0.0,0.0,0.0,0.0,0.0,0.0,0.0,0.0,0.0,0.0,0.0,0.0,0.0,0.0,0.0,0.0,0.0,0.0,0.0,0.0,0.0,0.0,0.0,0.0,0.0,0.0,0.0,0.0,0.0,0.0,0.0,0.0,0.0,-0.4382,-0.4901,-0.5393,-0.5481,-0.5117,-0.4223,-0.356,0.0,0.0,0.0,0.0,0.0,0.0,0.0,0.0,0.0,0.0,0.0,0.0,0.0,0.0,0.0,0.0,0.0,0.0,0.0,0.0,0.0,0.0,0.0,0.0,0.0,0.0,0.0,0.0,0.0,0.0,0.0,0.0,0.0,0.0,0.0,0.0,0.0,0.0,0.0,0.0,0.0,0.0,0.0,0.0,0.0,0.0,0.0,0.0,0.0,0.0,0.0,0.0,0.0,0.0,0.0,0.0,0.0,0.0,0.0,0.0,0.0,0.0,0.0,0.0,0.0,0.0,0.0,0.0,0.0,0.0,0.0,0.0,0.0,0.0,0.0,0.0,0.0,0.0,0.0,0.0,0.0,0.0,0.0,0.0,0.0,0.0,0.0,0.0,0.0,0.0,0.0,0.0,0.0,0.0,0.0,0.0,0.0,0.0,0.0,0.0,0.0,0.0,0.0,0.0,0.0,0.0,0.0,0.0,-0.4843,-0.5056,-0.5609,-0.5739,-0.5358,-0.4591,-0.3984,0.0,0.0,0.0,0.0,0.0,0.0,0.0,0.0,0.0,0.0,0.0,0.0,0.0,0.0,0.0,0.0,0.0,0.0,0.0,0.0,0.0,0.0,0.0,0.0,0.0,0.0,0.0,0.0,0.0,0.0,0.0,0.0,0.0,0.0,0.0,0.0,0.0,0.0,0.0,0.0,0.0,0.0,0.0,0.0,0.0,0.0,0.0,0.0,0.1293,0.0,0.0,0.0,0.0,0.0,0.0,0.0,0.0,0.0,0.0,0.0,0.0,0.0,0.0,0.0,0.0,0.0,0.0,0.0,0.0,0.0,0.0,0.0,0.0,0.0,0.0,0.0,0.0,0.0,0.0,0.0,0.0,0.0,0.0,0.0,0.0,0.0,0.0,0.0,0.0,0.0,0.0,0.0,0.0,0.0,0.0,0.0,0.0,0.0,0.0,0.0,0.0,0.0,0.0,0.0,0.0,0.0,0.0,0.0,-0.523,-0.5447,-0.5895,-0.5956,-0.561,-0.5096,-0.4494,0.0,0.0,0.0,0.0,0.0,0.0,0.0,0.0,0.0,0.0,0.0,0.0,0.0,0.0,0.0,0.0,0.0,0.0,0.0,0.0,0.0,0.0,0.0,0.0,0.0,0.0,0.0,0.0,0.0,0.0,0.0,0.0,0.0,0.0,0.0,0.0,0.0,0.0,0.0,0.0,0.0,0.0,0.0,0.0,0.0,0.0,0.0,0.0,0.0,0.0,0.0,0.0,0.0,0.0,0.0,0.0,0.0,0.0,0.0,0.0,0.0,0.0,0.0,0.0,0.0,0.0,0.0,0.0,0.0,0.0,0.0,0.0,0.0,0.0,0.0,0.0,0.0,0.0,0.0,0.0,0.0,0.0,0.0,0.0,0.0,0.0,0.0,0.0,0.0,0.0,0.0,0.0,0.0,0.0,0.0,0.0,0.0,0.0,0.0,0.0,0.0,0.0,0.0,0.0,0.0,0.0,0.0,-0.506,-0.5596,-0.5867,-0.6173,-0.6173,-0.5847,-0.5583,-0.4986,-0.4015,0.0,0.0,0.0,0.0,0.0,0.0,0.0,0.0,0.0,0.0,0.0,0.0,0.0,0.0,0.0,0.0,0.0,0.0,0.0,0.0,0.0,0.0,0.0,0.0,0.0,0.0,0.0,0.0,0.0,0.0,0.0,0.0,0.0,0.0,0.0,0.0,0.0,0.0,0.1218,0.127,0.0,0.0,0.0,0.0,0.0,0.0,0.0,0.0,0.1281,0.0,0.0,0.0,0.0,0.0,0.0,0.0,0.0,0.0,0.0,0.0,0.0,0.0,0.0,0.0,0.0,0.0,0.0,0.0,0.0,0.0,0.0,0.0,0.0,0.0,0.0,0.0,0.0,0.0,0.0,0.0,0.0,0.0,0.0,0.0,0.0,0.0,0.0,0.0,0.0,0.0,0.0,0.0,0.0,0.0,0.0,0.0,0.0,0.0,0.0,0.0,0.0,0.0,0.0,0.0,0.0,-0.445,-0.5413,-0.601,-0.6224,-0.6478,-0.6424,-0.5966,-0.5705,-0.5189,-0.4429,0.0,0.0,0.0,0.0,0.0,0.0,0.0,0.0,0.0,0.0,0.0,0.0,0.0,0.0,0.0,0.0,0.0,0.0,0.0,0.0,0.0,0.0,0.0,0.0,0.0,0.0,0.0,0.0,0.0,0.0,0.0,0.0,0.0,0.0,0.0,0.0,0.0,0.0,0.0,0.1314,0.1342,0.0,0.0,0.0,0.0,0.0,0.0,0.0,0.0,0.095,0.0,0.0,0.0,0.0,0.0,0.0,0.0,0.0,0.0,0.0,0.0,0.0,0.0,0.0,0.0,0.0,0.0,0.0,0.0,0.0,0.0,0.0,0.0,0.0,0.0,0.0,0.0,0.0,0.0,0.0,0.0,0.0,0.0,0.0,0.0,0.0,0.0,0.0,0.0,0.0,0.0,0.0,0.0,0.0,0.0,0.0,0.0,0.0,0.0,0.0,0.0,0.0,0.0,0.0,0.0,-0.4955,-0.5806,-0.6335,-0.6525,-0.6702,-0.6607,-0.6159,-0.5786,-0.5303,0.0,0.0,0.0,0.0,0.0,0.0,0.0,0.0,0.0,0.0,0.0,0.0,0.0,0.0,0.0,0.0,0.0,0.0,0.0,0.0,0.0,0.0,0.0,0.0,0.0,0.0,0.0,0.0,0.0,0.0,0.0,0.0,0.0,0.0,0.0,0.0,0.0,0.0,0.0,0.0,0.139,0.139,0.166,0.0,0.0,0.0,0.0,0.0,0.0,0.0453,0.0326,0.0,0.0,0.0,0.0,0.0,0.0,0.0,0.0,0.0,0.0,0.0,0.0,0.0,0.0,0.0,0.0,0.0,0.0,0.0,0.0,0.0,0.0,0.0,0.0,0.0,0.0,0.0,0.0,0.0,0.0,0.0,0.0,0.0,0.0,0.0,0.0,0.0,0.0,0.0,0.0,0.0,0.0,0.0,0.0,0.0,0.0,0.0,0.0,0.0,0.0,0.0,0.0,0.0,0.0,0.0,-0.5378,-0.6163,-0.6593,-0.6742,-0.6898,-0.6756,-0.6354,-0.5867,-0.5338,0.0,0.0,0.0,0.0,0.0,0.0,0.0,0.0,0.0,0.0,0.0,0.0,0.0,0.0,0.0,0.0,0.0,0.0,0.0,0.0,0.0,0.0,0.0,0.0,0.0,0.0,0.0,0.0,0.0,0.0,0.0,0.0,0.0,0.0,0.0,0.0,0.0,0.0,0.0,0.0,0.0,0.1401,0.1766,0.1427,0.0,0.0,0.0,0.0,0.0183,-0.021,0.0,0.0,0.0,0.0,0.0,0.0,0.0,0.0,0.0,0.0,0.0,0.0,0.0,0.0,0.0,0.0,0.0,0.0,0.0,0.0,0.0,0.0,0.0,0.0,0.0,0.0,0.0,0.0,0.0,0.0,0.0,0.0,0.0,0.0,0.0,0.0,0.0,0.0,0.0,0.0,0.0,0.0,0.0,0.0,0.0,0.0,0.0,0.0,0.0,0.0,0.0,0.0,0.0,0.0,0.0,0.0,-0.5385,-0.6265,-0.6749,-0.6898,-0.6997,-0.6905,-0.6497,-0.601,-0.544,0.0,0.0,0.0,0.0,0.0,0.0,0.0,0.0,0.0,0.0,0.0,0.0,0.0,0.0,0.0,0.0,0.0,0.0,0.0,0.0,0.0,0.0,0.0,0.0,0.0,0.0,0.0,0.0,0.0,0.0,0.0,0.0,0.0,0.0,0.0,0.0,0.0,0.0,0.0,0.0,0.0,0.1147,0.1493,0.124,0.1002,0.0,0.0,0.0,-0.0232,-0.0859,0.0,0.0,0.0,0.0,0.0,0.0,0.0,0.0,0.0,0.0,0.0,0.0,0.0,0.0,0.0,0.0,0.0,0.0,0.0,0.0,0.0,0.0,0.0,0.0,0.0,0.0,0.0,0.0,0.0,0.0,0.0,0.0,0.0,0.0,0.0,0.0,0.0,0.0,0.0,0.0,0.0,0.0,0.0,0.0,0.0,0.0,0.0,0.0,0.0,0.0,0.0,0.0,0.0,0.0,0.0,-0.4545,-0.5589,-0.6329,-0.6817,-0.6997,-0.7065,-0.6923,-0.6614,-0.6166,-0.5623,0.0,0.0,0.0,0.0,0.0,0.0,0.0,0.0,0.0,0.0,0.0,0.0,0.0,0.0,0.0,0.0,0.0,0.0,0.0,0.0,0.0,0.0,0.0,0.0,0.0,0.0,0.0,0.0,0.0,0.0,0.0,0.0,0.0,0.0,0.0,0.0,0.0,0.0,0.0,0.0,0.0,0.0,0.0965,0.0624,0.0,0.0,0.0,-0.1039,-0.1091,0.0,0.0,0.0,0.0,0.0,0.0,0.0,0.0,0.0,0.0,0.0,0.0,0.0,0.0,0.0,0.0,0.0,0.0,0.0,0.0,0.0,0.0,0.0,0.0,0.0,0.0,0.0,0.0,0.0,0.0,0.0,0.0,0.0,0.0,0.0,0.0,0.0,0.0,0.0,0.0,0.0,0.0,0.0,0.0,0.0,0.0,0.0,0.0,0.0,0.0,0.0,0.0,0.0,0.0,0.0,0.0,0.0,-0.5929,-0.6555,-0.6971,-0.7217,-0.7143,-0.6957,-0.6702,-0.6263,0.0,0.0,0.0,0.0,0.0,0.0,0.0,0.0,0.0,0.0,0.0,0.0,0.0,0.0,0.0,0.0,0.0,0.0,0.0,0.0,0.0,0.0,0.0,0.0,0.0,0.0,0.0,0.011,0.0,0.0,0.0,0.0,0.0,0.0,0.0,0.0,0.0,0.0,0.0,0.0,0.0,0.0,-0.0287,0.0224,-0.0076,-0.0311,0.0,0.0,-0.1685,-0.186,-0.2814,-0.3366,0.0,0.0,0.0,0.0,0.0,0.0,0.0,0.0,0.0,0.0,0.0,0.0,0.0,0.0,0.0,0.0,0.0,0.0,0.0,0.0,0.0,0.0,0.0,0.0,0.0,0.0,0.0,0.0,0.0,0.0,0.0,0.0,0.0,0.0,0.0,0.0,0.0,0.0,0.0,0.0,0.0,0.0,0.0,0.0,0.0,0.0,0.0,0.0,0.0,0.0,0.0,0.0,0.0,0.0,0.0,-0.6315,-0.695,-0.7309,-0.7445,-0.7231,-0.6957,-0.6709,-0.6403,-0.5895,0.0,0.0,0.0,0.0,0.0,0.0,0.0,0.0,0.0,0.0,0.0,0.0,0.0,0.0,0.0,0.0,0.0,0.0,0.0,0.0,0.0,0.0,0.0,0.0,0.0,0.0,0.0,0.0,0.0,0.0,0.0,0.0,0.0,0.0,0.0,0.0,0.0,0.0,0.0,0.0,0.0,-0.097,-0.0799,-0.0781,-0.0883,0.0,0.0,-0.2089,-0.2388,-0.3235,-0.3662,-0.3076,0.0,0.0,0.0,0.0,0.0,0.0,0.0,0.0,0.0,0.0,0.0,0.0,0.0,0.0,0.0,0.0,0.0,0.0,0.0,0.0,0.0,0.0,0.0,0.0,0.0,0.0,0.0,0.0,0.0,0.0,0.0,0.0,0.0,0.0,0.0,0.0,0.0,0.0,0.0,0.0,0.0,0.0,0.0,0.0,0.0,0.0,0.0,0.0,0.0,0.0,0.0,0.0,0.0,-0.5752,-0.6722,-0.7274,-0.7575,-0.765,-0.7229,-0.6912,-0.6709,-0.6538,-0.6074,0.0,0.0,0.0,0.0,0.0,0.0,0.0,0.0,0.0,0.0,0.0,0.0,0.0,0.0,0.0,0.0,0.0,0.0,0.0,0.0,0.0,0.0,0.0,0.0,0.0,0.0,0.0,0.0,-0.0258,-0.0323,-0.0416,0.0,0.0,0.0,0.0,0.0,0.0,0.0,0.0,0.0,0.0,-0.2521,-0.2144,-0.2336,0.0,0.0,-0.2769,-0.3125,-0.3158,-0.3744,-0.4067,-0.3612,-0.3178,0.0,0.0,0.0,0.0,0.0,0.0,0.0,0.0,0.0,0.0,0.0,0.0,0.0,0.0,0.0,0.0,0.0,0.0,0.0,0.0,0.0,0.0,0.0,0.0,0.0,0.0,0.0,0.0,0.0,0.0,0.0,0.0,0.0,0.0,0.0,0.0,0.0,0.0,0.0,0.0,0.0,0.0,0.0,0.0,0.0,0.0,0.0,0.0,0.0,0.0,0.0,0.0,-0.6482,-0.7341,-0.8012,-0.8312,-0.8226,-0.7636,-0.7159,-0.6922,-0.6682,-0.6245,0.0,0.0,0.0,0.0,0.0,0.0,0.0,0.0,0.0,0.0,0.0,0.0,0.0,0.0,0.0,0.0,0.0,0.0,0.0,0.0,0.0,0.0,0.0,0.0,0.0,0.0,0.0,0.0,-0.0758,-0.0785,-0.0839,0.0,0.0,0.0,0.0,0.0,0.0,0.0,0.0,0.0,0.0,-0.356,-0.3261,-0.3489,-0.3583,-0.34,-0.3612,-0.3823,-0.3759,-0.4156,-0.4267,-0.3957,0.0,0.0,0.0,0.0,0.0,0.0,0.0,0.0,0.0,0.0,0.0,0.0,0.0,0.0,0.0,0.0,0.0,0.0,0.0,0.0,0.0,0.0,0.0,0.0,0.0,0.0,0.0,0.0,0.0,0.0,-0.6146,0.0,0.0,0.0,0.0,0.0,0.0,0.0,0.0,0.0,0.0,0.0,0.0,0.0,0.0,0.0,0.0,0.0,0.0,0.0,0.0,0.0,0.0,0.0,-0.8382,-0.9343,-0.9622,-0.9165,-0.8487,-0.7945,-0.7482,-0.6978,-0.641,-0.5786,0.0,0.0,0.0,0.0,0.0,0.0,0.0,0.0,0.0,0.0,0.0,0.0,0.0,0.0,0.0,0.0,0.0,0.0,0.0,0.0,0.0,0.0,0.0,0.0,0.0,0.0,-0.1558,-0.1444,-0.1331,0.0,0.0,0.0,0.0,0.0,0.0,0.0,0.0,0.0,0.0,-0.3632,-0.3949,-0.4137,-0.3985,-0.396,-0.4185,-0.4043,-0.3967,-0.4186,-0.4309,-0.4267,0.0,0.0,0.0,0.0,0.0,0.0,0.0,0.0,0.0,0.0,0.0,0.0,0.0,0.0,0.0,0.0,0.0,0.0,0.0,0.0,0.0,0.0,0.0,0.0,0.0,0.0,0.0,-0.7816,-0.7647,0.0,0.0,0.0,0.0,0.0,0.0,0.0,0.0,0.0,0.0,0.0,-1.0857,-1.1179,0.0,0.0,0.0,0.0,0.0,0.0,0.0,0.0,0.0,0.0,0.0,0.0,-0.8666,-0.9718,-1.0486,-1.0743,-1.0378,-0.9195,-0.8237,-0.7649,-0.7014,-0.6274,-0.5346,0.0,0.0,0.0,0.0,0.0,0.0,0.0,0.0,0.0,0.0,0.0,0.0,0.0,0.0,0.0,0.0,0.0,0.0,0.0,0.0,0.0,0.0,0.0,0.0,0.0,-0.1928,0.0,0.0,0.0,0.0,0.0,0.0,0.0,0.0,0.0,0.0,0.0,-0.3844,-0.4008,-0.4559,-0.4981,-0.5058,-0.5222,-0.5307,0.0,0.0,0.0,0.0,0.0,0.0,0.0,0.0,0.0,0.0,0.0,0.0,0.0,0.0,-0.4606,-0.4119,-0.399,-0.3851,-0.3613,0.0,0.0,0.0,0.0,0.0,0.0,0.0,0.0,0.0,0.0,0.0,0.0,0.0,0.0,-0.9552,0.0,-0.8817,0.0,0.0,0.0,0.0,0.0,0.0,0.0,0.0,-1.2505,-1.308,-1.2856,-1.3198,-1.3144,0.0,-1.2671,-1.1702,0.0,0.0,0.0,0.0,0.0,0.0,0.0,0.0,-0.9815,-1.0938,-1.1725,-1.1904,-1.1466,-1.0213,-0.9167,-0.8427,-0.7454,-0.6434,-0.5433,-0.5013,-0.458,0.0,0.0,0.0,0.0,0.0,0.0,0.0,0.0,0.0,0.0,0.0,0.0,0.0,0.0,0.0,0.0,0.0,0.0,0.0,0.0,0.0,0.0,0.0,-0.2377,0.0,0.0,0.0,0.0,0.0,0.0,0.0,0.0,0.0,-0.3532,-0.4207,-0.4737,-0.4768,-0.5254,-0.5601,-0.5713,0.0,0.0,0.0,0.0,0.0,0.0,0.0,-0.4888,-0.478,-0.4759,-0.4894,-0.5171,-0.5451,-0.5649,-0.5689,0.0,0.0,-0.5122,-0.4961,-0.4873,-0.4583,-0.4569,-0.4623,-0.4545,-0.4816,-0.5145,0.0,0.0,0.0,0.0,0.0,0.0,0.0,0.0,-1.1677,-1.1383,0.0,-1.0814,0.0,0.0,0.0,0.0,0.0,0.0,0.0,0.0,-1.4218,-1.5048,-1.5003,-1.5271,-1.5418,-1.5404,-1.5097,-1.4496,-1.3479,-1.0924,0.0,0.0,0.0,0.0,0.0,0.0,-1.0973,-1.2034,-1.3028,-1.3192,-1.2498,-1.1532,-1.062,-0.9728,-0.8161,-0.6901,-0.6071,-0.5651,-0.5276,-0.4938,-0.4219,0.0,0.0,0.0,0.0,0.0,0.0,0.0,0.0,0.0,0.0,0.0,0.0,0.0,0.0,0.0,0.0,0.0,0.0,0.0,0.0,-0.3145,0.0,0.0,0.0,0.0,0.0,0.0,0.0,0.0,0.0,0.0,-0.441,-0.4805,-0.522,-0.547,0.0,0.0,0.0,0.0,-0.6132,-0.6181,-0.6268,-0.6284,-0.5974,-0.5634,-0.5468,-0.577,0.0,0.0,-0.6071,-0.6158,-0.6197,-0.629,-0.6483,-0.6529,-0.6215,-0.5957,-0.5826,-0.5712,-0.5624,-0.5586,-0.5701,-0.592,-0.6279,-1.9805,0.0,0.0,0.0,0.0,-1.3787,-1.417,-1.4362,-1.411,-1.3898,-1.3736,-1.2835,0.0,0.0,0.0,0.0,0.0,0.0,-1.332,-1.3948,-1.5284,-1.5946,-1.596,-1.6192,-1.6219,-1.6019,-1.5725,-1.5231,-1.4563,-1.3357,-1.1889,-1.0118,0.0,0.0,0.0,0.0,-1.1887,-1.2979,-1.404,-1.4412,-1.404,-1.2942,-1.1325,-0.9242,-0.825,-0.7332,-0.6519,-0.6078,-0.5705,-0.5406,-0.4782,0.0,0.0,0.0,0.0,0.0,0.0,0.0,0.0,0.0,0.0,0.0,0.0,0.0,0.0,0.0,0.0,0.0,0.0,0.0,-0.3247,-0.3533,-0.3571,0.0,0.0,0.0,0.0,0.0,0.0,0.0,0.0,0.0,-0.5696,-0.5777,-0.588,0.0,0.0,-0.6562,-0.6749,-0.6993,-0.7049,-0.6965,0.0,0.0,0.0,-0.6554,-0.6453,-0.641,-0.6729,-0.7055,-0.7559,-0.758,-0.7564,-0.7577,-0.7696,-0.7691,-0.7552,-0.7054,-0.6553,-0.625,-0.6462,-0.6703,-0.6564,-0.6998,-0.7517,-2.438,-2.0283,-1.9018,-1.7723,-1.6521,-1.6743,-1.6836,-1.6767,-1.6513,-1.6307,-1.6107,-1.5294,-1.4584,-1.3925,-1.3385,0.0,0.0,0.0,-1.4937,-1.5431,-1.6486,-1.6967,-1.6994,-1.7275,-1.7194,-1.6794,-1.6607,-1.6166,-1.5531,-1.5169,-1.4215,-1.2732,0.0,0.0,-1.1299,-1.2002,-1.2936,-1.4034,-1.493,-1.5197,-1.4831,-1.3648,-1.1953,-0.9817,-0.917,-0.8416,-0.7473,-0.706,-0.6752,-0.6529,-0.5829,-0.5277,0.0,0.0,0.0,0.0,0.0,0.0,0.0,0.0,0.0,0.0,0.0,-0.218,0.0,0.0,0.0,0.0,-0.314,-0.3443,-0.384,-0.3983,0.0,0.0,0.0,0.0,0.0,0.0,0.0,-0.5489,-0.5852,-0.6202,-0.6589,-0.6638,-0.6611,-0.6497,-0.6747,-0.7002,-0.7176,0.0,-0.7578,-0.7551,-0.7714,-0.7774,-0.7407,-0.7199,-0.7123,-0.7055,-0.764,-0.8138,-0.8406,-0.8556,-0.8591,-0.8597,-0.8626,-0.8591,-0.858,-0.8185,-0.7675,-0.7006,-0.731,-0.7739,-0.7944,-0.8575,-0.9222,-2.7891,-2.6345,-2.3542,-2.1394,-1.9887,-1.9546,-1.9243,-1.9045,-1.8796,-1.8548,-1.8257,-1.7881,-1.71,-1.5989,-1.5413,0.0,-1.5565,-1.6112,-1.6526,-1.6847,-1.7636,-1.8022,-1.8049,-1.8357,-1.8183,-1.7609,-1.7569,-1.7128,-1.6366,-1.6286,-1.5992,-1.5431,-1.3452,-1.2618,-1.2971,-1.3359,-1.4061,-1.503,-1.5621,-1.5716,-1.5169,-1.3931,-1.2592,-1.121,-1.0716,-0.9913,-0.884,-0.8438,-0.8204,-0.8011,-0.7246,-0.6619,-0.625,0.0,0.0,0.0,0.0,0.0,0.0,0.0,0.0,0.0,0.0,0.0,0.0,0.0,0.0,0.0,-0.3831,0.0,-0.4618,-0.4518,0.0,0.0,0.0,-0.4588,-0.5061,-0.5523,-0.5942,-0.635,0.0,0.0,-0.7226,0.0,-0.7445,-0.7013,-0.715,-0.7323,-0.7546,-0.7698,-0.7812,-0.7921,-0.8046,-0.8089,-0.8013,-0.7743,-0.7593,-0.7696,-0.8347,-0.8881,-0.901,-0.9319,-0.9499,-0.9672,-0.9602,-0.9602,-0.9602,-0.9634,-0.9292,-0.8406,-0.8424,-0.8891,-0.9625,-1.04,-1.1125,-3.0412,-2.9679,-2.8464,-2.5763,-2.2274,-2.1958,-2.1404,-2.0741,-2.0426,-2.0061,-1.9763,-1.9189,-1.8304,-1.7177,-1.6581,-1.6446,-1.6804,-1.7152,-1.7435,-1.7689,-1.8183,-1.8384,-1.8384,-1.8464,-1.829,-1.7876,-1.7475,-1.7192,-1.6978,-1.6536,-1.6254,-1.6046,-1.5565,-1.503,-1.4512,-1.4745,-1.5145,-1.5618,-1.6211,-1.6262,-1.568,-1.4985,-1.4026,-1.277,-1.2053,-1.1197,-1.0248,-0.9771,-0.9442,-0.9262,-0.8673,-0.8101,-0.7569,-0.6504,0.0,0.0,0.0,0.0,0.0,0.0,0.0,0.0,0.0,-0.3193,-0.3476,0.0,-0.4033,0.0,-0.4635,-0.4937,-0.5165,-0.5207,0.0,0.0,-0.5227,-0.54,-0.5915,-0.623,-0.6545,-0.6958,-0.7182,-0.7519,-0.7903,-0.8122,-0.8268,-0.8474,-0.8244,-0.8002,-0.8062,-0.8247,-0.8388,-0.8421,-0.8579,-0.8658,-0.8677,-0.8625,-0.8553,-0.8595,-0.903,-0.9561,-1.0257,-1.0705,-1.1202,-1.1796,-1.1953,-1.1953,-1.1953,-1.1961,-1.1812,-1.1456,-1.084,-1.0364,-1.0826,-1.1697,-1.2553,-3.1562,-3.1113,-3.0621,-2.8637,-2.5822,-2.4977,-2.3857,-2.2527,-2.2214,-2.1654,-2.103,-2.0485,-1.9836,-1.9181,-1.8442,-1.817,-1.833,-1.8425,-1.8477,-1.8637,-1.8811,-1.8878,-1.8878,-1.8878,-1.8664,-1.8237,-1.7622,-1.7326,-1.7192,-1.6871,-1.6723,-1.671,-1.6927,-1.6754,-1.6139,-1.5899,-1.5925,-1.6219,-1.654,-1.66,-1.631,-1.5753,-1.4984,-1.3957,-1.3136,-1.227,-1.1326,-1.0928,-1.0573,-1.025,-0.9796,-0.9316,-0.8883,-0.7656,-0.6549,0.0,0.0,0.0,0.0,0.0,0.0,0.0,0.0,0.0,0.0,0.0,-0.4893,0.0,-0.5407,-0.5632,-0.605,-0.6168,-0.6258,-0.6432,-0.6496,-0.6665,-0.6957,-0.7104,-0.7337,-0.7595,-0.7729,-0.7944,-0.8426,-0.9123,-0.9697,-1.0154,-1.0424,-1.0123,-0.9004,-0.8936,-0.9073,-0.9203,-0.9171,-0.9157,-0.9157,-0.9296,-0.9434,-0.9504,-1.0058,-1.0718,-1.1453,-1.2119,-1.2827,-1.347,-1.3578,-1.3578,-1.3636,-1.3502,-1.3418,-1.3259,-1.2961,-1.2714,-1.2729,-1.3409,-1.4189,-3.1953,-3.1464,-3.1206,-3.046,-2.9471,-2.8044,-2.6277,-2.4363,-2.3963,-2.3216,-2.218,-2.1562,-2.1226,-2.117,-2.0324,-1.9878,-1.9725,-1.9484,-1.9363,-1.9363,-1.9305,-1.9332,-1.943,-1.943,-1.9135,-1.8531,-1.7929,-1.7502,-1.7313,-1.7273,-1.7259,-1.7286,-1.7769,-1.7889,-1.7569,-1.682,-1.6567,-1.6807,-1.682,-1.6826,-1.6832,-1.6308,-1.5663,-1.4912,-1.4092,-1.324,-1.2281,-1.2022,-1.1645,-1.1108,-1.0745,-1.0434,-1.0198,-0.8837,-0.7735,0.0,-0.6333,0.0,0.0,0.0,0.0,0.0,0.0,0.0,0.0,-0.5851,-0.6101,-0.6662,-0.6471,-0.6637,-0.7316,-0.7367,-0.7517,-0.7865,-0.8013,-0.8154,-0.823,-0.8286,-0.8319,-0.8408,-0.8391,-0.8626,-0.9275,-1.0359,-1.1304,-1.1806,-1.2759,-1.2653,-1.0749,-1.0332,-1.0341,-1.0302,-0.9946,-0.9788,-0.9852,-1.0119,-1.0474,-1.067,-1.1448,-1.2244,-1.2765,-1.3659,-1.4472,-1.4914,-1.5091,-1.5032,-1.4982,-1.4837,-1.466,-1.473,-1.4922,-1.4995,-1.475,-1.5074,-1.5834,-3.2226,-3.1523,-3.1444,-3.1092,-3.0587,-2.9962,-2.8325,-2.6017,-2.5176,-2.4085,-2.2852,-2.1985,-2.1472,-2.1171,-2.076,-2.0233,-1.9492,-1.9423,-1.9239,-1.9011,-1.9011,-1.9132,-1.9417,-1.943,-1.9185,-1.8824,-1.8223,-1.7916,-1.7822,-1.7622,-1.7502,-1.7502,-1.7862,-1.7836,-1.7595,0.0,0.0,0.0,-1.7422,-1.7328,-1.7103,-1.6757,-1.6351,-1.6015,-1.5186,0.0,-1.3561,-1.3243,-1.2759,-1.2076,-1.1969,0.0,0.0,0.0,0.0,0.0,0.0,0.0,0.0,0.0,0.0,0.0,-0.9718,-0.9196,-0.7781,-0.8028,-0.8488,-0.892,-0.8808,-0.8922,-0.9295,-0.9279,-0.942,-0.9658,-0.9731,-0.9794,-0.9912,-0.9926,-0.9964,-0.9982,-1.0042,-1.0297,-1.102,-1.1769,-1.2566,-1.3302,-1.3908,-1.4181,-1.3756,-1.3191,-1.2697,-1.2201,-1.1332,-1.0863,-1.1148,-1.1504,-1.213,-1.2932,-1.357,-1.421,-1.4909,-1.5505,-1.6196,-1.6885,-1.7105,-1.7047,-1.7047,-1.7063,-1.6856,-1.6813,-1.6807,-1.6571,-1.5554,-1.5804,-1.6481,-3.2734,0.0,-3.2148,-3.1914,0.0,-3.1206,-3.0227,-2.8699,-2.7158,-2.5526,-2.3779,-2.2635,-2.1961,-2.1572,-2.1036,-2.0338,-1.9569,-1.9167,-1.8823,-1.8657,-1.8693,-1.8865,-1.9158,-1.9305,-1.9212,-1.8905,-1.8303,-1.8023,-1.7982,-1.7836,-1.7809,-1.7809,-1.825,-1.833,-1.8036,-1.8036,-1.7876,-1.7582,-1.7582,-1.7502,-1.742,-1.7125,-1.6831,-1.6486,0.0,0.0,0.0,0.0,0.0,0.0,0.0,0.0,0.0,0.0,0.0,-1.01,-0.977,-0.9655,-0.9797,-1.0311,-1.0879,-1.1476,-1.2109,-1.1781,-1.0122,-1.0396,-1.0751,-1.1002,-1.0968,-1.1079,-1.1415,-1.1605,-1.1772,-1.1943,-1.2199,-1.2346,-1.2275,-1.22,-1.2192,-1.213,-1.2186,-1.2506,-1.3128,-1.4191,-1.4955,-1.5604,-1.6451,-1.7003,-1.6865,-1.5413,-1.3916,-1.3091,-1.2757,-1.2459,-1.2445,-1.2952,-1.3531,-1.4307,-1.4875,-1.5477,-1.6158,-1.6768,-1.7364,-1.7882,-1.8067,-1.8067,-1.8067,-1.7981,-1.7863,-1.7755,-1.7636,-1.7385,-1.6639,-1.6744,-1.7128,-3.3164,-3.2793,-3.2793,-3.2559,-3.2168,-3.1924,-3.1539,-3.1035,0.0,0.0,0.0,-2.3322,-2.2496,-2.2166,-2.1307,-2.0596,-1.9921,-1.9208,-1.8727,-1.8686,-1.8781,-1.891,-1.9135,-1.9435,-1.9377,-1.9052,-1.8464,-1.8129,-1.8142,-1.8142,-1.8115,-1.8115,-1.8664,-1.8784,-1.8517,-1.849,-1.825,-1.7769,-1.7689,-1.7662,-1.7662,-1.738,-1.7085,-1.678,-1.6219,-1.5351,-1.4257,-1.4334,-1.3925,-1.2978,-1.3201,-1.3226,-1.2868,-1.2571,-1.2159,-1.1635,-1.1612,-1.171,-1.1965,-1.2316,-1.2841,-1.3518,-1.4156,-1.3953,-1.2516,-1.2595,-1.2785,-1.2943,-1.2963,-1.3088,-1.3414,-1.3769,-1.4035,-1.4221,-1.4625,-1.471,-1.455,-1.4471,-1.4336,-1.4285,-1.4401,-1.4678,-1.512,-1.6312,-1.7437,-1.7803,-1.8575,-1.9541,-1.9239,-1.7186,-1.5262,-1.4398,-1.4369,-1.4315,-1.4227,-1.4654,-1.523,-1.5867,-1.6433,-1.6866,-1.7218,-1.7721,-1.8282,-1.86,-1.8643,-1.8622,-1.8622,-1.855,-1.8349,-1.8306,-1.8143,-1.799,-1.7968,-1.7838,-1.7906,-3.3184,-3.2793,-3.2793,-3.2559,-3.2229,-3.2168,-3.1803,-3.0931,-2.8122,-2.6405,-2.547,-2.3786,-2.2868,-2.2486,-2.2137,-2.151,-2.0659,-2.023,-1.9906,0.0,-1.989,-2.0081,-2.0078,-2.0133,-2.0015,-1.9639,-1.9078,-1.8798,-1.8798,-1.8798,-1.8677,-1.8504,-1.8758,-1.8784,-1.8517,-1.849,-1.845,-1.8357,-1.8103,-1.7929,-1.7916,-1.7435,-1.7179,-1.7112,-1.6526,-1.5949,-1.5342,-1.5295,-1.4815,-1.3795,-1.4195,-1.4151,-1.3447,-1.3534,-1.3606,-1.3534,-1.3513,-1.3801,-1.4506,-1.4841,-1.5355,-1.6132,-1.6648,-1.6251,-1.4505,-1.4352,-1.4416,-1.4652,-1.4684,-1.481,-1.5248,-1.5376,-1.5611,-1.5985,-1.6062,-1.6106,-1.595,-1.595,-1.5915,-1.5832,-1.5944,-1.6257,-1.6691,-1.7527,-1.8226,-1.8581,-1.9254,-1.9611,-1.946,-1.8659,-1.7658,-1.6906,-1.6494,-1.6423,-1.6484,-1.7057,-1.7549,-1.8681,-1.8832,-1.8843,-1.8901,-1.9052,-1.9262,-1.9401,-1.9343,-1.9332,-1.9401,-1.9379,-1.9196,-1.9049,-1.8936,-1.8914,-1.8914,-1.8868,-1.8868,-3.3301,-3.3125,-3.3144,-3.3027,-3.2851,-3.2851,-3.2459,-3.1609,-2.899,-2.721,-2.608,-2.405,-2.293,-2.2608,-2.2315,-2.1759,-2.1017,-2.0514,-2.0258,-2.0104,-2.0245,-2.0452,-2.0541,-2.0392,-2.0215,-2.001,-1.9488,-1.9172,-1.9172,-1.9158,-1.9092,-1.8985,-1.9105,-1.9092,-1.8971,-1.8971,-1.8971,-1.8958,-1.8517,-1.8155,-1.7995,-1.7782,-1.7488,-1.7206,-1.6924,-1.6477,-1.5748,-1.583,-1.5531,-1.4586,-1.4911,-1.485,-1.4208,-1.4413,-1.4497,-1.4364,-1.4606,-1.4992,-1.5499,-1.5922,-1.6429,-1.7068,-1.7346,-1.7291,-1.668,-1.6669,-1.6715,-1.6772,-1.6795,-1.6876,-1.7118,-1.7257,-1.743,-1.7649,-1.7799,-1.792,-1.7946,-1.8003,-1.8041,-1.8147,-1.834,-1.8564,-1.8698,-1.9221,-1.9577,-1.9795,-2.0051,-2.0179,-2.0179,-1.9889,-1.9181,-1.8191,-1.777,-1.77,-1.791,-1.8201,-1.8762,-1.9471,-1.9611,-1.9611,-1.9611,-1.9611,-1.9611,-1.9611,-1.9611,-1.9611,-1.9611,-1.9611,-1.9553,-1.9496,-1.9439,-1.9439,-1.9439,-1.9519,-1.9588,-3.3496,-3.3418,-3.3418,-3.3418,-3.3418,-3.3418,-3.3038,-3.2174,-2.9835,-2.812,-2.6701,-2.4404,-2.3149,-2.2828,-2.252,-2.2081,-2.1482,-2.096,-2.0758,-2.073,-2.0858,-2.0953,-2.0988,-2.0704,-2.0525,-2.0305,-1.9757,-1.9466,-1.9466,-1.9399,-1.943,-1.943,-1.943,-1.943,-1.943,-1.943,-1.943,-1.939,-1.8918,-1.8544,-1.8209,-1.8129,-1.7916,-1.7554,-1.7514,-1.7183,-1.6555,-1.6688,-1.6471,-1.5746,-1.5972,-1.5844,-1.5303,-1.5524,-1.5533,-1.5324,-1.564,-1.6016,-1.6247,-1.6754,-1.7237,-1.7624,-1.772,-1.7925,-1.8324,-1.8444,-1.8408,-1.8324,-1.819,-1.8226,-1.831,-1.8541,-1.871,-1.877,-1.9,-1.9152,-1.9434,-1.9584,-1.9639,-1.9881,-2.011,-2.0267,-2.0327,-2.0509,-2.0641,-2.0584,-2.0665,-2.0665,-2.0665,-2.0665,-2.0098,-1.9332,-1.8901,-1.8971,-1.8971,-1.9192,-1.9541,-1.9831,-1.9901,-1.9889,-1.9889,-1.9889,-1.982,-1.9889,-1.9889,-1.9889,-1.9889,-1.9889,-1.9889,-1.9935,-1.9935,-1.9878,-1.9878,-2.0086,-2.0237,-3.3789,-3.3437,-3.3437,-3.3418,-3.3418,-3.3418,-3.2975,-3.2174,-2.9835,-2.8361,-2.7374,-2.5089,-2.3808,-2.3486,-2.3164,-2.2813,-2.2462,-2.2184,-2.2037,-2.2007,-2.2299,-2.208,-2.1544,-2.1558,-2.1265,-2.0631,-2.0073,-1.9733,-1.972,-1.9551,-1.943,-1.943,-1.943,-1.943,-1.943,-1.943,-1.943,-1.943,-1.9377,-1.9145,-1.8851,-1.8584,-1.8424,-1.837,-1.8357,-1.8343,-1.8142,-1.8262,-1.802,-1.7566,-1.7694,-1.7557,-1.7054,-1.7216,-1.7245,-1.6974,-1.6981,-1.7129,-1.7344,-1.7841,-1.8131,-1.8227,-1.8408,-1.8565,-1.865,-1.8855,-1.8794,-1.8444,-1.8312,-1.8432,-1.8613,-1.8686,-1.8807,-1.9024,-1.9253,-1.9512,-1.9519,-1.97,-1.9857,-1.9881,-2.0158,-2.0279,-2.034,-2.0521,-2.0653,-2.0665,-2.0665,-2.0665,-2.0665,-2.0665,-2.0665,-2.0457,-2.0457,-2.0388,-2.0388,-2.0457,-2.0457,-2.0527,-2.0596,-2.0527,-2.0457,-2.0527,-2.0596,-2.0388,-2.0527,-2.0457,-2.0527,-2.0596,-2.0527,-2.0457,-2.0457,-2.0527,-2.0596,-2.0596,-2.0596,-3.4336,-3.416,-3.3906,-3.3652,-3.3437,-3.3418,-3.3058,-3.2192,-3.047,-2.9172,-2.8113,-2.6211,-2.4758,-2.3881,-2.3545,-2.3325,-2.3179,-2.2871,-2.2725,-2.274,-2.2672,-2.2482,-2.2157,-2.1616,-2.1225,-2.0937,-2.0201,-1.98,-1.976,-1.9506,-1.943,-1.943,-1.943,-1.943,-1.9386,-1.9533,-1.9626,-1.9626,-1.9626,-1.9559,-1.9399,-1.8985,-1.8664,-1.8517,-1.849,-1.849,-1.849,-1.849,-1.8326,-1.7987,-1.8023,-1.7926,-1.7478,-1.7537,-1.7477,-1.7266,-1.7338,-1.7496,-1.7696,-1.8082,-1.836,-1.8517,-1.8613,-1.8746,-1.8903,-1.9012,-1.8976,-1.8807,-1.8758,-1.8807,-1.8891,-1.8915,-1.9024,-1.933,-1.941,-1.9591,-1.9917,-2.005,-2.0171,-2.0384,-2.0436,-2.0509,-2.0521,-2.0605,-2.0665,-2.0665,-2.0665,-2.0665,-2.0665,-2.0665,-2.0665,-2.0665,-2.0665,-2.0665,-2.0665,-2.0665,-2.0665,-2.0665,-2.0665,-2.0665,-2.0665,-2.0665,-2.0665,-2.0665,-2.0665,-2.0665,-2.0665,-2.0665,-2.0665,-2.0665,-2.0665,-2.0665,-2.0665,-2.0665,-2.0665,-3.4805,-3.4648,-3.4258,-3.3887,-3.3594,-3.3476,-3.3038,-3.2403,-3.1166,-3.0048,-2.9085,-2.7235,-2.5774,-2.4794,-2.4142,-2.3823,-2.3706,-2.3486,-2.3325,-2.3252,-2.2986,-2.2692,-2.2404,-2.177,-2.1348,-2.108,-2.0416,-2.0,-1.9907,-1.972,-1.9613,-1.9599,-1.9599,-1.9599,-1.9626,-1.9826,-1.992,-1.9907,-1.9853,-1.98,-1.9733,-1.9305,-1.8945,-1.8758,-1.8731,-1.8771,-1.8851,-1.8851,-1.8821,-1.8674,-1.8674,-1.856,-1.8332,-1.8332,-1.816,-1.7798,-1.7787,-1.7901,-1.8082,-1.8348,-1.8589,-1.877,-1.8794,-1.8867,-1.9024,-1.9136,-1.9136,-1.906,-1.9136,-1.9124,-1.9072,-1.9145,-1.9265,-1.9446,-1.9633,-1.9935,-2.0207,-2.0327,-2.0448,-2.0629,-2.0629,-2.0665,-2.0665,-2.0665,-2.0665,-2.0665,-2.0665,-2.0665,-2.0665,-2.0665,-2.0665,-2.0665,-2.0665,-2.0665,-2.0665,-2.0665,-2.0665,-2.0665,-2.0665,-2.0665,-2.0665,-2.0665,-2.0665,-2.0665,-2.0665,-2.0665,-2.0665,-2.0665,-2.0665,-2.0665,-2.0665,-2.0665,-2.0665,-2.0665,-2.0665,-3.5098,-3.4668,-3.4238,-3.4062,-3.4004,-3.3594,-3.3165,-3.2721,-3.1726,-3.0807,-2.9852,-2.7949,-2.6804,-2.6275,-2.5077,-2.4349,-2.4086,-2.4013,-2.3837,-2.3588,-2.3496,-2.3019,-2.2181,-2.209,-2.1699,-2.1155,-2.0784,-2.0441,-2.014,-2.0174,-2.0127,-2.0174,-2.0147,-2.0113,-2.01,-2.0187,-2.0153,-2.0187,-1.9987,-1.984,-1.98,-1.9519,-1.9359,-1.9332,-1.9319,-1.9412,-1.9666,-1.972,-1.9826,-2.006,-2.002,-2.0047,-2.006,-1.9986,-1.9658,-1.9213,-1.8803,-1.8601,-1.8638,-1.8843,-1.9012,-1.9036,-1.9024,-1.9048,-1.9072,-1.916,-1.912,-1.9084,-1.9132,-1.9132,-1.9157,-1.9314,-1.9512,-1.9608,-1.9941,-2.0195,-2.0279,-2.0496,-2.0629,-2.0665,-2.0665,-2.0665,-2.0665,-2.0665,-2.0665,-2.0665,-2.0665,-2.0665,-2.0665,-2.0665,-2.0665,-2.0665,-2.0665,-2.0665,-2.0665,-2.0665,-2.0665,-2.0665,-2.0665,-2.0665,-2.0665,-2.0665,-2.0665,-2.0665,-2.0665,-2.0665,-2.0665,-2.0665,-2.0665,-2.0665,-2.0665,-2.0665,-2.0665,-2.0665,-2.0665,-3.5547,-3.5098,-3.4668,-3.4316,-3.4043,-3.3613,-3.3102,-3.253,-3.1937,-3.0908,-2.9561,-2.8097,-2.7051,-2.6249,-2.5338,-2.4701,-2.4393,-2.4188,-2.4013,-2.3881,-2.3499,-2.3085,-2.2716,-2.209,-2.1677,-2.1384,-2.094,-2.0521,-2.0267,-2.018,-2.018,-2.018,-2.018,-2.018,-2.0267,-2.0428,-2.0521,-2.0508,-2.0401,-2.0361,-2.0321,-2.008,-1.992,-1.9893,-1.9546,-1.9564,-1.98,-1.98,-1.9933,-2.0227,-2.018,-2.018,-2.018,-1.9863,-1.9559,-1.928,-1.8902,-1.8686,-1.871,-1.8927,-1.9136,-1.9136,-1.9136,-1.9136,-1.916,-1.9281,-1.9326,-1.9415,-1.9507,-1.9591,-1.9567,-1.9531,-1.9669,-1.9941,-2.0158,-2.0352,-2.0496,-2.0617,-2.0665,-2.0665,-2.0665,-2.0665,-2.0665,-2.0665,-2.0665,-2.0665,-2.0665,-2.0665,-2.0665,-2.0665,-2.0665,-2.0665,-2.0665,-2.0665,-2.0665,-2.0665,-2.0665,-2.0665,-2.0665,-2.0665,-2.0665,-2.0665,-2.0665,-2.0665,-2.0665,-2.069,-2.0702,-2.0774,-2.0762,-2.075,-2.075,-2.0786,-2.0665,-2.0786,-2.075,-3.5859,-3.5547,-3.5117,-3.4766,-3.4453,-3.4023,-3.3431,-3.2758,-3.2142,-3.1099,-2.9578,-2.8163,-2.7051,-2.6197,-2.5457,-2.5017,-2.4715,-2.4496,-2.4335,-2.4232,-2.3818,-2.3357,-2.2886,-2.2229,-2.176,-2.1411,-2.1047,-2.0708,-2.0535,-2.046,-2.0521,-2.0521,-2.0508,-2.0521,-2.0548,-2.0722,-2.0815,-2.0815,-2.0722,-2.0668,-2.0641,-2.0388,-2.018,-2.0187,-1.9853,-1.9786,-2.0067,-2.0094,-2.0214,-2.0468,-2.0508,-2.0508,-2.046,-2.0015,-1.9707,-1.9671,-1.94,-1.9122,-1.9146,-1.9306,-1.9392,-1.9392,-1.9328,-1.9288,-1.9386,-1.9492,-1.956,-1.9615,-1.976,-1.9905,-1.9965,-1.9845,-1.9881,-2.0231,-2.0352,-2.046,-2.0641,-2.0665,-2.0665,-2.0665,-2.0665,-2.0665,-2.0665,-2.0665,-2.0665,-2.0665,-2.0665,-2.0665,-2.0665,-2.0665,-2.0665,-2.0665,-2.0665,-2.0665,-2.0665,-2.0665,-2.0665,-2.0665,-2.0665,-2.0665,-2.0665,-2.0665,-2.0665,-2.0665,-2.069,-2.0726,-2.0786,-2.0859,-2.0895,-2.0907,-2.1003,-2.1088,-2.1016,-2.0967,-2.0979,-3.6016,-3.5937,-3.5566,-3.5332,-3.5215,-3.4766,-3.4238,-3.339,-3.2469,-3.1335,-2.9957,-2.8163,-2.7035,-2.6383,-2.5524,-2.5052,-2.5008,-2.4964,-2.4885,-2.4569,-2.4444,-2.3796,-2.2807,-2.2566,-2.1988,-2.1186,-2.1096,-2.1082,-2.1029,-2.1015,-2.1029,-2.1069,-2.1015,-2.0989,-2.1082,-2.1056,-2.1082,-2.1029,-2.0842,-2.0708,-2.0641,-2.0454,-2.026,-2.0247,-2.0254,-2.0361,-2.0641,-2.0628,-2.0735,-2.1002,-2.1056,-2.1082,-2.0966,-2.0663,-2.0576,-2.041,-2.0208,-2.0094,-2.003,-2.0055,-2.0029,-2.0029,-1.9813,-1.9705,-1.9838,-1.9727,-1.9652,-1.9845,-1.9941,-2.0026,-2.0231,-2.0255,-2.0255,-2.0303,-2.0496,-2.0629,-2.0653,-2.0665,-2.0678,-2.069,-2.069,-2.0665,-2.0747,-2.0678,-2.0678,-2.0665,-2.0665,-2.0665,-2.0665,-2.0665,-2.0665,-2.0665,-2.0665,-2.0665,-2.0665,-2.0665,-2.0665,-2.0665,-2.0665,-2.0665,-2.0665,-2.0665,-2.0665,-2.0678,-2.0774,-2.0822,-2.1064,-2.1148,-2.1245,-2.1281,-2.1366,-2.1354,-2.1293,-2.1245,-2.1317,-3.6035,-3.5976,-3.5566,-3.5391,-3.5332,-3.4902,-3.4282,-3.3622,-3.2721,-3.1516,-2.9906,-2.8279,-2.7118,-2.6197,-2.5457,-2.5134,-2.5066,-2.5052,-2.5061,-2.4876,-2.4471,-2.4003,-2.3483,-2.2646,-2.1838,-2.1212,-2.1109,-2.1109,-2.1109,-2.1109,-2.1109,-2.1109,-2.1109,-2.1109,-2.1109,-2.1109,-2.1109,-2.1096,-2.1029,-2.0975,-2.0975,-2.0882,-2.0828,-2.0842,-2.0842,-2.0895,-2.0949,-2.0775,-2.0815,-2.1096,-2.1109,-2.1109,-2.1046,-2.0792,-2.0602,-2.0552,-2.0297,-2.0119,-2.0132,-2.0284,-2.0373,-2.036,-2.0226,-2.0179,-2.0224,-2.0184,-2.0105,-2.0171,-2.0315,-2.0472,-2.0521,-2.0545,-2.0602,-2.0614,-2.0617,-2.0665,-2.0665,-2.0665,-2.0762,-2.0953,-2.0786,-2.0762,-2.0847,-2.081,-2.0678,-2.069,-2.069,-2.069,-2.069,-2.0726,-2.0665,-2.0665,-2.0665,-2.0738,-2.0798,-2.0834,-2.0822,-2.0774,-2.0738,-2.0678,-2.0665,-2.0665,-2.0665,-2.0774,-2.0871,-2.1052,-2.1281,-2.145,-2.1559,-2.1547,-2.151,-2.1498,-2.1486,-2.1523,-2.1607,-3.6035,-3.5976,-3.5742,-3.5625,-3.5605,-3.5293,-3.4765,-3.4061,-3.3217,-3.1951,-3.0438,-2.8674,-2.7419,-2.6464,-2.5635,-2.5237,-2.5066,-2.5066,-2.5066,-2.5037,-2.466,-2.4219,-2.3714,-2.2607,-2.1889,-2.1507,-2.1323,-2.1269,-2.1269,-2.1162,-2.1109,-2.1109,-2.1109,-2.1109,-2.1109,-2.1109,-2.1109,-2.1109,-2.1096,-2.1109,-2.1096,-2.1109,-2.1109,-2.1096,-2.1096,-2.1109,-2.1096,-2.0922,-2.0922,-2.1069,-2.1109,-2.1109,-2.1046,-2.0919,-2.0792,-2.0729,-2.0615,-2.0527,-2.0644,-2.0877,-2.0968,-2.1006,-2.091,-2.0851,-2.0885,-2.0816,-2.07,-2.0847,-2.1027,-2.1081,-2.1151,-2.1151,-2.1081,-2.1081,-2.0873,-2.0735,-2.0665,-2.0665,-2.0726,-2.0892,-2.075,-2.0774,-2.081,-2.081,-2.0783,-2.0774,-2.088,-2.0883,-2.0919,-2.0979,-2.0955,-2.0955,-2.1028,-2.1052,-2.1003,-2.1003,-2.0991,-2.0919,-2.0904,-2.0738,-2.0665,-2.0678,-2.0747,-2.0967,-2.1195,-2.1474,-2.1631,-2.1764,-2.1873,-2.1776,-2.1728,-2.1824,-2.1885,-2.1848,-2.1897,-3.6035,-3.6035,-3.6016,-3.5996,-3.5996,-3.5957,-3.552,-3.4806,-3.3816,-3.2697,-3.1364,-2.9373,-2.7979,-2.7143,-2.6055,-2.5344,-2.5193,-2.5066,-2.5066,-2.5066,-2.494,-2.4526,-2.3462,-2.2602,-2.2096,-2.1936,-2.1683,-2.1628,-2.1496,-2.1296,-2.1122,-2.1109,-2.1109,-2.1109,-2.1109,-2.1109,-2.1109,-2.1109,-2.1109,-2.1109,-2.1109,-2.1109,-2.1109,-2.1109,-2.1109,-2.1109,-2.1096,-2.1082,-2.1082,-2.1109,-2.1109,-2.1109,-2.1109,-2.1109,-2.1046,-2.1046,-2.1122,-2.1232,-2.1483,-2.1592,-2.1698,-2.1859,-2.1687,-2.1606,-2.1745,-2.1484,-2.1437,-2.1627,-2.1678,-2.1691,-2.1691,-2.1691,-2.1703,-2.1703,-2.122,-2.0886,-2.0759,-2.0759,-2.0807,-2.0832,-2.0714,-2.0678,-2.0702,-2.0747,-2.0844,-2.0907,-2.1062,-2.1112,-2.1293,-2.1341,-2.1438,-2.1414,-2.1329,-2.1293,-2.1233,-2.1233,-2.1221,-2.1172,-2.1088,-2.0991,-2.0871,-2.0859,-2.1013,-2.128,-2.1486,-2.1776,-2.1982,-2.2029,-2.2102,-2.2078,-2.2188,-2.2321,-2.2297,-2.22,-2.2164,-3.6035,-3.6035,-3.6035,-3.6035,-3.6035,-3.6035,-3.5753,-3.5258,-3.4391,-3.3477,-3.209,-3.0036,-2.8737,-2.7852,-2.6259,-2.5476,-2.5359,-2.5169,-2.5066,-2.5066,-2.5066,-2.4324,-2.3345,-2.2887,-2.2471,-2.2083,-2.1924,-2.1764,-2.1628,-2.1547,-2.1336,-2.1109,-2.1149,-2.1122,-2.1109,-2.1136,-2.1109,-2.1109,-2.1109,-2.1109,-2.1109,-2.1109,-2.1109,-2.1109,-2.1109,-2.1109,-2.1109,-2.1109,-2.1109,-2.1109,-2.1109,-2.1109,-2.1109,-2.1109,-2.1109,-2.1162,-2.1323,-2.1534,-2.1681,-2.1951,-2.2205,-2.2245,-2.2202,-2.2115,-2.218,-2.1851,-2.1765,-2.176,-2.176,-2.1829,-2.1829,-2.1829,-2.1829,-2.176,-2.1647,-2.1445,-2.1348,-2.1204,-2.1147,-2.1207,-2.0907,-2.075,-2.069,-2.0714,-2.082,-2.0834,-2.1003,-2.1209,-2.1486,-2.1571,-2.1607,-2.1523,-2.145,-2.1462,-2.145,-2.145,-2.1438,-2.1414,-2.1378,-2.1366,-2.1293,-2.1269,-2.1426,-2.1716,-2.1764,-2.1982,-2.2152,-2.2273,-2.2334,-2.2346,-2.2346,-2.2346,-2.2346,-2.2285,-2.2273,-3.6035,-3.6035,-3.6035,-3.6035,-3.6035,-3.6035,-3.5879,-3.5636,-3.522,-3.4475,-3.3239,-3.1237,-2.9735,-2.8841,-2.6858,-2.5769,-2.552,-2.5344,-2.5183,-2.5066,-2.5066,-2.4477,-2.366,-2.3281,-2.2916,-2.2418,-2.2218,-2.2084,-2.1924,-2.1804,-2.1643,-2.1537,-2.147,-2.1483,-2.1496,-2.1349,-2.1296,-2.1269,-2.1189,-2.1109,-2.1109,-2.1109,-2.1109,-2.1109,-2.1109,-2.1109,-2.1109,-2.1109,-2.1109,-2.1109,-2.1109,-2.1109,-2.1109,-2.1109,-2.1162,-2.1283,-2.1534,-2.1708,-2.1924,-2.2258,-2.2458,-2.2592,-2.2574,-2.2559,-2.2503,-2.2379,-2.2242,-2.231,-2.2242,-2.2242,-2.2242,-2.2242,-2.2186,-2.2048,-2.2082,-2.2014,-2.1674,-2.1451,-2.1432,-2.1377,-2.1221,-2.0943,-2.0941,-2.0989,-2.105,-2.1135,-2.1377,-2.1619,-2.1788,-2.1764,-2.1776,-2.174,-2.1752,-2.18,-2.1824,-2.1824,-2.18,-2.1764,-2.1716,-2.1704,-2.1607,-2.1595,-2.1704,-2.1836,-2.2019,-2.2128,-2.2261,-2.2346,-2.2346,-2.2346,-2.2346,-2.2346,-2.2346,-2.2346,-2.2346,-3.6035,-3.6035,-3.6035,-3.6035,-3.6035,-3.6035,-3.6016,-3.6016,-3.5928,-3.55,-3.4365,-3.2491,-3.0761,-2.9843,-2.7479,-2.6179,-2.5666,-2.5549,-2.5301,-2.514,-2.5052,-2.467,-2.4046,-2.3624,-2.327,-2.2875,-2.2565,-2.2432,-2.2298,-2.2111,-2.2004,-2.1911,-2.1924,-2.1964,-2.1857,-2.1697,-2.159,-2.1547,-2.1309,-2.1162,-2.1122,-2.1109,-2.1109,-2.1109,-2.1109,-2.1109,-2.1109,-2.1109,-2.1122,-2.1162,-2.1149,-2.1203,-2.1203,-2.1216,-2.1336,-2.1628,-2.1697,-2.1924,-2.2298,-2.2432,-2.2579,-2.2792,-2.2846,-2.2859,-2.2859,-2.2791,-2.2831,-2.2828,-2.2913,-2.2911,-2.2977,-2.3006,-2.2826,-2.2545,-2.2631,-2.2339,-2.1882,-2.1628,-2.1558,-2.151,-2.151,-2.1341,-2.1233,-2.1281,-2.145,-2.1353,-2.1583,-2.1849,-2.2043,-2.2116,-2.2152,-2.2188,-2.2225,-2.2285,-2.2285,-2.2285,-2.2249,-2.2212,-2.209,-2.2103,-2.1836,-2.1812,-2.1885,-2.1969,-2.2078,-2.2225,-2.2297,-2.2346,-2.2346,-2.2346,-2.2346,-2.2346,-2.2346,-2.2346,-2.2346,-3.6035,-3.6035,-3.6035,-3.6035,-3.6035,-3.6035,-3.6035,-3.6035,-3.6035,-3.5606,-3.449,-3.2508,-3.1104,-3.0118,-2.7763,-2.6413,-2.6179,-2.5769,-2.5359,-2.5096,-2.5066,-2.4849,-2.436,-2.4034,-2.3557,-2.3051,-2.2874,-2.2645,-2.2458,-2.2365,-2.2205,-2.2031,-2.2071,-2.1991,-2.2004,-2.1964,-2.1764,-2.1655,-2.1483,-2.1349,-2.1189,-2.1162,-2.1162,-2.1162,-2.1149,-2.1136,-2.1109,-2.1109,-2.1216,-2.1454,-2.1547,-2.1563,-2.1697,-2.175,-2.179,-2.1897,-2.2098,-2.2271,-2.2432,-2.2619,-2.2779,-2.2846,-2.2859,-2.2859,-2.2859,-2.2859,-2.2979,-2.314,-2.3233,-2.3287,-2.3474,-2.3624,-2.3373,-2.3046,-2.2898,-2.273,-2.2309,-2.1993,-2.1897,-2.1764,-2.1619,-2.139,-2.1207,-2.1449,-2.1498,-2.1523,-2.1716,-2.2043,-2.2212,-2.2358,-2.2382,-2.2394,-2.2346,-2.2358,-2.2455,-2.2491,-2.2539,-2.2539,-2.2515,-2.2491,-2.2285,-2.2176,-2.2273,-2.2211,-2.2211,-2.2259,-2.2346,-2.2346,-2.2346,-2.2346,-2.2346,-2.2346,-2.2346,-2.2346,-2.2406,-3.6035,-3.6035,-3.6035,-3.6035,-3.6035,-3.6035,-3.6035,-3.6035,-3.6035,-3.5606,-3.449,-3.2491,-3.1084,-3.0179,-2.7946,-2.6661,-2.6369,-2.5827,-2.5447,-2.5271,-2.5154,-2.4849,-2.4563,-2.4292,-2.3898,-2.3201,-2.2928,-2.2752,-2.2659,-2.2605,-2.2565,-2.2405,-2.2392,-2.2432,-2.2352,-2.2258,-2.2124,-2.1977,-2.1817,-2.167,-2.1537,-2.1523,-2.1523,-2.1523,-2.1523,-2.1523,-2.1537,-2.1523,-2.1683,-2.1871,-2.1951,-2.1937,-2.1964,-2.1991,-2.2044,-2.2205,-2.2311,-2.2512,-2.2632,-2.2752,-2.2859,-2.2873,-2.2859,-2.2859,-2.2859,-2.2859,-2.3006,-2.3233,-2.334,-2.3434,-2.3728,-2.3768,-2.3625,-2.3321,-2.3241,-2.3041,-2.2601,-2.2275,-2.2093,-2.2079,-2.1945,-2.174,-2.1643,-2.1813,-2.1752,-2.1837,-2.2007,-2.2249,-2.2382,-2.2491,-2.2479,-2.2467,-2.2307,-2.2331,-2.2552,-2.2661,-2.2794,-2.2818,-2.283,-2.2818,-2.2745,-2.2661,-2.2624,-2.2552,-2.2367,-2.2271,-2.2346,-2.2346,-2.2382,-2.2358,-2.2358,-2.2346,-2.2358,-2.2319,-2.2491,-3.6035,-3.6035,-3.6035,-3.6035,-3.6035,-3.6035,-3.6035,-3.6035,-3.6035,-3.5606,-3.4558,-3.2491,-3.1084,-2.9965,-2.797,-2.6865,-2.6413,-2.5944,-2.5593,-2.5461,-2.5251,-2.4931,-2.4645,-2.4442,-2.4156,-2.3543,-2.3201,-2.2969,-2.2914,-2.2859,-2.2792,-2.2901,-2.2832,-2.2766,-2.2766,-2.2632,-2.2432,-2.2311,-2.2138,-2.1991,-2.1924,-2.1911,-2.1911,-2.1911,-2.1897,-2.1897,-2.1897,-2.1924,-2.2084,-2.2392,-2.2418,-2.2311,-2.2191,-2.2138,-2.2205,-2.2472,-2.2512,-2.2619,-2.2766,-2.2914,-2.2941,-2.2968,-2.2939,-2.2993,-2.3088,-2.31,-2.326,-2.3434,-2.3607,-2.3741,-2.3875,-2.3981,-2.3752,-2.3478,-2.3562,-2.3331,-2.2904,-2.2596,-2.2534,-2.2435,-2.2473,-2.2448,-2.235,-2.2448,-2.2227,-2.2189,-2.236,-2.2443,-2.2576,-2.2624,-2.2612,-2.2527,-2.2443,-2.2467,-2.2612,-2.2842,-2.2899,-2.3036,-2.3072,-2.3072,-2.3072,-2.2963,-2.283,-2.2673,-2.2564,-2.2515,-2.2527,-2.2612,-2.26,-2.2455,-2.2503,-2.2624,-2.2588,-2.2392,-2.2561,-3.6035,-3.6035,-3.6035,-3.6035,-3.6035,-3.6035,-3.6035,-3.6035,-3.6035,-3.5606,-3.4627,-3.2508,-3.1084,-2.9981,-2.7985,-2.688,-2.65,-2.612,-2.5813,-2.5579,-2.5301,-2.5072,-2.5018,-2.4717,-2.4334,-2.3884,-2.3475,-2.3201,-2.2928,-2.2859,-2.2859,-2.2859,-2.2859,-2.2859,-2.2846,-2.2792,-2.2632,-2.2498,-2.2378,-2.2258,-2.2124,-2.2071,-2.2071,-2.2071,-2.2084,-2.2071,-2.2031,-2.2017,-2.2124,-2.2378,-2.2405,-2.2525,-2.2605,-2.2727,-2.2686,-2.2726,-2.2739,-2.2779,-2.2846,-2.2859,-2.3006,-2.3166,-2.322,-2.3367,-2.35,-2.3594,-2.3647,-2.3941,-2.4195,-2.4396,-2.4476,-2.4409,-2.4242,-2.3975,-2.3875,-2.3754,-2.3347,-2.3263,-2.3127,-2.2915,-2.3016,-2.3141,-2.3017,-2.2868,-2.2794,-2.2682,-2.2755,-2.28,-2.2818,-2.2806,-2.2745,-2.2624,-2.2491,-2.2564,-2.2673,-2.2951,-2.3068,-2.3116,-2.323,-2.3152,-2.3128,-2.3133,-2.3012,-2.2923,-2.2939,-2.2891,-2.2915,-2.2903,-2.2891,-2.2806,-2.2879,-2.2963,-2.2866,-2.2794,-2.2923,-3.623,-3.6035,-3.6035,-3.6035,-3.6035,-3.6035,-3.6035,-3.6035,-3.6035,-3.5606,-3.4402,-3.2578,-3.1101,-2.9981,-2.7985,-2.6968,-2.6705,-2.6413,-2.6193,-2.5974,-2.5725,-2.5549,-2.5491,-2.5168,-2.4685,-2.4285,-2.3845,-2.3406,-2.2928,-2.2859,-2.2859,-2.2859,-2.2859,-2.2859,-2.2859,-2.2846,-2.2779,-2.2645,-2.2632,-2.2579,-2.2445,-2.2432,-2.2432,-2.2432,-2.2418,-2.2445,-2.2445,-2.2445,-2.2498,-2.2619,-2.2645,-2.2739,-2.2819,-2.2859,-2.2873,-2.2873,-2.2873,-2.2873,-2.2873,-2.2873,-2.3006,-2.326,-2.327,-2.346,-2.3674,-2.3781,-2.3928,-2.4182,-2.4449,-2.4636,-2.4609,-2.4636,-2.4488,-2.4341,-2.4267,-2.414,-2.3988,-2.3992,-2.3754,-2.3478,-2.3337,-2.3389,-2.3364,-2.3241,-2.3229,-2.3192,-2.3178,-2.3148,-2.3137,-2.3101,-2.3105,-2.2939,-2.2854,-2.285,-2.2947,-2.3152,-2.3309,-2.3345,-2.3357,-2.3357,-2.3381,-2.3369,-2.3418,-2.3466,-2.3369,-2.3242,-2.3121,-2.3048,-2.3097,-2.3145,-2.3121,-2.3109,-2.3109,-2.3157,-2.3261,-3.6328,-3.6035,-3.6035,-3.6035,-3.6035,-3.6035,-3.6035,-3.6035,-3.6035,-3.5606,-3.4627,-3.2578,-3.1101,-2.9981,-2.8274,-2.6983,-2.6969,-2.6647,-2.6471,-2.6383,-2.6105,-2.5988,-2.5915,-2.5586,-2.5146,-2.4523,-2.4092,-2.3611,-2.2996,-2.2859,-2.2859,-2.2859,-2.2859,-2.2859,-2.2859,-2.2859,-2.2859,-2.2859,-2.2859,-2.2859,-2.2859,-2.2859,-2.2859,-2.2859,-2.2859,-2.2832,-2.2792,-2.2779,-2.2792,-2.2819,-2.2832,-2.2859,-2.2859,-2.2859,-2.2899,-2.3008,-2.2953,-2.3048,-2.3129,-2.3086,-2.3273,-2.3567,-2.3527,-2.3674,-2.3875,-2.4062,-2.4088,-2.4275,-2.4476,-2.4636,-2.4636,-2.4636,-2.4676,-2.4743,-2.4669,-2.4629,-2.4642,-2.4534,-2.4464,-2.4162,-2.3851,-2.3589,-2.3515,-2.3516,-2.353,-2.3694,-2.3694,-2.388,-2.3823,-2.372,-2.3618,-2.3458,-2.3327,-2.3309,-2.3393,-2.3514,-2.3623,-2.3635,-2.3647,-2.3647,-2.3707,-2.3756,-2.378,-2.3719,-2.3587,-2.3369,-2.3237,-2.32,-2.3321,-2.3369,-2.3249,-2.3249,-2.3345,-2.3369,-2.3466,-3.6074,-3.6035,-3.6035,-3.6035,-3.6035,-3.6035,-3.6035,-3.6035,-3.6035,-3.5606,-3.4765,-3.2578,-3.1101,-2.9838,-2.7985,-2.7071,-2.6896,-2.672,-2.6574,-2.6515,-2.6266,-2.612,-2.6003,-2.5681,-2.5374,-2.4915,-2.4396,-2.3639,-2.3119,-2.2995,-2.2859,-2.2859,-2.2859,-2.2859,-2.2859,-2.2859,-2.2859,-2.2859,-2.2859,-2.2873,-2.2886,-2.2899,-2.2899,-2.2913,-2.2926,-2.2953,-2.2979,-2.2979,-2.2966,-2.3008,-2.2899,-2.2873,-2.2859,-2.2859,-2.3033,-2.318,-2.33,-2.338,-2.3554,-2.3567,-2.3674,-2.3915,-2.4022,-2.4235,-2.4342,-2.4436,-2.4462,-2.4556,-2.4623,-2.4636,-2.4636,-2.4649,-2.477,-2.4917,-2.4997,-2.5144,-2.5211,-2.505,-2.4878,-2.4704,-2.4376,-2.3956,-2.3704,-2.3731,-2.377,-2.3947,-2.415,-2.4339,-2.4437,-2.4268,-2.4074,-2.3913,-2.3569,-2.355,-2.3507,-2.3664,-2.3792,-2.384,-2.3852,-2.3852,-2.384,-2.384,-2.384,-2.3768,-2.3659,-2.3635,-2.3575,-2.3587,-2.3695,-2.3659,-2.355,-2.3623,-2.3756,-2.3744,-2.3659,-3.6035,-3.6035,-3.6035,-3.6035,-3.6035,-3.6035,-3.6035,-3.6035,-3.6035,-3.5606,-3.4558,-3.2508,-3.0447,-2.8691,-2.7274,-2.7071,-2.6954,-2.6822,-2.6778,-2.6764,-2.6603,-2.6544,-2.6515,-2.6252,-2.5865,-2.5468,-2.5016,-2.447,-2.3775,-2.3157,-2.2859,-2.2886,-2.2873,-2.2859,-2.2926,-2.2873,-2.2859,-2.2859,-2.2873,-2.2953,-2.3073,-2.314,-2.3207,-2.3354,-2.3354,-2.3354,-2.3354,-2.338,-2.338,-2.338,-2.338,-2.338,-2.338,-2.3407,-2.3514,-2.3781,-2.3821,-2.3808,-2.3768,-2.3794,-2.3968,-2.4128,-2.4235,-2.4315,-2.4556,-2.4636,-2.4636,-2.4636,-2.4636,-2.4649,-2.4703,-2.4796,-2.493,-2.5077,-2.5264,-2.5384,-2.5518,-2.5491,-2.5285,-2.5109,-2.4905,-2.4431,-2.4061,-2.4061,-2.4112,-2.4329,-2.4481,-2.4685,-2.4626,-2.4556,-2.436,-2.4244,-2.3897,-2.3707,-2.3652,-2.3724,-2.3816,-2.3852,-2.3864,-2.3852,-2.3852,-2.384,-2.3925,-2.382,-2.3804,-2.3804,-2.3864,-2.3828,-2.378,-2.3804,-2.384,-2.384,-2.384,-2.3828,-2.3768,-3.6035,-3.6035,-3.6035,-3.6035,-3.6035,-3.6035,-3.6035,-3.6035,-3.6035,-3.5606,-3.4421,-3.2438,-2.9822,-2.7768,-2.7274,-2.7129,-2.6998,-2.6998,-2.6998,-2.6998,-2.6998,-2.6954,-2.6808,-2.6632,-2.6314,-2.6142,-2.5582,-2.5102,-2.4483,-2.3787,-2.3278,-2.3155,-2.318,-2.314,-2.3182,-2.3153,-2.3166,-2.3166,-2.3166,-2.326,-2.3394,-2.3434,-2.3554,-2.3688,-2.3768,-2.3781,-2.3781,-2.3754,-2.3741,-2.3728,-2.3714,-2.3688,-2.3701,-2.3688,-2.3834,-2.4048,-2.4115,-2.4115,-2.4075,-2.4088,-2.4115,-2.4235,-2.4315,-2.4436,-2.4569,-2.4636,-2.4703,-2.477,-2.477,-2.481,-2.4877,-2.509,-2.5237,-2.5384,-2.5531,-2.5625,-2.5718,-2.5785,-2.5684,-2.5426,-2.5205,-2.4998,-2.4662,-2.4494,-2.4557,-2.4659,-2.4774,-2.498,-2.5003,-2.4945,-2.4933,-2.4869,-2.4689,-2.4381,-2.424,-2.4185,-2.4197,-2.4061,-2.4073,-2.4029,-2.4146,-2.415,-2.4178,-2.4094,-2.3916,-2.4094,-2.4226,-2.4033,-2.384,-2.384,-2.384,-2.384,-2.384,-2.3864,-2.3864,-3.6035,-3.6035,-3.6035,-3.6035,-3.6035,-3.6035,-3.6035,-3.6035,-3.6035,-3.5538,-3.449,-3.2298,-3.0107,-2.8346,-2.7695,-2.742,-2.6998,-2.6998,-2.6998,-2.6998,-2.6998,-2.6998,-2.6896,-2.6735,-2.6544,-2.6357,-2.6026,-2.5654,-2.5271,-2.4733,-2.4113,-2.3772,-2.3665,-2.3732,-2.3634,-2.3554,-2.3567,-2.3567,-2.3581,-2.3621,-2.3714,-2.3741,-2.3781,-2.3808,-2.3808,-2.3781,-2.3781,-2.3848,-2.3888,-2.3888,-2.3901,-2.3901,-2.3941,-2.3915,-2.4062,-2.4222,-2.4275,-2.4329,-2.4382,-2.4436,-2.4543,-2.4583,-2.4583,-2.4569,-2.4623,-2.4649,-2.4756,-2.497,-2.4997,-2.5144,-2.5304,-2.5491,-2.5585,-2.5692,-2.5838,-2.6026,-2.6132,-2.6239,-2.6135,-2.5846,-2.5687,-2.5621,-2.5542,-2.5463,-2.4903,-2.4954,-2.515,-2.5253,-2.5516,-2.5514,-2.562,-2.5579,-2.5452,-2.5304,-2.5072,-2.5017,-2.4864,-2.4647,-2.4578,-2.464,-2.462,-2.4556,-2.4395,-2.442,-2.4359,-2.4468,-2.4504,-2.4263,-2.4057,-2.3913,-2.3876,-2.4021,-2.4045,-2.4057,-2.4021,-3.6035,-3.6035,-3.6035,-3.6035,-3.6035,-3.6035,-3.6035,-3.6035,-3.6016,-3.5314,-3.4195,-3.2666,-3.0818,-2.9194,-2.8403,-2.7768,-2.7144,-2.6998,-2.6998,-2.6998,-2.6998,-2.6998,-2.6925,-2.6881,-2.6808,-2.6764,-2.6503,-2.6243,-2.5984,-2.5596,-2.5233,-2.4743,-2.4125,-2.3866,-2.3768,-2.3834,-2.3808,-2.3808,-2.3808,-2.3834,-2.4022,-2.4048,-2.4115,-2.4289,-2.4302,-2.4302,-2.4315,-2.4302,-2.4302,-2.4289,-2.4275,-2.4249,-2.4249,-2.4249,-2.4315,-2.4422,-2.4436,-2.4516,-2.4609,-2.4649,-2.4636,-2.4636,-2.4623,-2.4663,-2.4716,-2.4796,-2.493,-2.509,-2.5264,-2.5438,-2.5478,-2.5678,-2.5838,-2.605,-2.6132,-2.6333,-2.648,-2.656,-2.6707,-2.6386,-2.6599,-2.6692,-2.6611,-2.653,-2.5814,-2.5251,-2.5422,-2.562,-2.591,-2.6109,-2.6095,-2.6107,-2.6073,-2.5933,-2.5711,-2.5643,-2.5506,-2.5344,-2.5101,-2.5025,-2.4948,-2.4644,-2.4564,-2.4625,-2.4673,-2.4685,-2.4625,-2.4456,-2.4323,-2.4226,-2.4263,-2.4359,-2.4347,-2.4275,-2.4238,-3.6035,-3.6035,-3.6035,-3.6035,-3.6035,-3.6035,-3.6035,-3.6035,-3.6035,-3.5333,-3.4057,-3.3224,-3.1666,-2.9894,-2.9051,-2.813,-2.7274,-2.6998,-2.6998,-2.6998,-2.6998,-2.6998,-2.6998,-2.6983,-2.6939,-2.6998,-2.6998,-2.6808,-2.6546,-2.6458,-2.5904,-2.5253,-2.4639,-2.4332,-2.4062,-2.4022,-2.4022,-2.4035,-2.4048,-2.4102,-2.4329,-2.4342,-2.4382,-2.4569,-2.4583,-2.4569,-2.4556,-2.4543,-2.4569,-2.4569,-2.4583,-2.4609,-2.4623,-2.4636,-2.4636,-2.4636,-2.4636,-2.4663,-2.4743,-2.477,-2.481,-2.4943,-2.4957,-2.4943,-2.4957,-2.509,-2.5251,-2.5398,-2.5558,-2.5678,-2.5732,-2.5985,-2.6092,-2.6186,-2.6239,-2.6413,-2.6627,-2.676,-2.6961,-2.7013,-2.7188,-2.712,-2.7025,-2.6822,-2.6473,-2.5902,-2.5996,-2.6157,-2.6237,-2.6438,-2.6518,-2.6556,-2.6551,-2.6453,-2.641,-2.6259,-2.6177,-2.5911,-2.5609,-2.5298,-2.5124,-2.4912,-2.4842,-2.4987,-2.4999,-2.489,-2.4866,-2.4878,-2.4758,-2.4601,-2.4613,-2.4589,-2.4528,-2.4468,-2.4504,-3.6035,-3.6035,-3.6035,-3.6035,-3.6035,-3.6035,-3.6035,-3.6035,-3.6035,-3.5606,-3.4765,-3.378,-3.2228,-3.0534,-2.9679,-2.8475,-2.7274,-2.6998,-2.6998,-2.6998,-2.6998,-2.6998,-2.6998,-2.6998,-2.6998,-2.6998,-2.6998,-2.6998,-2.6925,-2.6619,-2.6253,-2.5726,-2.5103,-2.4723,-2.4583,-2.4596,-2.4596,-2.4522,-2.4482,-2.4482,-2.4556,-2.4556,-2.4596,-2.4623,-2.4636,-2.4636,-2.4636,-2.4636,-2.4636,-2.4636,-2.4636,-2.4636,-2.4636,-2.4636,-2.4636,-2.4636,-2.4663,-2.4796,-2.505,-2.5077,-2.5197,-2.5331,-2.5291,-2.5331,-2.5424,-2.5518,-2.5611,-2.5785,-2.5972,-2.6132,-2.6253,-2.6386,-2.6426,-2.6466,-2.6533,-2.6653,-2.6894,-2.7041,-2.7241,-2.7468,-2.7375,-2.7295,-2.7131,-2.6967,-2.683,-2.66,-2.6587,-2.663,-2.6727,-2.6782,-2.6919,-2.7065,-2.7033,-2.7139,-2.7039,-2.6939,-2.676,-2.6478,-2.6026,-2.5616,-2.5334,-2.5276,-2.5216,-2.5337,-2.5289,-2.5156,-2.518,-2.53,-2.5156,-2.4927,-2.4794,-2.4733,-2.4685,-2.4709,-2.4806,-3.6035,-3.6035,-3.6035,-3.6035,-3.6035,-3.6035,-3.6035,-3.6035,-3.5967,-3.5811,-3.547,-3.4696,-3.3137,-3.1454,-3.025,-2.8907,-2.7274,-2.6998,-2.6998,-2.6998,-2.6998,-2.6998,-2.6998,-2.6998,-2.6998,-2.6998,-2.6998,-2.6998,-2.6998,-2.6765,-2.6399,-2.5873,-2.5212,-2.4784,-2.4623,-2.4636,-2.4623,-2.4623,-2.4623,-2.4623,-2.4636,-2.4636,-2.4636,-2.4636,-2.4636,-2.4636,-2.4636,-2.4636,-2.4636,-2.4636,-2.4636,-2.4636,-2.4636,-2.4636,-2.4636,-2.469,-2.477,-2.517,-2.5504,-2.5665,-2.5598,-2.5598,-2.5571,-2.5571,-2.5518,-2.5718,-2.5945,-2.6186,-2.6333,-2.656,-2.6894,-2.6934,-2.6974,-2.6987,-2.7068,-2.7188,-2.7348,-2.7428,-2.7589,-2.7816,-2.7843,-2.7789,-2.7679,-2.7586,-2.7393,-2.7162,-2.7122,-2.706,-2.7131,-2.7105,-2.7255,-2.7373,-2.7533,-2.7736,-2.7732,-2.7399,-2.7116,-2.6813,-2.6234,-2.5647,-2.5555,-2.5629,-2.5592,-2.5616,-2.5531,-2.536,-2.5444,-2.548,-2.5324,-2.5228,-2.518,-2.5096,-2.5059,-2.512,-2.5132,-3.6035,-3.6035,-3.6035,-3.6035,-3.6035,-3.6035,-3.6035,-3.6035,-3.6035,-3.6035,-3.5811,-3.5196,-3.378,-3.2088,-3.0889,-2.9481,-2.7492,-2.7274,-2.7056,-2.7071,-2.6998,-2.6998,-2.6998,-2.6998,-2.6998,-2.6998,-2.6998,-2.6998,-2.6998,-2.6998,-2.6546,-2.58,-2.5152,-2.4857,-2.471,-2.4636,-2.4636,-2.4636,-2.4636,-2.4636,-2.4636,-2.4636,-2.4636,-2.4636,-2.4636,-2.4636,-2.4636,-2.4636,-2.4636,-2.4636,-2.4636,-2.4636,-2.4636,-2.4636,-2.4636,-2.4716,-2.5037,-2.5438,-2.5798,-2.6066,-2.5972,-2.5892,-2.5825,-2.5812,-2.5825,-2.6026,-2.6159,-2.6373,-2.66,-2.676,-2.6961,-2.7041,-2.7081,-2.7081,-2.7121,-2.7228,-2.7468,-2.7535,-2.7709,-2.8047,-2.8207,-2.8221,-2.8234,-2.8194,-2.8016,-2.7755,-2.7649,-2.7586,-2.7535,-2.7535,-2.7535,-2.7696,-2.7829,-2.7923,-2.7892,-2.7556,-2.7272,-2.7122,-2.6525,-2.5917,-2.6114,-2.6263,-2.6129,-2.6032,-2.6056,-2.6043,-2.5747,-2.5711,-2.5687,-2.5699,-2.5711,-2.5615,-2.5408,-2.5396,-2.5432,-3.6035,-3.6035,-3.6035,-3.6035,-3.6035,-3.6035,-3.6035,-3.6035,-3.6035,-3.6035,-3.5967,-3.5264,-3.4057,-3.2718,-3.1595,-3.0053,-2.8418,-2.784,-2.742,-2.7056,-2.6998,-2.6998,-2.6998,-2.6998,-2.6998,-2.6998,-2.6998,-2.6998,-2.6998,-2.691,-2.6473,-2.596,-2.5428,-2.5086,-2.4878,-2.4783,-2.473,-2.4616,-2.4636,-2.4636,-2.4636,-2.4636,-2.4636,-2.4636,-2.4636,-2.4636,-2.4636,-2.4636,-2.4636,-2.4636,-2.4636,-2.4636,-2.4636,-2.4636,-2.4636,-2.4823,-2.5251,-2.5651,-2.5985,-2.6239,-2.6306,-2.6226,-2.6279,-2.6346,-2.6319,-2.6279,-2.636,-2.644,-2.6573,-2.656,-2.6613,-2.6694,-2.676,-2.6774,-2.68,-2.7028,-2.743,-2.7618,-2.7805,-2.8006,-2.8167,-2.8234,-2.8234,-2.8234,-2.8234,-2.8123,-2.7972,-2.8039,-2.8003,-2.7923,-2.802,-2.802,-2.8056,-2.8181,-2.7941,-2.7675,-2.7506,-2.722,-2.6965,-2.6478,-2.6702,-2.6717,-2.6609,-2.6561,-2.6735,-2.6635,-2.6175,-2.6025,-2.6109,-2.6109,-2.6037,-2.594,-2.5759,-2.5663,-2.5663,-3.6035,-3.6035,-3.6035,-3.6035,-3.6035,-3.6035,-3.6035,-3.6035,-3.6035,-3.6035,-3.5947,-3.5557,-3.4558,-3.3415,-3.2578,-3.0889,-2.9536,-2.8475,-2.7768,-2.7347,-2.7071,-2.7071,-2.6998,-2.6998,-2.6998,-2.6998,-2.6998,-2.6998,-2.691,-2.6765,-2.6619,-2.6194,-2.5788,-2.5574,-2.5371,-2.5294,-2.4957,-2.4709,-2.473,-2.4716,-2.4703,-2.4716,-2.4703,-2.4716,-2.4642,-2.4716,-2.4716,-2.4629,-2.4629,-2.4602,-2.4663,-2.4649,-2.4636,-2.4663,-2.473,-2.5264,-2.5638,-2.5959,-2.6213,-2.6346,-2.64,-2.64,-2.64,-2.64,-2.6386,-2.6426,-2.648,-2.652,-2.6627,-2.668,-2.6867,-2.6974,-2.7054,-2.7134,-2.7161,-2.7403,-2.7685,-2.7696,-2.7966,-2.806,-2.8221,-2.8234,-2.8234,-2.8234,-2.8234,-2.8288,-2.8368,-2.8377,-2.843,-2.8337,-2.8395,-2.831,-2.8382,-2.8337,-2.8145,-2.7852,-2.7656,-2.7402,-2.7174,-2.6932,-2.6859,-2.6888,-2.6967,-2.6947,-2.6958,-2.6719,-2.627,-2.6266,-2.6387,-2.6266,-2.617,-2.6109,-2.6037,-2.5953,-2.5892,-3.6035,-3.6035,-3.6035,-3.6035,-3.6035,-3.6035,-3.6035,-3.6035,-3.6035,-3.6035,-3.5967,-3.5626,-3.504,-3.4195,-3.3224,-3.1877,-3.0179,-2.9409,-2.8563,-2.771,-2.7274,-2.7129,-2.7071,-2.6998,-2.6998,-2.6998,-2.6998,-2.6998,-2.6925,-2.6838,-2.6619,-2.6355,-2.6122,-2.5963,-2.5746,-2.5656,-2.5456,-2.5206,-2.501,-2.4983,-2.497,-2.4957,-2.4983,-2.4957,-2.4957,-2.4957,-2.4957,-2.4957,-2.497,-2.4909,-2.4983,-2.4983,-2.4997,-2.501,-2.5157,-2.5625,-2.5812,-2.6079,-2.6293,-2.6373,-2.64,-2.64,-2.64,-2.6466,-2.648,-2.6507,-2.652,-2.6547,-2.6734,-2.6921,-2.7188,-2.7442,-2.7575,-2.7709,-2.7749,-2.7872,-2.7856,-2.7923,-2.8016,-2.8181,-2.8234,-2.8234,-2.8234,-2.8234,-2.8248,-2.8301,-2.8337,-2.8497,-2.8591,-2.8631,-2.8644,-2.8671,-2.8617,-2.8591,-2.8313,-2.8148,-2.8063,-2.7892,-2.761,-2.7439,-2.7191,-2.7126,-2.7258,-2.7159,-2.7029,-2.6762,-2.6508,-2.6556,-2.6629,-2.6508,-2.6472,-2.6508,-2.6423,-2.6242,-2.6194,-3.6035,-3.6035,-3.6035,-3.6035,-3.6035,-3.6035,-3.6035,-3.6035,-3.6035,-3.6035,-3.5947,-3.5675,-3.5333,-3.4834,-3.4057,-3.2945,-3.1666,-3.0764,-2.9552,-2.8274,-2.7913,-2.755,-2.7129,-2.6998,-2.6998,-2.6998,-2.6998,-2.6998,-2.6998,-2.6983,-2.6895,-2.653,-2.6783,-2.6697,-2.6329,-2.6197,-2.6049,-2.5792,-2.5635,-2.5545,-2.5451,-2.5478,-2.5518,-2.5464,-2.5451,-2.5464,-2.5464,-2.5491,-2.5518,-2.5504,-2.5491,-2.5451,-2.5438,-2.5504,-2.5692,-2.5852,-2.5985,-2.6159,-2.6319,-2.6386,-2.64,-2.64,-2.6426,-2.656,-2.6627,-2.66,-2.6613,-2.6747,-2.6934,-2.7081,-2.7321,-2.7468,-2.7615,-2.7749,-2.7913,-2.7953,-2.802,-2.8043,-2.8203,-2.8297,-2.8417,-2.8417,-2.8444,-2.8484,-2.8511,-2.8404,-2.8537,-2.8751,-2.8845,-2.8951,-2.8951,-2.8978,-2.8871,-2.8818,-2.8758,-2.8678,-2.8651,-2.8439,-2.8102,-2.7735,-2.7395,-2.7439,-2.7536,-2.737,-2.7198,-2.7128,-2.6996,-2.6882,-2.6846,-2.6858,-2.6858,-2.6954,-2.6834,-2.6568,-2.6609,-3.6035,-3.6035,-3.6035,-3.6035,-3.6035,-3.6035,-3.6035,-3.6035,-3.6035,-3.6035,-3.6035,-3.5879,-3.5811,-3.5538,-3.5059,-3.4144,-3.3137,-3.2018,-3.0747,-2.9481,-2.8619,-2.7913,-2.7202,-2.7056,-2.7071,-2.6998,-2.6998,-2.6998,-2.7027,-2.7174,-2.7364,-2.726,-2.7427,-2.7335,-2.7135,-2.6954,-2.6717,-2.6534,-2.6286,-2.6034,-2.5715,-2.5545,-2.5518,-2.5531,-2.5545,-2.5585,-2.5585,-2.5558,-2.5531,-2.5518,-2.5518,-2.5504,-2.5504,-2.5732,-2.5865,-2.5985,-2.6159,-2.6279,-2.6346,-2.64,-2.6413,-2.6493,-2.656,-2.6707,-2.676,-2.6734,-2.68,-2.6974,-2.7134,-2.7268,-2.7402,-2.7522,-2.7655,-2.7859,-2.7966,-2.8033,-2.81,-2.819,-2.8364,-2.8511,-2.8657,-2.8738,-2.8764,-2.8791,-2.8818,-2.8951,-2.9138,-2.9299,-2.9339,-2.9392,-2.9259,-2.9245,-2.9072,-2.9032,-2.9011,-2.9125,-2.9072,-2.8725,-2.832,-2.7898,-2.7578,-2.7442,-2.7359,-2.7491,-2.7353,-2.739,-2.7299,-2.7093,-2.7003,-2.7118,-2.7118,-2.7118,-2.7027,-2.6834,-2.7014,-3.6035,-3.6035,-3.6035,-3.6035,-3.6035,-3.6035,-3.6035,-3.6035,-3.6035,-3.6035,-3.6035,-3.6035,-3.6035,-3.5967,-3.5626,-3.5196,-3.4195,-3.3294,-3.1877,-3.0534,-2.9481,-2.8491,-2.7913,-2.7347,-2.7129,-2.7071,-2.6998,-2.7013,-2.7071,-2.7276,-2.7481,-2.7613,-2.7792,-2.7985,-2.786,-2.7558,-2.7412,-2.724,-2.7018,-2.6656,-2.6098,-2.6034,-2.5892,-2.5905,-2.5892,-2.5892,-2.5905,-2.5905,-2.5905,-2.5905,-2.5945,-2.5945,-2.5972,-2.6079,-2.6146,-2.6199,-2.6293,-2.64,-2.64,-2.64,-2.6453,-2.6587,-2.668,-2.6814,-2.7255,-2.7241,-2.7134,-2.7281,-2.7402,-2.7535,-2.7629,-2.7736,-2.7869,-2.8087,-2.8114,-2.8154,-2.8261,-2.8323,-2.8457,-2.8564,-2.8738,-2.8911,-2.8925,-2.8925,-2.8965,-2.9018,-2.9285,-2.9486,-2.9593,-2.9713,-2.9606,-2.9513,-2.9366,-2.9379,-2.9526,-2.9499,-2.9406,-2.9017,-2.8578,-2.8056,-2.7582,-2.731,-2.7155,-2.7374,-2.7558,-2.7661,-2.7571,-2.739,-2.739,-2.7468,-2.7377,-2.7299,-2.7118,-2.7027,-2.7262,-3.6035,-3.6035,-3.6035,-3.6035,-3.6035,-3.6035,-3.6035,-3.6035,-3.6035,-3.6035,-3.6035,-3.6035,-3.6035,-3.5899,-3.5762,-3.5333,-3.4921,-3.4195,-3.2945,-3.1807,-3.0764,-2.9552,-2.8547,-2.7913,-2.7565,-2.7246,-2.7071,-2.7086,-2.713,-2.7481,-2.7759,-2.7744,-2.799,-2.8351,-2.8115,-2.8025,-2.804,-2.7726,-2.749,-2.7333,-2.6991,-2.6702,-2.6491,-2.6425,-2.64,-2.64,-2.6386,-2.6386,-2.6373,-2.6346,-2.6293,-2.6279,-2.6266,-2.6293,-2.6319,-2.6346,-2.6346,-2.64,-2.64,-2.64,-2.656,-2.672,-2.6814,-2.7094,-2.7535,-2.7655,-2.7549,-2.7575,-2.7696,-2.7762,-2.7856,-2.7923,-2.814,-2.8261,-2.8261,-2.8301,-2.835,-2.8524,-2.8657,-2.8751,-2.8938,-2.9138,-2.9165,-2.9152,-2.9179,-2.9205,-2.9285,-2.9432,-2.9593,-2.974,-2.9766,-2.9753,-2.9686,-2.9766,-2.986,-2.978,-2.9633,-2.9269,-2.8793,-2.8219,-2.7674,-2.7535,-2.7521,-2.7603,-2.7739,-2.792,-2.8023,-2.8023,-2.7933,-2.7739,-2.7377,-2.7208,-2.7118,-2.7027,-2.7299,-3.6035,-3.6035,-3.6035,-3.6035,-3.6035,-3.6035,-3.6035,-3.6035,-3.6035,-3.6035,-3.6035,-3.6035,-3.6035,-3.6035,-3.5967,-3.5743,-3.5538,-3.4971,-3.4333,-3.3345,-3.2228,-3.0747,-2.9393,-2.8475,-2.784,-2.7494,-2.7276,-2.7349,-2.7393,-2.7876,-2.8227,-2.8227,-2.8534,-2.8705,-2.8642,-2.8588,-2.8275,-2.8118,-2.7869,-2.7633,-2.7476,-2.7097,-2.6716,-2.6558,-2.64,-2.64,-2.6386,-2.6386,-2.6386,-2.6386,-2.64,-2.64,-2.64,-2.64,-2.6413,-2.6466,-2.6453,-2.6493,-2.6507,-2.6533,-2.6707,-2.6921,-2.7068,-2.7321,-2.7682,-2.7936,-2.7883,-2.7923,-2.8003,-2.8003,-2.814,-2.814,-2.8234,-2.8341,-2.8395,-2.8444,-2.8577,-2.8911,-2.9192,-2.9312,-2.9459,-2.9579,-2.9646,-2.9633,-2.9633,-2.9659,-2.9646,-2.9766,-2.9753,-2.9847,-2.9913,-2.9913,-2.9913,-2.9913,-2.99,-2.9887,-2.969,-2.9429,-2.9158,-2.8576,-2.822,-2.789,-2.7914,-2.8038,-2.8191,-2.8384,-2.8474,-2.8474,-2.801,-2.7739,-2.7299,-2.7027,-2.7027,-2.7027,-2.7208]},{"header":{"parameterUnit":"m.s-1","parameterCategory":1,"la1":31.0,"la2":29.5877,"lo1":-88.7671,"lo2":-86.6584,"dy":0.0162,"dx":0.0185,"nx":115,"ny":88,"refTime":"2026-04-08T00:00:00:Z","depth":0,"parameterNumber":3,"parameterNumberName":"V-component_of_WINDS"},"data":[0.0,0.0,0.0,0.0,0.0,0.0,0.0,0.0,0.0,0.0,0.0,0.0,0.0,0.0,0.0,0.0,0.0,0.0,0.0,0.0,0.0,0.0,0.0,0.0,0.0,0.0,0.0,0.0,0.0,0.0,0.0,0.0,0.0,0.0,0.0,0.0,0.0,0.0,0.0,0.0,0.0,0.0,0.0,0.0,0.0,0.0,0.0,0.0,0.0,0.0,0.0,0.0,0.0,0.0,0.0,0.0,0.0,0.0,0.0,0.0,0.0,0.0,0.0,0.0,0.0,0.0,0.0,0.0,0.0,0.0,0.0,0.0,0.0,0.0,0.0,0.0,0.0,0.0,0.0,0.0,0.0,0.0,0.0,0.0,0.0,0.0,0.0,0.0,0.0,0.0,0.0,0.0,0.0,0.0,0.0,0.0,0.0,0.0,0.0,0.0,0.0,0.0,0.0,0.0,0.0,0.0,0.0,0.0,0.0,0.0,0.0,0.0,0.0,0.0,0.0,0.0,0.0,0.0,0.0,0.0,0.0,0.0,0.0,0.0,0.0,0.0,0.0,0.0,0.0,0.0,0.0,0.0,0.0,0.0,0.0,0.0,0.0,0.0,0.0,0.0,0.0,0.0,0.0,0.0,0.0,0.0,0.0,0.0,0.0,0.0,0.0,0.0,0.0,0.0,0.0,0.0,0.0,0.0,0.0,0.0,0.0,0.0,0.0,0.0,0.0,0.0,0.0,0.0,0.0,0.0,0.0,0.0,0.0,0.0,0.0,0.0,0.0,0.0,0.0,0.0,0.0,0.0,0.0,0.0,0.0,0.0,0.0,0.0,0.0,0.0,0.0,0.0,0.0,0.0,0.0,0.0,0.0,0.0,0.0,0.0,0.0,0.0,0.0,0.0,0.0,0.0,0.0,0.0,0.0,0.0,0.0,0.0,0.0,0.0,0.0,0.0,0.0,0.0,0.0,0.0,0.0,0.0,0.0,0.0,0.0,0.0,0.0,0.0,0.0,0.0,0.0,0.0,0.0,0.0,0.0,0.0,0.0,0.0,0.0,0.0,0.0,0.0,0.0,0.0,0.0,0.0,0.0,0.0,0.0,0.0,0.0,0.0,0.0,0.0,0.0,0.0,0.0,0.0,0.0,0.0,0.0,0.0,0.0,0.0,0.0,0.0,0.0,0.0,0.0,0.0,0.0,0.0,0.0,0.0,0.0,0.0,0.0,0.0,0.0,0.0,0.0,0.0,0.0,0.0,0.0,0.0,0.0,0.0,0.0,0.0,0.0,0.0,0.0,0.0,0.0,0.0,0.0,0.0,0.0,0.0,0.0,0.0,0.0,0.0,0.0,0.0,0.0,0.0,0.0,0.0,0.0,0.0,0.0,0.0,0.0,0.0,0.0,0.0,0.0,0.0,0.0,0.0,0.0,0.0,0.0,0.0,0.0,0.0,0.0,0.0,0.0,0.0,0.0,0.0,0.0,0.0,0.0,0.0,0.0,0.0,0.0,0.0,0.0,0.0,0.0,0.0,0.0,0.0,0.0,0.0,0.0,0.0,0.0,0.0,0.0,0.0,0.0,0.0,0.0,0.0,0.0,0.0,0.0,0.0,0.0,0.0,0.0,0.0,0.0,0.0,0.0,0.0,0.0,0.0,0.0,0.0,0.0,0.0,0.0,0.0,0.0,0.0,0.0,0.0,0.0,0.0,0.0,0.0,0.0,0.0,0.0,0.0,0.0,0.0,0.0,0.0,0.0,0.0,0.0,0.0,0.0,0.0,0.0,0.0,0.0,0.0,0.0,0.0,0.0,0.0,0.0,0.0,0.0,0.0,0.0,0.0,0.0,0.0,0.0,0.0,0.0,0.0,0.0,0.0,0.0,0.0,0.0,0.0,0.0,0.0,0.0,0.0,0.0,0.0,0.0,0.0,0.0,0.0,0.0,0.0,0.0,0.0,0.0,0.0,0.0,0.0,0.0,0.0,0.0,0.0,0.0,0.0,0.0,0.0,0.0,0.0,0.0,0.0,0.0,0.0,0.0,0.0,0.0,0.0,0.0,0.0,0.0,0.0,0.0,0.0,0.0,0.0,0.0,0.0,0.0,0.0,0.0,0.0,0.0,0.0,0.0,0.0,0.0,0.0,0.0,0.0,0.0,0.0,0.0,0.0,0.0,0.0,0.0,0.0,0.0,0.0,0.0,0.0,0.0,0.0,0.0,0.0,0.0,0.0,0.0,0.0,0.0,0.0,0.0,0.0,0.0,0.0,0.0,0.0,0.0,0.0,0.0,0.0,0.0,0.0,0.0,0.0,0.0,0.0,0.0,0.0,0.0,0.0,0.0,0.0,0.0,0.0,0.0,0.0,0.0,0.0,0.0,0.0,0.0,0.0,0.0,0.0,0.0,0.0,0.0,0.0,0.0,0.0,0.0,0.0,0.0,0.0,0.0,0.0,0.0,0.0,0.0,0.0,0.0,0.0,0.0,0.0,0.0,0.0,0.0,0.0,0.0,0.0,0.0,0.0,0.0,0.0,0.0,0.0,0.0,0.0,0.0,0.0,0.0,0.0,0.0,0.0,0.0,0.0,0.0,0.0,0.0,0.0,0.0,0.0,0.0,0.0,0.0,0.0,0.0,0.0,0.0,0.0,0.0,0.0,0.0,0.0,0.0,0.0,0.0,0.0,0.0,0.0,0.0,0.0,0.0,0.0,0.0,0.0,0.0,0.0,0.0,0.0,0.0,0.0,0.0,0.0,0.0,0.0,0.0,0.0,0.0,0.0,0.0,0.0,0.0,0.0,0.0,0.0,0.0,0.0,0.0,0.0,0.0,0.0,0.0,0.0,0.0,0.0,0.0,0.0,0.0,0.0,0.0,0.0,0.0,0.0,0.0,0.0,0.0,0.0,0.0,0.0,0.0,0.0,0.0,0.0,0.0,0.0,0.0,0.0,0.0,0.0,0.0,0.0,0.0,0.0,0.0,0.0,0.0,0.0,0.0,0.0,0.0,0.0,0.0,0.0,0.0,0.0,0.0,0.0,0.0,0.0,0.0,0.0,0.0,0.0,0.0,0.0,0.0,0.0,0.0,0.0,0.0,0.0,0.0,0.0,0.0,0.0,0.0,0.0,0.0,0.0,0.0,0.0,0.0,0.0,0.0,0.0,0.0,0.0,0.0,0.0,0.0,0.0,0.0,0.0,0.0,0.0,0.0,0.0,0.0,0.0,0.0,0.0,0.0,0.0,0.0,0.0,0.0,0.0,0.0,0.0,0.0,0.0,0.0,0.0,0.0,0.0,0.0,0.0,0.0,0.0,0.0,0.0,0.0,0.0,0.0,0.0,0.0,0.0,0.0,0.0,0.0,0.0,0.0,0.0,0.0,0.0,0.0,0.0,0.0,0.0,0.0,0.0,0.0,0.0,0.0,0.0,0.0,0.0,0.0,0.0,0.0,0.0,0.0,0.0,0.0,0.0,0.0,0.0,0.0,0.0,0.0,0.0,0.0,0.0,0.0,0.0,0.0,0.0,0.0,0.0,0.0,0.0,0.0,0.0,0.0,0.0,0.0,0.0,0.0,0.0,0.0,0.0,0.0,0.0,0.0,0.0,0.0,0.0,0.0,0.0,0.0,0.0,0.0,0.0,0.0,0.0,0.0,0.0,0.0,0.0,0.0,0.0,0.0,0.0,0.0,0.0,0.0,0.0,0.0,0.0,0.0,0.0,0.0,0.0,0.0,0.0,0.0,0.0,0.0,0.0,0.0,0.0,0.0,0.0,0.0,0.0,0.0,0.0,0.0,0.0,0.0,0.0,0.0,0.0,0.0,0.0,0.0,0.0,0.0,0.0,0.0,0.0,0.0,0.0,0.0,0.0,0.0,0.0,0.0,0.0,0.0,0.0,0.0,0.0,0.0,0.0,0.0,0.0,0.0,0.0,0.0,0.0,0.0,0.0,0.0,0.0,0.0,0.0,0.0,0.0,0.0,0.0,0.0,0.0,0.0,0.0,0.0,0.0,0.0,0.0,0.0,0.0,0.0,0.0,0.0,0.0,0.0,0.0,0.0,0.0,0.0,0.0,0.0,0.0,0.0,0.0,0.0,0.0,0.0,0.0,0.0,0.0,0.0,0.0,0.0,0.0,0.0,0.0,0.0,0.0,0.0,0.0,0.0,0.0,0.0,0.0,0.0,0.0,0.0,0.0,0.0,0.0,0.0,0.0,0.0,0.0,0.0,0.0,0.0,0.0,0.0,0.0,0.0,0.0,0.0,0.0,0.0,0.0,1.3767,0.0,0.0,0.0,0.0,0.0,0.0,0.0,0.0,0.0,0.0,0.0,0.0,0.0,0.0,0.0,0.0,0.0,0.0,0.0,0.0,0.0,0.0,0.0,0.0,0.0,0.0,0.0,0.0,0.0,0.0,0.0,0.0,0.0,0.0,0.0,0.0,0.0,0.0,0.0,0.0,0.0,0.0,0.0,0.0,0.0,0.0,0.0,0.0,0.0,0.0,0.0,0.0,0.0,0.0,0.0,0.0,0.0,0.0,0.0,0.0,0.0,0.0,0.0,0.0,0.0,0.0,0.0,0.0,0.0,0.0,0.0,0.0,0.0,0.0,0.0,0.0,0.0,0.0,0.0,0.0,0.0,0.0,0.0,0.0,0.0,0.0,0.0,0.0,0.0,0.0,0.0,0.0,0.0,0.0,0.0,0.0,0.0,0.0,0.0,0.0,0.0,0.0,0.0,0.0,0.0,0.0,0.0,0.0,0.0,0.0,1.0379,1.0796,1.126,1.2071,1.3227,0.0,0.0,0.0,0.0,0.0,0.0,0.0,0.0,0.0,0.0,0.0,0.0,0.0,0.0,0.0,0.0,0.0,0.0,0.0,0.0,0.0,0.0,0.0,0.0,0.0,0.0,0.0,0.0,0.0,0.0,0.0,0.0,0.0,0.0,0.0,0.0,0.0,0.0,0.0,0.0,0.0,0.0,0.0,0.0,0.0,0.0,0.0,0.0,0.0,0.0,0.0,0.0,0.0,0.0,0.0,0.0,0.0,0.0,0.0,0.0,0.0,0.0,0.0,0.0,0.0,0.0,0.0,0.0,0.0,0.0,0.0,0.0,0.0,0.0,0.0,0.0,0.0,0.0,0.0,0.0,0.0,0.0,0.0,0.0,0.0,0.0,0.0,0.0,0.0,0.0,0.0,0.0,0.0,0.0,0.0,0.0,0.0,0.0,0.0,0.0,0.0,0.0,0.0,0.0,0.0,0.0,0.0,0.0,0.0,0.0,0.0,0.0,1.1144,1.1991,1.2955,0.0,0.0,0.0,0.0,0.0,0.0,0.0,0.0,0.0,0.0,0.0,0.0,0.0,0.0,0.0,0.0,0.0,0.0,0.0,0.0,0.0,0.0,0.0,0.0,0.0,0.0,0.0,0.0,0.0,0.0,0.0,0.0,0.0,0.0,0.0,0.0,0.0,0.0,0.0,0.0,0.0,0.0,0.0,0.0,0.0,0.0,0.0,0.0,0.0,0.0,0.0,0.0,0.0,0.0,0.0,0.0,0.0,0.0,0.0,0.0,0.0,0.0,0.0,0.0,0.0,0.0,0.0,0.0,0.0,0.0,0.0,0.0,0.0,0.0,0.0,0.0,0.0,0.0,0.0,0.0,0.0,0.0,0.0,0.0,0.0,0.0,0.0,0.0,0.0,0.0,0.0,0.0,0.0,0.0,0.0,0.0,0.0,0.0,0.0,0.0,0.0,0.0,0.0,0.0,0.0,0.0,0.0,0.0,0.0,0.0,1.0573,1.1376,1.1492,0.0,1.3769,0.0,0.0,0.0,0.0,0.0,0.0,0.0,0.0,0.0,0.0,0.0,0.0,0.0,0.0,0.0,0.0,0.0,0.0,0.0,0.0,0.0,0.0,0.0,0.0,0.0,0.0,0.0,0.0,0.0,0.0,0.0,0.0,0.0,0.0,0.0,0.0,0.0,0.0,0.0,0.0,0.0,0.0,0.0,0.0,0.0,0.0,0.0,0.0,0.0,0.0,0.0,0.0,0.0,0.0,0.0,0.0,0.0,0.0,0.0,0.0,0.0,0.0,0.0,0.0,0.0,0.0,0.0,0.0,0.0,0.0,0.0,0.0,0.0,0.0,0.0,0.0,0.0,0.0,0.0,0.0,0.0,0.0,0.0,0.0,0.0,0.0,0.0,0.0,0.0,0.0,0.0,0.0,0.0,0.0,0.0,0.0,0.0,0.0,0.0,0.0,0.0,0.0,0.0,0.0,0.0,0.0,0.0,0.0,0.0,0.0,0.0,1.2185,1.3231,1.381,0.0,0.0,0.0,0.0,0.0,0.0,0.0,0.0,0.0,0.0,0.0,0.0,0.0,0.0,0.0,0.0,0.0,0.0,0.0,0.0,0.0,0.0,0.0,0.0,0.0,0.0,0.0,0.0,0.0,0.0,0.0,0.0,0.0,0.0,0.0,0.0,0.0,0.0,0.0,0.0,0.0,0.0,0.0,0.0,0.0,0.0,0.0,0.0,0.0,0.0,0.0,0.0,0.0,0.0,0.0,0.0,0.0,0.0,0.0,0.0,0.0,0.0,0.0,0.0,0.0,0.0,0.0,0.0,0.0,0.0,0.0,0.0,0.0,0.0,0.0,0.0,0.0,0.0,0.0,0.0,0.0,0.0,0.0,0.0,0.0,0.0,0.0,0.0,0.0,0.0,0.0,0.0,0.0,0.0,0.0,0.0,0.0,0.0,0.0,0.0,0.0,0.0,0.0,0.0,0.0,0.0,0.0,0.0,0.0,0.0,1.0821,0.0,1.2726,1.4392,1.5013,1.439,0.0,0.0,0.0,0.0,0.0,0.0,0.0,0.0,0.0,0.0,0.0,0.0,0.0,0.0,0.0,0.0,0.0,0.0,0.0,0.0,0.0,0.0,0.0,0.0,0.0,0.0,0.0,0.0,0.0,0.0,0.0,0.0,0.0,0.0,0.0,0.0,0.0,0.0,0.0,0.0,0.0,0.0,0.0,0.0,0.0,0.0,0.0,0.0,0.0,0.0,0.0,0.0,0.0,0.0,0.0,0.0,0.0,0.0,0.0,0.0,0.0,0.0,0.0,0.0,0.0,0.0,0.0,0.0,0.0,0.0,0.0,0.0,0.0,0.0,0.0,0.0,0.0,0.0,0.0,0.0,0.0,0.0,0.0,0.0,0.0,0.0,0.0,0.0,0.0,0.0,0.0,0.0,0.0,0.0,0.0,0.0,0.0,0.0,0.0,0.0,0.0,0.0,0.0,0.0,0.0,0.0,0.0,0.0,0.0,1.0269,1.1075,1.2725,1.4394,1.5284,0.0,0.0,0.0,0.0,0.0,0.0,0.0,0.0,0.0,0.0,0.0,0.0,0.0,0.0,0.0,0.0,0.0,0.0,0.0,0.0,0.0,0.0,0.0,0.0,0.0,0.0,0.0,0.0,0.0,0.0,0.0,0.0,0.0,0.0,0.0,0.0,0.0,0.0,0.0,0.0,0.0,0.0,0.0,0.0,0.0,0.0,0.0,0.0,0.0,0.0,0.0,0.0,0.0,0.0,0.0,0.0,0.0,0.0,0.0,0.0,0.0,0.0,0.0,0.0,0.0,0.0,0.0,0.0,0.0,0.0,0.0,0.0,0.0,0.0,0.0,0.0,0.0,0.0,0.0,0.0,0.0,0.0,0.0,0.0,0.0,0.0,0.0,0.0,0.0,0.0,0.0,0.0,0.0,0.0,0.0,0.0,0.0,0.0,0.0,0.0,0.0,0.0,0.0,0.0,0.0,0.0,0.0,0.0,0.0,1.107,1.262,1.3777,1.4355,1.5516,1.5867,0.0,0.0,0.0,0.0,0.0,0.0,0.0,0.0,0.0,0.0,0.0,0.0,0.0,0.0,0.0,0.0,0.0,0.0,0.0,0.0,0.0,0.0,0.0,0.0,0.0,0.0,0.0,0.0,0.0,0.0,0.0,0.0,0.0,0.0,0.0,0.0,0.0,0.0,0.0,0.0,0.0,0.0,0.0,0.0,0.0,0.0,0.0,0.0,0.0,0.0,0.0,0.0,0.0,0.0,0.0,0.0,0.0,0.0,0.0,0.0,0.0,0.0,0.0,0.0,0.0,0.0,0.0,0.0,0.0,0.0,0.0,0.0,0.0,0.0,0.0,0.0,0.0,0.0,0.0,0.0,0.0,0.0,0.0,0.0,0.0,0.0,0.0,0.0,0.0,0.0,0.0,0.0,0.0,0.0,0.0,0.0,0.0,0.0,0.0,0.0,0.0,0.0,0.0,0.0,0.0,0.0,0.0,0.0,0.0,1.1916,0.0,1.4856,0.0,1.571,1.5906,0.0,0.0,0.0,0.0,0.0,0.0,0.0,0.0,0.0,0.0,0.0,0.0,0.0,0.0,0.0,0.0,0.0,0.0,0.0,0.0,0.0,0.0,0.0,0.0,0.0,0.0,0.0,0.0,0.0,0.0,0.0,0.0,0.0,0.0,0.0,0.0,0.0,0.0,0.0,0.0,0.0,0.0,0.0,0.0,0.0,0.0,0.0,0.0,0.0,0.0,0.0,0.0,0.0,0.0,0.0,0.0,0.0,0.0,0.0,0.0,0.0,0.0,0.0,0.0,0.0,0.0,0.0,0.0,0.0,0.0,0.0,0.0,0.0,0.0,0.0,0.0,0.0,0.0,0.0,0.0,0.0,0.0,0.0,0.0,0.0,0.0,0.0,0.0,0.0,0.0,0.0,0.0,0.0,0.0,0.0,0.0,0.0,0.0,0.0,0.0,0.0,0.0,0.0,0.0,0.0,0.0,0.0,0.0,1.1953,1.2723,1.3651,1.4228,1.4074,1.4934,1.5325,0.0,0.0,0.0,0.0,0.0,0.0,0.0,0.0,0.0,0.0,0.0,0.0,0.0,0.0,0.0,0.0,0.0,0.0,0.0,0.0,0.0,0.0,0.0,0.0,0.0,0.0,0.0,0.0,0.0,0.0,0.0,0.0,0.0,0.0,0.0,0.0,0.0,0.0,0.0,0.0,0.0,0.0,0.0,0.0,0.0,0.0,0.0,0.0,0.0,0.0,0.0,0.0,0.0,0.0,0.0,0.0,0.0,0.0,0.0,0.0,0.0,0.0,0.0,0.0,0.0,0.0,0.0,0.0,0.0,0.0,0.0,0.0,0.0,0.0,0.0,0.0,0.0,0.0,0.0,0.0,0.0,0.0,0.0,0.0,0.0,0.0,0.0,0.0,0.0,0.0,0.0,0.0,0.0,0.0,0.0,0.0,0.0,0.0,0.0,0.0,0.0,0.0,0.0,0.0,0.0,0.0,0.0,0.0,0.0,1.4429,1.5857,1.6323,1.5755,1.5456,1.4997,0.0,0.0,0.0,0.0,0.0,0.0,0.0,0.0,0.0,0.0,0.0,0.0,0.0,0.0,0.0,0.0,0.0,0.0,0.0,0.0,0.0,0.0,0.0,0.0,0.0,0.0,0.0,0.0,0.0,0.0,0.0,0.0,0.0,0.0,0.0,0.0,0.0,0.0,0.0,0.0,0.0,0.0,0.0,0.0,0.0,0.0,0.0,0.0,0.0,0.0,0.0,0.0,0.0,0.0,0.0,0.0,0.0,0.0,0.0,0.0,0.0,0.0,0.0,0.0,0.0,0.0,0.0,0.0,0.0,0.0,0.0,0.0,0.0,0.0,0.0,0.0,0.0,0.0,0.0,0.0,0.0,0.0,0.0,0.0,0.0,0.0,0.0,0.0,0.0,0.0,0.0,0.0,0.0,0.0,0.0,0.0,0.0,0.0,0.0,0.0,0.0,0.0,0.0,0.0,0.0,0.0,0.0,0.0,0.0,1.7523,1.8307,1.8317,1.7474,1.664,1.5834,1.4951,0.0,0.0,0.0,0.0,0.0,0.0,0.0,0.0,0.0,0.0,0.0,0.0,0.0,0.0,0.0,0.0,0.0,0.0,0.0,0.0,0.0,0.0,0.0,0.0,0.0,0.0,0.0,0.0,0.0,0.0,0.0,0.0,0.0,0.0,0.0,0.0,0.0,0.0,0.0,0.0,0.0,0.0,0.0,0.0,0.0,0.0,0.0,0.0,0.0,0.0,0.0,0.0,0.0,0.0,0.0,0.0,0.0,0.0,0.0,0.0,0.0,0.0,0.0,0.0,0.0,0.0,0.0,0.0,0.0,0.0,0.0,0.0,0.0,0.0,0.0,0.0,0.0,0.0,0.0,0.0,0.0,0.0,0.0,0.0,0.0,0.0,0.0,0.0,0.0,0.0,0.0,0.0,0.0,0.0,0.0,0.0,0.0,0.0,0.0,0.0,0.0,0.0,0.0,0.0,0.0,0.0,0.0,0.0,2.1538,2.1074,2.0315,1.9235,1.8329,1.7454,0.0,0.0,0.0,0.0,0.0,0.0,0.0,0.0,0.0,0.0,0.0,0.0,0.0,0.0,0.0,0.0,0.0,0.0,0.0,0.0,0.0,0.0,0.0,0.0,0.0,0.0,0.0,0.0,0.0,0.0,0.0,0.0,0.0,0.0,0.0,0.0,0.0,0.0,0.0,0.0,0.0,0.0,0.0,0.0,0.0,0.0,0.0,0.0,0.0,0.0,0.0,0.0,0.0,0.0,0.0,0.0,0.0,0.0,0.0,0.0,0.0,0.0,0.0,0.0,0.0,0.0,0.0,0.0,0.0,0.0,0.0,0.0,0.0,0.0,0.0,0.0,0.0,0.0,0.0,0.0,0.0,0.0,0.0,0.0,0.0,0.0,0.0,0.0,0.0,0.0,0.0,0.0,0.0,0.0,0.0,0.0,0.0,0.0,0.0,0.0,0.0,0.0,0.0,0.0,0.0,0.0,0.0,0.0,0.0,2.247,2.5289,2.5216,2.1901,1.9771,1.8011,0.0,0.0,0.0,0.0,0.0,0.0,0.0,0.0,0.0,0.0,0.0,0.0,0.0,0.0,0.0,0.0,0.0,0.0,0.0,0.0,0.0,0.0,0.0,0.0,0.0,0.0,0.0,0.0,0.0,0.0,0.0,0.0,0.0,0.0,0.0,0.0,0.0,0.0,0.0,0.0,0.0,0.0,0.0,0.0,0.0,0.0,0.0,0.0,0.0,0.0,0.0,0.0,0.0,0.0,0.0,0.0,0.0,0.0,0.0,0.0,0.0,0.0,0.0,0.0,0.0,0.0,0.0,0.0,0.0,0.0,0.0,0.0,0.0,0.0,0.0,0.0,0.0,0.0,0.0,0.0,0.0,0.0,0.0,0.0,0.0,0.0,0.0,0.0,0.0,0.0,0.0,0.0,0.0,0.0,0.0,0.0,0.0,0.0,0.0,0.0,0.0,0.0,0.0,0.0,0.0,0.0,0.0,0.0,2.3004,2.4933,2.8396,2.8659,2.5548,2.2307,1.9624,0.0,0.0,0.0,0.0,0.0,0.0,0.0,0.0,0.0,0.0,0.0,0.0,0.0,0.0,0.0,0.0,0.0,0.0,0.0,0.0,0.0,0.0,0.0,0.0,0.0,0.0,0.0,0.0,0.0,0.0,0.0,0.0,0.0,0.0,0.0,0.0,0.0,0.0,0.0,0.0,0.0,0.0,0.0,0.0,0.0,0.0,0.0,0.0,0.0,0.0,0.0,0.0,0.0,0.0,0.0,0.0,0.0,0.0,0.0,0.0,0.0,0.0,0.0,0.0,0.0,0.0,0.0,0.0,0.0,0.0,0.0,0.0,0.0,0.0,0.0,0.0,0.0,0.0,0.0,0.0,0.0,0.0,0.0,0.0,0.0,0.0,0.0,0.0,0.0,0.0,0.0,0.0,0.0,0.0,0.0,0.0,0.0,0.0,0.0,0.0,0.0,0.0,0.0,0.0,0.0,0.0,0.0,0.0,2.4851,2.7972,3.0583,3.1083,2.9204,2.5235,2.186,0.0,0.0,0.0,0.0,0.0,0.0,0.0,0.0,0.0,0.0,0.0,0.0,0.0,0.0,0.0,0.0,0.0,0.0,0.0,0.0,0.0,0.0,0.0,0.0,0.0,0.0,0.0,0.0,0.0,0.0,0.0,0.0,0.0,0.0,0.0,0.0,0.0,0.0,0.0,0.0,0.0,0.0,0.0,0.0,0.0,0.0,0.0,0.0,0.0,0.0,0.0,0.0,0.0,0.0,0.0,0.0,0.0,0.0,0.0,0.0,0.0,0.0,0.0,0.0,0.0,0.0,0.0,0.0,0.0,0.0,0.0,0.0,0.0,0.0,0.0,0.0,0.0,0.0,0.0,0.0,0.0,0.0,0.0,0.0,0.0,0.0,0.0,0.0,0.0,0.0,0.0,0.0,0.0,0.0,0.0,0.0,0.0,0.0,0.0,0.0,0.0,0.0,0.0,0.0,0.0,0.0,0.0,0.0,2.7467,2.8857,3.2012,3.2545,3.0192,2.6718,2.3651,0.0,0.0,0.0,0.0,0.0,0.0,0.0,0.0,0.0,0.0,0.0,0.0,0.0,0.0,0.0,0.0,0.0,0.0,0.0,0.0,0.0,0.0,0.0,0.0,0.0,0.0,0.0,0.0,0.0,0.0,0.0,0.0,0.0,0.0,0.0,0.0,0.0,0.0,0.0,0.0,0.0,0.0,0.0,0.0,0.0,0.0,0.0,0.0,1.7922,0.0,0.0,0.0,0.0,0.0,0.0,0.0,0.0,0.0,0.0,0.0,0.0,0.0,0.0,0.0,0.0,0.0,0.0,0.0,0.0,0.0,0.0,0.0,0.0,0.0,0.0,0.0,0.0,0.0,0.0,0.0,0.0,0.0,0.0,0.0,0.0,0.0,0.0,0.0,0.0,0.0,0.0,0.0,0.0,0.0,0.0,0.0,0.0,0.0,0.0,0.0,0.0,0.0,0.0,0.0,0.0,0.0,0.0,0.0,2.966,3.0891,3.343,3.3776,3.1615,2.9088,2.5981,0.0,0.0,0.0,0.0,0.0,0.0,0.0,0.0,0.0,0.0,0.0,0.0,0.0,0.0,0.0,0.0,0.0,0.0,0.0,0.0,0.0,0.0,0.0,0.0,0.0,0.0,0.0,0.0,0.0,0.0,0.0,0.0,0.0,0.0,0.0,0.0,0.0,0.0,0.0,0.0,0.0,0.0,0.0,0.0,0.0,0.0,0.0,0.0,0.0,0.0,0.0,0.0,0.0,0.0,0.0,0.0,0.0,0.0,0.0,0.0,0.0,0.0,0.0,0.0,0.0,0.0,0.0,0.0,0.0,0.0,0.0,0.0,0.0,0.0,0.0,0.0,0.0,0.0,0.0,0.0,0.0,0.0,0.0,0.0,0.0,0.0,0.0,0.0,0.0,0.0,0.0,0.0,0.0,0.0,0.0,0.0,0.0,0.0,0.0,0.0,0.0,0.0,0.0,0.0,0.0,0.0,0.0,2.8698,3.1737,3.3276,3.5007,3.5007,3.316,3.1462,2.8275,2.3368,0.0,0.0,0.0,0.0,0.0,0.0,0.0,0.0,0.0,0.0,0.0,0.0,0.0,0.0,0.0,0.0,0.0,0.0,0.0,0.0,0.0,0.0,0.0,0.0,0.0,0.0,0.0,0.0,0.0,0.0,0.0,0.0,0.0,0.0,0.0,0.0,0.0,0.0,1.7144,1.9372,0.0,0.0,0.0,0.0,0.0,0.0,0.0,0.0,1.9881,0.0,0.0,0.0,0.0,0.0,0.0,0.0,0.0,0.0,0.0,0.0,0.0,0.0,0.0,0.0,0.0,0.0,0.0,0.0,0.0,0.0,0.0,0.0,0.0,0.0,0.0,0.0,0.0,0.0,0.0,0.0,0.0,0.0,0.0,0.0,0.0,0.0,0.0,0.0,0.0,0.0,0.0,0.0,0.0,0.0,0.0,0.0,0.0,0.0,0.0,0.0,0.0,0.0,0.0,0.0,0.0,2.5077,3.0698,3.4083,3.5077,3.6738,3.643,3.4052,3.2352,2.9429,2.512,0.0,0.0,0.0,0.0,0.0,0.0,0.0,0.0,0.0,0.0,0.0,0.0,0.0,0.0,0.0,0.0,0.0,0.0,0.0,0.0,0.0,0.0,0.0,0.0,0.0,0.0,0.0,0.0,0.0,0.0,0.0,0.0,0.0,0.0,0.0,0.0,0.0,0.0,0.0,2.1483,2.2342,0.0,0.0,0.0,0.0,0.0,0.0,0.0,0.0,1.9782,0.0,0.0,0.0,0.0,0.0,0.0,0.0,0.0,0.0,0.0,0.0,0.0,0.0,0.0,0.0,0.0,0.0,0.0,0.0,0.0,0.0,0.0,0.0,0.0,0.0,0.0,0.0,0.0,0.0,0.0,0.0,0.0,0.0,0.0,0.0,0.0,0.0,0.0,0.0,0.0,0.0,0.0,0.0,0.0,0.0,0.0,0.0,0.0,0.0,0.0,0.0,0.0,0.0,0.0,0.0,2.7923,3.2929,3.593,3.6769,3.8007,3.7469,3.493,3.2814,2.9885,0.0,0.0,0.0,0.0,0.0,0.0,0.0,0.0,0.0,0.0,0.0,0.0,0.0,0.0,0.0,0.0,0.0,0.0,0.0,0.0,0.0,0.0,0.0,0.0,0.0,0.0,0.0,0.0,0.0,0.0,0.0,0.0,0.0,0.0,0.0,0.0,0.0,0.0,0.0,0.0,2.4022,2.4961,2.4514,0.0,0.0,0.0,0.0,0.0,0.0,2.187,2.1326,0.0,0.0,0.0,0.0,0.0,0.0,0.0,0.0,0.0,0.0,0.0,0.0,0.0,0.0,0.0,0.0,0.0,0.0,0.0,0.0,0.0,0.0,0.0,0.0,0.0,0.0,0.0,0.0,0.0,0.0,0.0,0.0,0.0,0.0,0.0,0.0,0.0,0.0,0.0,0.0,0.0,0.0,0.0,0.0,0.0,0.0,0.0,0.0,0.0,0.0,0.0,0.0,0.0,0.0,0.0,3.0308,3.4731,3.7392,3.8238,3.9123,3.8315,3.5808,3.3276,3.0275,0.0,0.0,0.0,0.0,0.0,0.0,0.0,0.0,0.0,0.0,0.0,0.0,0.0,0.0,0.0,0.0,0.0,0.0,0.0,0.0,0.0,0.0,0.0,0.0,0.0,0.0,0.0,0.0,0.0,0.0,0.0,0.0,0.0,0.0,0.0,0.0,0.0,0.0,0.0,0.0,0.0,2.7308,2.7404,2.6133,0.0,0.0,0.0,0.0,2.3905,2.4022,0.0,0.0,0.0,0.0,0.0,0.0,0.0,0.0,0.0,0.0,0.0,0.0,0.0,0.0,0.0,0.0,0.0,0.0,0.0,0.0,0.0,0.0,0.0,0.0,0.0,0.0,0.0,0.0,0.0,0.0,0.0,0.0,0.0,0.0,0.0,0.0,0.0,0.0,0.0,0.0,0.0,0.0,0.0,0.0,0.0,0.0,0.0,0.0,0.0,0.0,0.0,0.0,0.0,0.0,0.0,0.0,3.0346,3.5308,3.8277,3.9123,3.9938,3.9161,3.6615,3.4083,3.0852,0.0,0.0,0.0,0.0,0.0,0.0,0.0,0.0,0.0,0.0,0.0,0.0,0.0,0.0,0.0,0.0,0.0,0.0,0.0,0.0,0.0,0.0,0.0,0.0,0.0,0.0,0.0,0.0,0.0,0.0,0.0,0.0,0.0,0.0,0.0,0.0,0.0,0.0,0.0,0.0,0.0,2.8414,2.9102,2.841,2.7833,0.0,0.0,0.0,2.6561,2.7135,0.0,0.0,0.0,0.0,0.0,0.0,0.0,0.0,0.0,0.0,0.0,0.0,0.0,0.0,0.0,0.0,0.0,0.0,0.0,0.0,0.0,0.0,0.0,0.0,0.0,0.0,0.0,0.0,0.0,0.0,0.0,0.0,0.0,0.0,0.0,0.0,0.0,0.0,0.0,0.0,0.0,0.0,0.0,0.0,0.0,0.0,0.0,0.0,0.0,0.0,0.0,0.0,0.0,0.0,0.0,2.5774,3.1698,3.5892,3.8661,3.9938,4.0323,3.9515,3.7507,3.4968,3.1891,0.0,0.0,0.0,0.0,0.0,0.0,0.0,0.0,0.0,0.0,0.0,0.0,0.0,0.0,0.0,0.0,0.0,0.0,0.0,0.0,0.0,0.0,0.0,0.0,0.0,0.0,0.0,0.0,0.0,0.0,0.0,0.0,0.0,0.0,0.0,0.0,0.0,0.0,0.0,0.0,0.0,0.0,3.1587,3.1791,0.0,0.0,0.0,3.0725,3.1231,0.0,0.0,0.0,0.0,0.0,0.0,0.0,0.0,0.0,0.0,0.0,0.0,0.0,0.0,0.0,0.0,0.0,0.0,0.0,0.0,0.0,0.0,0.0,0.0,0.0,0.0,0.0,0.0,0.0,0.0,0.0,0.0,0.0,0.0,0.0,0.0,0.0,0.0,0.0,0.0,0.0,0.0,0.0,0.0,0.0,0.0,0.0,0.0,0.0,0.0,0.0,0.0,0.0,0.0,0.0,0.0,0.0,3.2788,3.6248,3.8793,4.0415,4.0508,3.9708,3.8007,3.5745,0.0,0.0,0.0,0.0,0.0,0.0,0.0,0.0,0.0,0.0,0.0,0.0,0.0,0.0,0.0,0.0,0.0,0.0,0.0,0.0,0.0,0.0,0.0,0.0,0.0,0.0,0.0,1.0117,0.0,0.0,0.0,0.0,0.0,0.0,0.0,0.0,0.0,0.0,0.0,0.0,0.0,0.0,3.2889,3.4179,3.5039,3.5663,0.0,0.0,3.5077,3.5498,3.6258,3.5779,0.0,0.0,0.0,0.0,0.0,0.0,0.0,0.0,0.0,0.0,0.0,0.0,0.0,0.0,0.0,0.0,0.0,0.0,0.0,0.0,0.0,0.0,0.0,0.0,0.0,0.0,0.0,0.0,0.0,0.0,0.0,0.0,0.0,0.0,0.0,0.0,0.0,0.0,0.0,0.0,0.0,0.0,0.0,0.0,0.0,0.0,0.0,0.0,0.0,0.0,0.0,0.0,0.0,0.0,0.0,3.2677,3.6174,3.873,4.0414,4.0492,3.9708,3.8046,3.6315,3.343,0.0,0.0,0.0,0.0,0.0,0.0,0.0,0.0,0.0,0.0,0.0,0.0,0.0,0.0,0.0,0.0,0.0,0.0,0.0,0.0,0.0,0.0,0.0,0.0,0.0,0.0,0.0,0.0,0.0,0.0,0.0,0.0,0.0,0.0,0.0,0.0,0.0,0.0,0.0,0.0,0.0,3.4205,3.6632,3.7687,3.8544,0.0,0.0,3.9046,3.8363,3.8928,3.8027,3.3884,0.0,0.0,0.0,0.0,0.0,0.0,0.0,0.0,0.0,0.0,0.0,0.0,0.0,0.0,0.0,0.0,0.0,0.0,0.0,0.0,0.0,0.0,0.0,0.0,0.0,0.0,0.0,0.0,0.0,0.0,0.0,0.0,0.0,0.0,0.0,0.0,0.0,0.0,0.0,0.0,0.0,0.0,0.0,0.0,0.0,0.0,0.0,0.0,0.0,0.0,0.0,0.0,0.0,2.6772,3.2675,3.5553,3.8082,4.0296,3.9977,3.92,3.8046,3.6846,3.4231,0.0,0.0,0.0,0.0,0.0,0.0,0.0,0.0,0.0,0.0,0.0,0.0,0.0,0.0,0.0,0.0,0.0,0.0,0.0,0.0,0.0,0.0,0.0,0.0,0.0,0.0,0.0,0.0,1.3122,1.4098,1.5268,0.0,0.0,0.0,0.0,0.0,0.0,0.0,0.0,0.0,0.0,3.7219,3.9277,4.1145,0.0,0.0,4.3701,4.3325,4.25,4.1746,3.995,3.6266,3.1912,0.0,0.0,0.0,0.0,0.0,0.0,0.0,0.0,0.0,0.0,0.0,0.0,0.0,0.0,0.0,0.0,0.0,0.0,0.0,0.0,0.0,0.0,0.0,0.0,0.0,0.0,0.0,0.0,0.0,0.0,0.0,0.0,0.0,0.0,0.0,0.0,0.0,0.0,0.0,0.0,0.0,0.0,0.0,0.0,0.0,0.0,0.0,0.0,0.0,0.0,0.0,0.0,2.7528,3.2942,3.5954,3.8487,4.066,4.0219,3.9592,3.8762,3.7654,3.5192,0.0,0.0,0.0,0.0,0.0,0.0,0.0,0.0,0.0,0.0,0.0,0.0,0.0,0.0,0.0,0.0,0.0,0.0,0.0,0.0,0.0,0.0,0.0,0.0,0.0,0.0,0.0,0.0,1.4472,1.4979,1.5368,0.0,0.0,0.0,0.0,0.0,0.0,0.0,0.0,0.0,0.0,3.9214,4.1434,4.3728,4.5523,4.6438,4.654,4.6013,4.4647,4.316,4.1029,3.7644,0.0,0.0,0.0,0.0,0.0,0.0,0.0,0.0,0.0,0.0,0.0,0.0,0.0,0.0,0.0,0.0,0.0,0.0,0.0,0.0,0.0,0.0,0.0,0.0,0.0,0.0,0.0,0.0,0.0,0.0,1.6885,0.0,0.0,0.0,0.0,0.0,0.0,0.0,0.0,0.0,0.0,0.0,0.0,0.0,0.0,0.0,0.0,0.0,0.0,0.0,0.0,0.0,0.0,0.0,3.3619,3.7647,4.0273,4.134,4.1484,4.1114,4.0367,3.8831,3.6353,3.2814,0.0,0.0,0.0,0.0,0.0,0.0,0.0,0.0,0.0,0.0,0.0,0.0,0.0,0.0,0.0,0.0,0.0,0.0,0.0,0.0,0.0,0.0,0.0,0.0,0.0,0.0,1.6371,1.6499,1.6235,0.0,0.0,0.0,0.0,0.0,0.0,0.0,0.0,0.0,0.0,3.5675,3.9648,4.2965,4.498,4.6433,4.7237,4.7406,4.6511,4.3981,4.2791,4.1029,0.0,0.0,0.0,0.0,0.0,0.0,0.0,0.0,0.0,0.0,0.0,0.0,0.0,0.0,0.0,0.0,0.0,0.0,0.0,0.0,0.0,0.0,0.0,0.0,0.0,0.0,0.0,2.1473,2.0869,0.0,0.0,0.0,0.0,0.0,0.0,0.0,0.0,0.0,0.0,0.0,3.0343,3.201,0.0,0.0,0.0,0.0,0.0,0.0,0.0,0.0,0.0,0.0,0.0,0.0,2.9373,3.403,3.7182,3.9746,4.1817,4.1053,4.026,3.958,3.8547,3.5584,3.0512,0.0,0.0,0.0,0.0,0.0,0.0,0.0,0.0,0.0,0.0,0.0,0.0,0.0,0.0,0.0,0.0,0.0,0.0,0.0,0.0,0.0,0.0,0.0,0.0,0.0,1.6922,0.0,0.0,0.0,0.0,0.0,0.0,0.0,0.0,0.0,0.0,0.0,3.1878,3.418,3.8166,4.1696,4.3968,4.674,4.846,0.0,0.0,0.0,0.0,0.0,0.0,0.0,0.0,0.0,0.0,0.0,0.0,0.0,0.0,3.8554,3.5465,3.371,3.2232,3.0529,0.0,0.0,0.0,0.0,0.0,0.0,0.0,0.0,0.0,0.0,0.0,0.0,0.0,0.0,2.6245,0.0,2.406,0.0,0.0,0.0,0.0,0.0,0.0,0.0,0.0,3.4357,3.606,3.5684,3.7014,3.7116,0.0,3.6413,3.4227,0.0,0.0,0.0,0.0,0.0,0.0,0.0,0.0,3.0778,3.5092,3.8202,4.0677,4.2423,4.1737,4.1139,4.0739,3.926,3.6031,3.1012,2.8429,2.5808,0.0,0.0,0.0,0.0,0.0,0.0,0.0,0.0,0.0,0.0,0.0,0.0,0.0,0.0,0.0,0.0,0.0,0.0,0.0,0.0,0.0,0.0,0.0,1.9189,0.0,0.0,0.0,0.0,0.0,0.0,0.0,0.0,0.0,2.8768,3.2226,3.5387,3.6841,4.0244,4.3272,4.5305,0.0,0.0,0.0,0.0,0.0,0.0,0.0,4.2493,4.1955,4.1368,4.1352,4.2499,4.3606,4.4408,4.4718,0.0,0.0,4.1718,4.0045,3.8639,3.6668,3.6551,3.6663,3.6358,3.7859,3.9746,0.0,0.0,0.0,0.0,0.0,0.0,0.0,0.0,3.2082,3.1274,0.0,2.961,0.0,0.0,0.0,0.0,0.0,0.0,0.0,0.0,3.893,4.1205,4.1222,4.1956,4.2359,4.2323,4.1479,3.9827,3.7287,3.2181,0.0,0.0,0.0,0.0,0.0,0.0,3.34,3.6628,4.07,4.2982,4.323,4.3416,4.3608,4.3656,4.0793,3.7694,3.443,3.1846,2.9731,2.8005,2.3928,0.0,0.0,0.0,0.0,0.0,0.0,0.0,0.0,0.0,0.0,0.0,0.0,0.0,0.0,0.0,0.0,0.0,0.0,0.0,0.0,2.2555,0.0,0.0,0.0,0.0,0.0,0.0,0.0,0.0,0.0,0.0,3.2672,3.5891,3.8673,3.9545,0.0,0.0,0.0,0.0,4.9937,4.9892,5.059,5.0273,4.7792,4.6732,4.6201,4.6164,0.0,0.0,4.8567,4.8832,4.9142,4.9878,5.009,4.9178,4.6816,4.6022,4.5015,4.2666,4.2717,4.3156,4.2589,4.386,4.6137,3.9186,0.0,0.0,0.0,0.0,3.6632,3.8282,3.946,3.8637,3.7799,3.686,3.5027,0.0,0.0,0.0,0.0,0.0,0.0,3.6597,3.8322,4.1992,4.3664,4.37,4.4488,4.4562,4.4011,4.3204,4.1846,4.001,3.7331,3.3458,2.8574,0.0,0.0,0.0,0.0,3.4039,3.7298,4.0775,4.2918,4.3698,4.3343,4.2825,4.2123,4.0775,3.9084,3.6969,3.4468,3.2352,3.066,2.7121,0.0,0.0,0.0,0.0,0.0,0.0,0.0,0.0,0.0,0.0,0.0,0.0,0.0,0.0,0.0,0.0,0.0,0.0,0.0,2.329,2.5341,2.5612,0.0,0.0,0.0,0.0,0.0,0.0,0.0,0.0,0.0,4.0855,4.1435,4.217,0.0,0.0,4.7439,4.8793,5.0968,5.2222,5.1602,0.0,0.0,0.0,5.0632,5.0724,5.128,5.2894,5.4506,5.5543,5.5697,5.5581,5.5225,5.5642,5.5603,5.4163,5.0999,4.815,4.6299,4.6348,4.659,4.5979,4.7179,4.8839,4.5612,4.113,4.0784,4.0639,4.089,4.2778,4.4583,4.6067,4.4912,4.3905,4.2938,4.0906,3.8878,3.6997,3.6282,0.0,0.0,0.0,4.1038,4.2396,4.5296,4.6617,4.6691,4.7462,4.7241,4.614,4.5626,4.4415,4.2526,4.1535,3.9056,3.4981,0.0,0.0,3.147,3.3542,3.6029,3.8955,4.1871,4.3517,4.3849,4.3618,4.31,4.2313,4.1579,4.0462,3.8898,3.675,3.4939,3.359,2.9986,2.6989,0.0,0.0,0.0,0.0,0.0,0.0,0.0,0.0,0.0,0.0,0.0,1.5393,0.0,0.0,0.0,0.0,2.1491,2.3933,2.6481,2.8118,0.0,0.0,0.0,0.0,0.0,0.0,0.0,4.0331,4.3002,4.5201,4.6883,4.7231,4.7038,4.6225,4.8005,4.9823,5.1061,0.0,5.3923,5.373,5.489,5.5316,5.3986,5.3778,5.4103,5.4979,5.6596,5.7907,5.8422,5.8558,5.8355,5.7959,5.8153,5.8355,5.7844,5.5177,5.2528,5.065,5.0805,5.1018,5.0156,5.1241,5.2636,5.0059,4.8902,4.6707,4.6011,4.6428,4.7629,4.9643,5.1972,5.044,4.9281,4.8347,4.6735,4.4692,4.2481,4.1779,0.0,4.2763,4.4268,4.5406,4.6287,4.8619,4.9684,4.9757,5.0435,4.9958,4.8379,4.8269,4.7058,4.4966,4.4745,4.3938,4.2396,3.7338,3.5023,3.5518,3.7081,3.9029,4.1295,4.3657,4.4535,4.3898,4.4184,4.4097,4.3541,4.278,4.1689,4.0291,3.866,3.7392,3.6514,3.2683,2.9701,2.7902,0.0,0.0,0.0,0.0,0.0,0.0,0.0,0.0,0.0,0.0,0.0,0.0,0.0,0.0,0.0,2.5258,0.0,3.067,3.1158,0.0,0.0,0.0,3.2648,3.6013,3.9301,4.228,4.4826,0.0,0.0,5.1014,0.0,5.2561,4.9506,5.0473,5.2105,5.3691,5.4774,5.5586,5.636,5.725,5.7559,5.7018,5.6897,5.7193,5.7968,5.847,5.8983,5.8964,5.8837,5.8729,5.8582,5.8554,5.8554,5.8554,5.8351,5.7852,5.5421,5.5537,5.5741,5.4587,5.5439,5.6573,5.3076,5.2325,5.2018,5.0837,4.9303,5.1108,5.2483,5.3335,5.3039,5.2091,5.0656,4.9664,4.7995,4.579,4.5095,4.5186,4.6012,4.6966,4.7902,4.8766,4.9958,5.0508,5.0508,5.0729,5.0251,4.928,4.8012,4.7076,4.6489,4.5278,4.4507,4.4085,4.2763,4.1295,3.9738,4.065,4.1752,4.291,4.469,4.5294,4.4589,4.4786,4.4318,4.3109,4.2382,4.1606,4.0722,3.9191,3.8226,3.8029,3.5278,3.2643,3.036,2.6961,0.0,0.0,0.0,0.0,0.0,0.0,0.0,0.0,0.0,2.1048,2.2586,0.0,2.4593,0.0,3.0114,3.3032,3.4301,3.619,0.0,0.0,3.7489,3.8727,4.2086,4.433,4.6573,4.9119,5.1099,5.2669,5.3679,5.4752,5.5323,5.5055,5.5998,5.694,5.7366,5.8681,5.9687,5.9919,6.1041,6.2095,6.1737,6.1862,6.1833,6.2143,6.2278,6.212,6.1296,6.11,6.0813,5.9984,5.9753,5.9753,5.9753,5.9792,5.9383,5.8259,5.7781,5.7313,5.6352,5.6856,5.7513,5.4668,5.4025,5.4261,5.3435,5.2074,5.3564,5.4542,5.5062,5.481,5.4277,5.3558,5.2848,5.1843,5.0629,4.9988,4.9921,5.0362,5.0452,5.0765,5.1206,5.1683,5.1867,5.1867,5.1867,5.1279,5.0105,4.8416,4.7443,4.7076,4.6195,4.5792,4.5755,4.6507,4.603,4.4342,4.3681,4.3754,4.4562,4.5443,4.592,4.5899,4.5267,4.4621,4.393,4.2468,4.1424,4.0841,3.9573,3.878,3.8422,3.64,3.4466,3.2722,2.9209,2.5904,0.0,0.0,0.0,0.0,0.0,0.0,0.0,0.0,0.0,0.0,0.0,2.9044,0.0,3.3433,3.581,3.8196,4.0075,4.1563,4.2721,4.3146,4.4267,4.6553,4.8624,5.0604,5.2382,5.4138,5.5647,5.68,5.7602,5.834,5.9095,5.9881,6.0091,5.936,6.0239,6.1167,6.1582,6.2771,6.3641,6.3641,6.3621,6.3601,6.359,6.3505,6.3199,6.2554,6.2349,6.2007,6.1391,6.1247,6.1247,6.1194,6.0904,6.0523,6.0118,5.9383,5.8557,5.7714,5.8081,5.8539,5.5344,5.4634,5.4737,5.453,5.4139,5.4892,5.5716,5.6536,5.5943,5.5877,5.6128,5.5447,5.5116,5.4971,5.4539,5.4246,5.4011,5.335,5.302,5.302,5.3041,5.3115,5.3203,5.3203,5.2396,5.0912,4.926,4.8086,4.7406,4.7296,4.7259,4.7333,4.882,4.915,4.8269,4.6214,4.5516,4.6177,4.6214,4.6544,4.7206,4.5734,4.5009,4.5057,4.2736,4.1206,4.0646,3.9786,3.9002,3.8264,3.6864,3.5653,3.4705,3.1073,2.7893,0.0,2.4709,0.0,0.0,0.0,0.0,0.0,0.0,0.0,0.0,3.2763,3.3948,3.6387,3.6699,3.8375,4.2302,4.3442,4.4922,4.7319,4.8206,4.9053,5.0189,5.2316,5.4051,5.5025,5.6568,5.8153,5.9397,6.0288,6.0992,6.1454,6.2021,6.1844,6.0577,6.0927,6.1797,6.2397,6.3246,6.4061,6.4012,6.3891,6.3873,6.3762,6.3706,6.3359,6.3096,6.2909,6.2687,6.2423,6.226,6.2314,6.2406,6.1799,6.1359,6.1061,6.0411,5.9587,5.8884,5.9084,5.9613,5.5818,5.46,5.4601,5.4262,5.3651,5.3913,5.4703,5.5794,5.6051,5.606,5.5858,5.5281,5.4685,5.409,5.4082,5.3405,5.2307,5.2123,5.215,5.2234,5.2234,5.2564,5.3167,5.3203,5.2711,5.172,5.0068,4.9224,4.9133,4.8416,4.8086,4.8086,4.9077,4.917,4.8343,0.0,0.0,0.0,4.7865,4.7609,4.715,4.6195,4.5386,4.476,4.2443,0.0,4.0237,3.9437,3.8693,3.8011,3.7676,0.0,0.0,0.0,0.0,0.0,0.0,0.0,0.0,0.0,0.0,0.0,3.8439,3.8487,3.6804,3.8388,4.0367,4.2192,4.3053,4.4346,4.6462,4.7461,4.8746,5.057,5.0954,5.1896,5.4139,5.4891,5.5797,5.7341,5.844,5.9149,5.9456,6.0546,6.1423,6.1588,6.2094,6.2353,6.2048,6.273,6.3469,6.3884,6.4679,6.5353,6.5305,6.5243,6.505,6.5015,6.4885,6.4428,6.3628,6.3365,6.2909,6.2202,6.1939,6.1996,6.1996,6.1789,6.1562,6.0885,6.0603,6.0263,5.9605,5.9499,5.968,5.6697,0.0,5.5683,5.5277,0.0,5.4737,5.5239,5.5873,5.5683,5.5849,5.6191,5.6199,5.5752,5.494,5.4269,5.3156,5.1651,5.0926,5.068,5.0741,5.1185,5.183,5.2637,5.3041,5.2784,5.194,5.0288,4.9517,4.9574,4.917,4.893,4.893,5.0141,5.0362,4.9554,4.9554,4.9114,4.8306,4.8306,4.8086,4.77,4.6892,4.6085,4.5296,0.0,0.0,0.0,0.0,0.0,0.0,0.0,0.0,0.0,0.0,0.0,3.2653,3.259,3.2991,3.3886,3.6258,3.8736,4.1205,4.3664,4.4159,4.196,4.3301,4.4782,4.6048,4.6578,4.7514,4.9201,5.052,5.1764,5.3047,5.391,5.4838,5.5655,5.6191,5.6752,5.7684,5.8909,5.98,6.0146,6.1469,6.2292,6.2294,6.2762,6.3182,6.3219,6.3588,6.4092,6.4705,6.5249,6.5624,6.5548,6.5489,6.5412,6.5207,6.5079,6.4778,6.4209,6.3972,6.3691,6.3142,6.3008,6.3008,6.3008,6.2707,6.2294,6.1919,6.1506,6.1131,6.0771,6.0377,6.0229,5.7442,5.6799,5.6799,5.6393,5.5716,5.5856,5.603,5.6132,0.0,0.0,0.0,5.7185,5.6927,5.6092,5.4792,5.3308,5.1726,5.0368,4.9756,4.9813,5.0737,5.1605,5.2396,5.3036,5.3057,5.2344,5.0729,4.9978,5.0014,5.0014,4.9941,4.9941,5.1279,5.161,5.0875,5.0802,5.0141,4.882,4.86,4.8526,4.8526,4.759,4.6782,4.6104,4.4562,4.2757,4.0824,4.1335,4.1021,3.9649,4.048,4.0554,3.9602,3.9124,3.8271,3.7044,3.7542,3.8452,3.9599,4.1084,4.3007,4.5454,4.7791,4.8461,4.6914,4.7418,4.8136,4.8942,4.9018,4.9712,5.1404,5.2764,5.4027,5.4988,5.6295,5.6879,5.6516,5.698,5.7497,5.7832,5.9131,6.0269,6.0925,6.2233,6.3144,6.3123,6.347,6.3915,6.3925,6.3861,6.4187,6.4946,6.5153,6.5245,6.5184,6.5089,6.4997,6.4845,6.4704,6.4632,6.4539,6.4444,6.4287,6.4074,6.4224,6.4149,6.4149,6.3641,6.3211,6.3061,6.2498,6.1973,6.1898,6.1448,6.1184,5.7476,5.6799,5.6799,5.6393,5.5681,5.5716,5.5926,5.6234,5.6558,5.695,5.7374,5.7247,5.6779,5.6006,5.5136,5.3914,5.2445,5.1522,5.1188,0.0,5.2156,5.3003,5.388,5.4027,5.4071,5.3959,5.2417,5.1646,5.1646,5.1646,5.1316,5.0839,5.1536,5.161,5.0875,5.0802,5.0692,5.0435,4.9738,4.9427,4.939,4.7902,4.7039,4.6856,4.5406,4.412,4.3175,4.3192,4.2574,4.123,4.2579,4.2758,4.1386,4.1809,4.2032,4.1809,4.1898,4.2954,4.5148,4.619,4.7789,5.0206,5.201,5.2135,5.0172,5.0053,5.0482,5.1308,5.1421,5.2076,5.3616,5.4067,5.4894,5.6209,5.6715,5.7108,5.776,5.8003,5.8377,5.9087,6.0028,6.0672,6.0959,6.2146,6.3043,6.298,6.3472,6.3894,6.3899,6.4016,6.4218,6.4501,6.4648,6.4666,6.461,6.4501,6.4369,6.4091,6.4087,6.4125,6.4067,6.4063,6.4,6.3958,6.4016,6.3979,6.3958,6.3883,6.353,6.3044,6.267,6.2595,6.2595,6.2446,6.2446,5.7679,5.7374,5.7408,5.7205,5.69,5.69,5.708,5.7466,5.7828,5.7694,5.7228,5.7179,5.6754,5.5957,5.5233,5.4025,5.2513,5.1746,5.1427,5.153,5.2397,5.328,5.404,5.418,5.4246,5.4239,5.3182,5.2674,5.2674,5.2637,5.2454,5.216,5.2491,5.2454,5.2123,5.2123,5.2123,5.2087,5.0875,5.0051,4.961,4.8857,4.8049,4.7113,4.6342,4.5424,4.4316,4.4702,4.4475,4.3436,4.4564,4.4707,4.3726,4.4358,4.4618,4.4209,4.4952,4.6141,4.7701,4.9002,5.0562,5.2531,5.3385,5.3814,5.372,5.3682,5.3832,5.4223,5.4298,5.4559,5.5343,5.579,5.635,5.7059,5.7544,5.8161,5.8929,5.9116,5.9472,6.0297,6.1177,6.1681,6.164,6.2624,6.3291,6.3264,6.3593,6.3758,6.3758,6.3808,6.3984,6.4231,6.4349,6.4368,6.431,6.4269,6.4108,6.3937,6.3894,6.3894,6.3894,6.3894,6.3894,6.3894,6.3894,6.3894,6.3894,6.3894,6.3707,6.3521,6.3334,6.3334,6.3334,6.335,6.3329,5.8017,5.7881,5.7881,5.7881,5.7881,5.7881,5.8099,5.8493,5.8714,5.8299,5.7588,5.7666,5.7297,5.65,5.574,5.4653,5.3336,5.2536,5.2196,5.2291,5.3122,5.3882,5.4497,5.4647,5.4714,5.4671,5.3916,5.3482,5.3482,5.3298,5.3203,5.3203,5.3203,5.3203,5.3203,5.3203,5.3203,5.3093,5.1977,5.0949,5.0198,4.9978,4.9224,4.8067,4.7957,4.737,4.6268,4.6801,4.6837,4.622,4.6885,4.7011,4.6409,4.7077,4.7279,4.6814,4.7779,4.893,5.0005,5.1565,5.3051,5.424,5.4537,5.5169,5.6395,5.6766,5.6655,5.6395,5.6192,5.6303,5.6563,5.7063,5.7583,5.7769,5.8475,5.9165,5.9812,6.0051,6.0444,6.1187,6.1893,6.2376,6.2562,6.3119,6.3527,6.3587,6.3602,6.3602,6.3602,6.3602,6.3742,6.3979,6.4067,6.4046,6.4046,6.4021,6.3915,6.3867,6.3845,6.3808,6.3808,6.3808,6.383,6.3808,6.3808,6.3808,6.3808,6.3808,6.3808,6.3712,6.3712,6.3771,6.3771,6.3705,6.3698,5.8524,5.7915,5.7915,5.7881,5.7881,5.7881,5.8135,5.8493,5.8714,5.8963,5.9041,5.9285,5.8927,5.813,5.7333,5.6464,5.5595,5.4907,5.4544,5.4641,5.5366,5.5874,5.6124,5.6161,5.6314,5.63,5.4965,5.4216,5.4179,5.3534,5.3203,5.3203,5.3203,5.3203,5.3203,5.3203,5.3203,5.3203,5.3057,5.2601,5.1793,5.1059,5.0618,5.0472,5.0435,5.0398,5.0014,5.0345,5.0017,4.9433,4.9967,5.0099,4.9529,5.0175,5.062,5.0546,5.075,5.1565,5.3181,5.4909,5.58,5.6097,5.6655,5.7138,5.7398,5.8029,5.7843,5.6766,5.6357,5.6729,5.7286,5.7509,5.7881,5.8549,5.9255,5.9828,6.0072,6.063,6.1113,6.1187,6.2041,6.2413,6.2599,6.3156,6.3565,6.3602,6.3602,6.3602,6.3602,6.3602,6.3602,6.3669,6.3669,6.3691,6.3691,6.3669,6.3669,6.3647,6.3624,6.3647,6.3669,6.3647,6.3624,6.3691,6.3647,6.3669,6.3647,6.3624,6.3647,6.3669,6.3669,6.3647,6.3624,6.3624,6.3624,5.9471,5.9167,5.8727,5.8287,5.7915,5.7881,5.8133,5.8527,5.9003,5.9481,5.9946,6.0461,6.0142,5.9108,5.8275,5.7732,5.7369,5.6609,5.6247,5.6283,5.6647,5.6891,5.6976,5.6682,5.658,5.6562,5.5126,5.4399,5.4289,5.3592,5.3203,5.3203,5.3203,5.3203,5.3261,5.3665,5.3922,5.3922,5.3922,5.3739,5.3298,5.216,5.1279,5.0875,5.0802,5.0802,5.0802,5.0802,5.0695,5.0444,5.0721,5.0797,5.0581,5.0932,5.1118,5.1231,5.2196,5.3254,5.4463,5.5652,5.6506,5.6989,5.7286,5.7695,5.8178,5.8512,5.8401,5.7881,5.7732,5.7881,5.8141,5.8215,5.8549,5.9271,5.9738,6.0295,6.1298,6.1707,6.2079,6.2502,6.2896,6.3119,6.3156,6.3416,6.3602,6.3602,6.3602,6.3602,6.3602,6.3602,6.3602,6.3602,6.3602,6.3602,6.3602,6.3602,6.3602,6.3602,6.3602,6.3602,6.3602,6.3602,6.3602,6.3602,6.3602,6.3602,6.3602,6.3602,6.3602,6.3602,6.3602,6.3602,6.3602,6.3602,6.3602,6.0283,6.0013,5.9336,5.8693,5.8186,5.7983,5.8099,5.8456,5.908,5.9613,6.0132,6.0992,6.0904,6.0043,5.9381,5.8963,5.8673,5.813,5.7732,5.755,5.7615,5.7606,5.7425,5.7083,5.6909,5.6759,5.5713,5.495,5.4693,5.4179,5.3885,5.3849,5.3849,5.3849,5.3922,5.4473,5.473,5.4693,5.4546,5.4399,5.4216,5.3041,5.205,5.1536,5.1463,5.1573,5.1793,5.1793,5.1887,5.2189,5.2189,5.223,5.231,5.231,5.237,5.2618,5.394,5.5094,5.5652,5.6469,5.7212,5.7769,5.7843,5.8066,5.8549,5.8677,5.8677,5.8661,5.8677,5.864,5.8698,5.8921,5.9292,5.985,6.02,6.1128,6.219,6.2562,6.2933,6.349,6.349,6.3602,6.3602,6.3602,6.3602,6.3602,6.3602,6.3602,6.3602,6.3602,6.3602,6.3602,6.3602,6.3602,6.3602,6.3602,6.3602,6.3602,6.3602,6.3602,6.3602,6.3602,6.3602,6.3602,6.3602,6.3602,6.3602,6.3602,6.3602,6.3602,6.3602,6.3602,6.3602,6.3602,6.3602,6.0791,6.0047,5.9302,5.8998,5.8896,5.8186,5.8027,5.8278,5.8737,5.918,5.9711,6.0626,6.1098,6.1157,6.0729,6.0267,5.9615,5.9434,5.8999,5.8383,5.8337,5.8065,5.7595,5.7546,5.7653,5.773,5.6909,5.6161,5.5522,5.5427,5.5486,5.5427,5.5354,5.5449,5.5412,5.5464,5.5559,5.5464,5.4913,5.4509,5.4399,5.3628,5.3188,5.3115,5.3078,5.3335,5.4032,5.4179,5.4473,5.5302,5.5192,5.5265,5.5302,5.5287,5.5322,5.5602,5.6607,5.7249,5.736,5.7992,5.8512,5.8586,5.8549,5.8624,5.8698,5.8751,5.8846,5.8735,5.8884,5.8884,5.8958,5.9441,5.9828,6.0125,6.1373,6.2153,6.2413,6.3082,6.349,6.3602,6.3602,6.3602,6.3602,6.3602,6.3602,6.3602,6.3602,6.3602,6.3602,6.3602,6.3602,6.3602,6.3602,6.3602,6.3602,6.3602,6.3602,6.3602,6.3602,6.3602,6.3602,6.3602,6.3602,6.3602,6.3602,6.3602,6.3602,6.3602,6.3602,6.3602,6.3602,6.3602,6.3602,6.3602,6.3602,6.1569,6.0791,6.0047,5.9438,5.8964,5.822,5.8063,5.8385,5.8667,5.9216,5.9943,6.06,6.1117,6.1466,6.1551,6.1136,6.0375,5.9868,5.9434,5.9108,5.8714,5.8417,5.8226,5.7923,5.7786,5.7771,5.7143,5.6381,5.5684,5.5633,5.5633,5.5633,5.5633,5.5633,5.5684,5.6124,5.6381,5.6345,5.6051,5.5941,5.5831,5.517,5.473,5.4656,5.3702,5.357,5.4399,5.4399,5.4766,5.5574,5.5633,5.5633,5.5633,5.5705,5.5813,5.5992,5.6904,5.7509,5.7583,5.8252,5.8677,5.8677,5.8677,5.8677,5.8751,5.9123,5.9478,5.9531,6.0035,6.0295,6.0221,6.011,6.0311,6.1373,6.2041,6.2636,6.3082,6.3453,6.3602,6.3602,6.3602,6.3602,6.3602,6.3602,6.3602,6.3602,6.3602,6.3602,6.3602,6.3602,6.3602,6.3602,6.3602,6.3602,6.3602,6.3602,6.3602,6.3602,6.3602,6.3602,6.3602,6.3602,6.3602,6.3602,6.3602,6.3676,6.3713,6.3936,6.3899,6.3862,6.3862,6.3973,6.3602,6.3973,6.3862,6.211,6.1569,6.0825,6.0216,5.9674,5.893,5.864,5.8795,5.9045,5.9424,5.9978,6.0569,6.1117,6.153,6.184,6.1725,6.1172,6.0629,6.0231,5.9977,5.9512,5.9107,5.8662,5.8288,5.8006,5.7844,5.7437,5.6895,5.6418,5.6404,5.6381,5.6381,5.6345,5.6381,5.6455,5.6932,5.7189,5.7189,5.6932,5.6785,5.6712,5.6014,5.5633,5.5464,5.4546,5.4363,5.5133,5.5207,5.5537,5.6235,5.6345,5.6345,5.6404,5.6522,5.663,5.6725,5.7355,5.7777,5.7851,5.8333,5.8593,5.8593,5.8614,5.8709,5.9006,5.9547,5.9977,6.037,6.0815,6.1261,6.1447,6.1076,6.1187,6.2264,6.2636,6.297,6.3527,6.3602,6.3602,6.3602,6.3602,6.3602,6.3602,6.3602,6.3602,6.3602,6.3602,6.3602,6.3602,6.3602,6.3602,6.3602,6.3602,6.3602,6.3602,6.3602,6.3602,6.3602,6.3602,6.3602,6.3602,6.3602,6.3602,6.3602,6.3676,6.3788,6.3973,6.4196,6.4308,6.4345,6.4642,6.4902,6.4679,6.4531,6.4568,6.2381,6.2245,6.1603,6.1197,6.0994,6.0216,5.9753,5.947,5.9801,5.9874,5.9921,6.0569,6.1081,6.1408,6.1812,6.2005,6.1897,6.1788,6.1399,6.081,6.0692,6.0025,5.9028,5.8786,5.8421,5.801,5.796,5.7923,5.7776,5.774,5.7776,5.7886,5.774,5.7666,5.7923,5.785,5.7923,5.7776,5.7262,5.6895,5.6712,5.6198,5.5853,5.5816,5.5647,5.5941,5.6712,5.6675,5.6969,5.7703,5.785,5.7923,5.7799,5.7949,5.8105,5.8039,5.8275,5.8356,5.8378,5.8452,5.8585,5.8585,5.8576,5.9106,5.9721,6.0045,6.0481,6.1076,6.1373,6.1633,6.2264,6.2339,6.2339,6.2487,6.3082,6.349,6.3565,6.3602,6.3639,6.3676,6.3676,6.3602,6.3616,6.3639,6.3639,6.3602,6.3602,6.3602,6.3602,6.3602,6.3602,6.3602,6.3602,6.3602,6.3602,6.3602,6.3602,6.3602,6.3602,6.3602,6.3602,6.3602,6.3602,6.3639,6.3936,6.4085,6.4828,6.5088,6.5385,6.5496,6.5756,6.5719,6.5534,6.5385,6.5608,6.2415,6.2313,6.1603,6.1298,6.1197,6.0452,6.0133,6.0191,6.0108,6.022,6.0644,6.0817,6.1087,6.153,6.184,6.2014,6.2041,6.2005,6.1833,6.1571,6.1144,6.0742,6.0191,5.9383,5.8602,5.8084,5.7997,5.7997,5.7997,5.7997,5.7997,5.7997,5.7997,5.7997,5.7997,5.7997,5.7997,5.796,5.7776,5.7629,5.7629,5.7373,5.7226,5.7262,5.7262,5.7409,5.7556,5.7079,5.7189,5.796,5.7997,5.7997,5.802,5.8111,5.8179,5.8238,5.8327,5.843,5.8467,5.891,5.9169,5.9339,5.9797,6.0307,6.0663,6.1211,6.1648,6.2079,6.2524,6.3007,6.3156,6.323,6.3171,6.3208,6.3453,6.3602,6.3602,6.3602,6.3899,6.4248,6.3973,6.3899,6.4159,6.4048,6.3639,6.3676,6.3676,6.3676,6.3676,6.3788,6.3602,6.3602,6.3602,6.3825,6.401,6.4122,6.4085,6.3936,6.3825,6.3639,6.3602,6.3602,6.3602,6.3936,6.4233,6.4791,6.5496,6.6017,6.6351,6.6314,6.6202,6.6165,6.6128,6.6239,6.65,6.2415,6.2313,6.1907,6.1704,6.167,6.1129,6.0981,6.0975,6.0861,6.1051,6.1383,6.1667,6.1765,6.1968,6.2273,6.2268,6.2041,6.2041,6.2041,6.1969,6.1615,6.1287,6.0981,6.0066,5.9333,5.8891,5.8584,5.8437,5.8437,5.8143,5.7997,5.7997,5.7997,5.7997,5.7997,5.7997,5.7997,5.7997,5.796,5.7997,5.796,5.7997,5.7997,5.796,5.796,5.7997,5.796,5.7483,5.7483,5.7886,5.7997,5.7997,5.802,5.8065,5.8111,5.8133,5.8215,5.8371,5.8702,5.9159,5.9624,5.9941,6.0512,6.0987,6.1306,6.1989,6.2316,6.2761,6.3072,6.3465,6.3442,6.3442,6.3465,6.3465,6.3534,6.3579,6.3602,6.3602,6.3788,6.4062,6.3862,6.3936,6.4048,6.4048,6.3728,6.3936,6.4025,6.427,6.4382,6.4568,6.4493,6.4493,6.4716,6.4791,6.4642,6.4642,6.4605,6.4382,6.4099,6.3825,6.3602,6.3639,6.3616,6.4531,6.499,6.5845,6.6574,6.6982,6.7317,6.702,6.6871,6.7168,6.7354,6.7243,6.7391,6.2415,6.2415,6.2381,6.2347,6.2347,6.2279,6.199,6.1677,6.1958,6.1983,6.2056,6.2634,6.2842,6.2612,6.2903,6.273,6.2159,6.2041,6.2041,6.2041,6.1924,6.1669,6.112,6.0652,6.0298,6.0065,5.9575,5.9221,5.9061,5.851,5.8033,5.7997,5.7997,5.7997,5.7997,5.7997,5.7997,5.7997,5.7997,5.7997,5.7997,5.7997,5.7997,5.7997,5.7997,5.7997,5.796,5.7923,5.7923,5.7997,5.7997,5.7997,5.7997,5.7997,5.802,5.802,5.8033,5.8534,5.9024,5.9525,5.9819,6.0467,6.0819,6.1014,6.1835,6.2174,6.2479,6.3033,6.3181,6.3218,6.3218,6.3218,6.3255,6.3255,6.3419,6.3571,6.3653,6.3653,6.3802,6.3876,6.375,6.3639,6.3713,6.3616,6.3913,6.4345,6.4582,6.4976,6.5534,6.5682,6.5979,6.5905,6.5645,6.5534,6.5348,6.5348,6.5311,6.5162,6.4902,6.4605,6.4233,6.4196,6.4433,6.525,6.5882,6.6773,6.7404,6.78,6.8023,6.7948,6.8036,6.8444,6.837,6.8073,6.7961,6.2415,6.2415,6.2415,6.2415,6.2415,6.2415,6.2397,6.2319,6.2043,6.2142,6.2474,6.2796,6.3057,6.3112,6.3199,6.3056,6.2766,6.2295,6.2041,6.2041,6.2041,6.1749,6.1416,6.1213,6.0909,6.0469,6.0236,5.9795,5.9221,5.9001,5.8621,5.7997,5.8107,5.8033,5.7997,5.807,5.7997,5.7997,5.7997,5.7997,5.7997,5.7997,5.7997,5.7997,5.7997,5.7997,5.7997,5.7997,5.7997,5.7997,5.7997,5.7997,5.7997,5.7997,5.7997,5.8143,5.8584,5.8964,5.9368,6.0309,6.1006,6.1324,6.1838,6.245,6.2634,6.2791,6.2986,6.3194,6.3194,6.3171,6.3171,6.3171,6.3171,6.3194,6.3316,6.3632,6.4035,6.3836,6.3896,6.5028,6.4345,6.3862,6.3676,6.375,6.3839,6.4122,6.4642,6.5274,6.6128,6.6388,6.65,6.6239,6.6017,6.6054,6.6017,6.6017,6.5979,6.5905,6.5794,6.5756,6.5534,6.5459,6.5942,6.6587,6.6736,6.7404,6.7924,6.8296,6.8481,6.8518,6.8518,6.8518,6.8518,6.8333,6.8296,6.2415,6.2415,6.2415,6.2415,6.2415,6.2415,6.2459,6.2508,6.2251,6.2354,6.2845,6.3341,6.3586,6.3654,6.405,6.378,6.3164,6.273,6.2331,6.2041,6.2041,6.194,6.1839,6.1857,6.1702,6.1386,6.1043,6.0676,6.0236,5.9905,5.9465,5.9171,5.8988,5.9024,5.9061,5.8657,5.851,5.8437,5.8217,5.7997,5.7997,5.7997,5.7997,5.7997,5.7997,5.7997,5.7997,5.7997,5.7997,5.7997,5.7997,5.7997,5.7997,5.7997,5.8143,5.8474,5.8964,5.9441,6.0236,6.1153,6.1704,6.2071,6.2659,6.2831,6.2892,6.2978,6.3026,6.3002,6.3026,6.3026,6.3026,6.3026,6.3088,6.3136,6.3455,6.3933,6.4544,6.4577,6.4995,6.5547,6.5311,6.4456,6.4211,6.4359,6.4545,6.4805,6.5547,6.629,6.7057,6.6982,6.702,6.6908,6.6945,6.7094,6.7168,6.7168,6.7094,6.6982,6.6834,6.6797,6.65,6.6462,6.6797,6.7205,6.7516,6.785,6.8258,6.8518,6.8518,6.8518,6.8518,6.8518,6.8518,6.8518,6.8518,6.2415,6.2415,6.2415,6.2415,6.2415,6.2415,6.2381,6.2381,6.2386,6.2586,6.3127,6.4112,6.4311,6.4182,6.4933,6.4794,6.3526,6.3237,6.2621,6.2223,6.2005,6.2032,6.2235,6.2354,6.2446,6.2425,6.1998,6.163,6.1263,6.075,6.0456,6.0199,6.0236,6.0346,6.0052,5.9612,5.9318,5.9001,5.8547,5.8143,5.8033,5.7997,5.7997,5.7997,5.7997,5.7997,5.7997,5.7997,5.8033,5.8143,5.8107,5.8253,5.8253,5.829,5.8621,5.9221,5.9612,6.0236,6.1263,6.163,6.2034,6.2622,6.2768,6.2805,6.2805,6.283,6.294,6.3149,6.2952,6.316,6.3344,6.3209,6.3357,6.3665,6.4132,6.4648,6.4927,6.5588,6.6105,6.6202,6.6202,6.5682,6.5348,6.5496,6.6017,6.5473,6.6179,6.6996,6.759,6.7813,6.7924,6.8036,6.8147,6.8333,6.8333,6.8333,6.8221,6.811,6.7986,6.7776,6.7205,6.7131,6.7354,6.7614,6.7948,6.8147,6.837,6.8518,6.8518,6.8518,6.8518,6.8518,6.8518,6.8518,6.8518,6.2415,6.2415,6.2415,6.2415,6.2415,6.2415,6.2415,6.2415,6.2415,6.2615,6.3193,6.4147,6.4666,6.4959,6.5406,6.5374,6.4794,6.378,6.2766,6.2114,6.2041,6.2087,6.2238,6.2407,6.2589,6.2693,6.2633,6.2218,6.1704,6.1447,6.1006,6.0529,6.0639,6.0419,6.0456,6.0346,5.9795,5.9294,5.9024,5.8657,5.8217,5.8143,5.8143,5.8143,5.8107,5.807,5.7997,5.7997,5.829,5.8744,5.9001,5.9245,5.9612,5.9758,5.9869,6.0162,6.0713,6.119,6.163,6.2144,6.2585,6.2768,6.2805,6.2805,6.2805,6.2805,6.3135,6.3576,6.3833,6.398,6.4494,6.4688,6.4655,6.4855,6.557,6.6248,6.6432,6.6208,6.6405,6.6736,6.6537,6.5831,6.5028,6.577,6.6165,6.6239,6.6834,6.759,6.811,6.8556,6.863,6.8667,6.8518,6.8556,6.8853,6.8964,6.9113,6.9113,6.9038,6.8964,6.8333,6.7999,6.8296,6.8357,6.8357,6.8506,6.8518,6.8518,6.8518,6.8518,6.8518,6.8518,6.8518,6.8518,6.8704,6.2415,6.2415,6.2415,6.2415,6.2415,6.2415,6.2415,6.2415,6.2415,6.2615,6.3193,6.4112,6.4806,6.5275,6.5838,6.5989,6.5265,6.3925,6.2983,6.2549,6.2259,6.2087,6.2158,6.2265,6.2459,6.2679,6.278,6.2511,6.2254,6.2108,6.1998,6.1557,6.152,6.163,6.141,6.1153,6.0786,6.0382,5.9942,5.9538,5.9171,5.9134,5.9134,5.9134,5.9134,5.9134,5.9171,5.9134,5.9575,6.0089,6.0309,6.0272,6.0346,6.0419,6.0566,6.1006,6.13,6.1851,6.2181,6.2511,6.2805,6.2842,6.2805,6.2805,6.2805,6.2805,6.3209,6.3833,6.4127,6.4383,6.5191,6.5301,6.5353,6.5628,6.6319,6.6678,6.6581,6.6814,6.7245,6.7701,6.754,6.6908,6.6611,6.6638,6.6699,6.6959,6.7479,6.8221,6.863,6.8964,6.8927,6.889,6.8654,6.8729,6.915,6.9484,6.9893,6.9967,7.0004,6.9967,6.9744,6.9484,6.9373,6.915,6.884,6.8543,6.8518,6.8518,6.863,6.8556,6.8556,6.8518,6.8556,6.8691,6.8964,6.2415,6.2415,6.2415,6.2415,6.2415,6.2415,6.2415,6.2415,6.2415,6.2615,6.3155,6.4112,6.4806,6.5374,6.6294,6.6286,6.5374,6.4215,6.3345,6.3019,6.2304,6.2096,6.2168,6.2248,6.2318,6.2552,6.2679,6.2682,6.2743,6.2805,6.2622,6.2707,6.2732,6.2548,6.2548,6.2181,6.163,6.13,6.0823,6.0419,6.0236,6.0199,6.0199,6.0199,6.0162,6.0162,6.0162,6.0236,6.0676,6.152,6.1594,6.13,6.097,6.0823,6.1006,6.1741,6.1851,6.2144,6.2548,6.2743,6.2817,6.289,6.3025,6.3172,6.322,6.3466,6.3906,6.4383,6.4861,6.5228,6.5595,6.5888,6.593,6.607,6.6537,6.6577,6.6519,6.7531,6.8087,6.8037,6.7901,6.758,6.753,6.758,6.7653,6.7789,6.8308,6.8816,6.9224,6.9373,6.9335,6.9076,6.8816,6.889,6.9335,7.0041,7.0475,7.0635,7.0747,7.0747,7.0747,7.0412,7.0004,6.9521,6.9187,6.9038,6.9076,6.9335,6.9298,6.8853,6.9001,6.9373,6.9261,6.8914,6.9434,6.2415,6.2415,6.2415,6.2415,6.2415,6.2415,6.2415,6.2415,6.2415,6.2615,6.3117,6.4147,6.4806,6.5409,6.633,6.6322,6.5591,6.4649,6.3889,6.3309,6.2621,6.225,6.2314,6.2349,6.2374,6.2423,6.2578,6.2679,6.278,6.2805,6.2805,6.2805,6.2805,6.2805,6.2768,6.2622,6.2181,6.1814,6.1484,6.1153,6.0786,6.0639,6.0639,6.0639,6.0676,6.0639,6.0529,6.0493,6.0786,6.1484,6.1557,6.1887,6.2108,6.223,6.2328,6.2438,6.2475,6.2585,6.2768,6.2805,6.3209,6.3649,6.3796,6.42,6.4567,6.4824,6.4971,6.5778,6.6476,6.7026,6.7247,6.7063,6.729,6.7468,6.7421,6.7546,6.7564,6.78,6.7887,6.7506,6.7802,6.8171,6.8049,6.8099,6.8124,6.8284,6.8754,6.9397,6.9967,6.993,6.9744,6.9373,6.8964,6.9187,6.9521,7.0375,7.0995,7.1143,7.1229,7.1255,7.118,7.0932,7.0561,7.0549,7.0338,7.019,7.0264,7.0227,7.019,6.993,7.0152,7.0412,7.0115,6.9893,7.0549,6.2753,6.2415,6.2415,6.2415,6.2415,6.2415,6.2415,6.2415,6.2415,6.2615,6.3196,6.4111,6.4841,6.5409,6.633,6.6539,6.6098,6.5374,6.483,6.4287,6.3671,6.3237,6.3092,6.2885,6.2866,6.2854,6.273,6.2603,6.278,6.2805,6.2805,6.2805,6.2805,6.2805,6.2805,6.2768,6.2585,6.2218,6.2181,6.2034,6.1667,6.163,6.163,6.163,6.1594,6.1667,6.1667,6.1667,6.1814,6.2144,6.2218,6.2475,6.2695,6.2805,6.2842,6.2842,6.2842,6.2842,6.2842,6.2842,6.3209,6.3906,6.4152,6.4457,6.5044,6.5338,6.5742,6.6439,6.7173,6.7687,6.7614,6.7687,6.7741,6.7794,6.782,6.77,6.7505,6.7752,6.7546,6.7229,6.7774,6.8169,6.8095,6.822,6.843,6.8814,6.9272,6.9941,7.0684,7.0573,7.0325,7.0338,7.0078,7.0326,7.0623,7.1255,7.1738,7.1849,7.1886,7.1886,7.1961,7.1923,7.2072,7.2221,7.1923,7.1267,7.0895,7.0672,7.0821,7.097,7.0895,7.0858,7.0858,7.1007,7.1589,6.2922,6.2415,6.2415,6.2415,6.2415,6.2415,6.2415,6.2415,6.2415,6.2615,6.3117,6.4111,6.4841,6.5409,6.6207,6.6786,6.675,6.5953,6.5518,6.5301,6.4613,6.4323,6.4142,6.3727,6.323,6.3265,6.2761,6.2526,6.2755,6.2805,6.2805,6.2805,6.2805,6.2805,6.2805,6.2805,6.2805,6.2805,6.2805,6.2805,6.2805,6.2805,6.2805,6.2805,6.2805,6.2732,6.2622,6.2585,6.2622,6.2695,6.2732,6.2805,6.2805,6.2805,6.2915,6.3,6.3062,6.311,6.333,6.3429,6.3943,6.4751,6.464,6.5044,6.5595,6.6109,6.6182,6.6696,6.7247,6.7687,6.7687,6.7687,6.7797,6.7981,6.8008,6.7898,6.7934,6.8098,6.8372,6.8231,6.8299,6.8266,6.8291,6.8539,6.8823,6.9304,6.9799,7.0602,7.1198,7.115,7.1102,7.1401,7.1527,7.1738,7.1998,7.2369,7.2704,7.2741,7.2778,7.2778,7.2964,7.3112,7.3187,7.3001,7.2592,7.1923,7.1515,7.1403,7.1775,7.1923,7.1552,7.1552,7.1849,7.1923,7.2221,6.2482,6.2415,6.2415,6.2415,6.2415,6.2415,6.2415,6.2415,6.2415,6.2615,6.3042,6.4111,6.4841,6.5474,6.633,6.6793,6.6569,6.6134,6.5772,6.5627,6.5011,6.4649,6.4359,6.3563,6.3602,6.3657,6.2937,6.2599,6.2877,6.2964,6.2805,6.2805,6.2805,6.2805,6.2805,6.2805,6.2805,6.2805,6.2805,6.2842,6.2879,6.2915,6.2915,6.2952,6.2989,6.3062,6.3135,6.3135,6.3099,6.3,6.2915,6.2842,6.2805,6.2805,6.3282,6.3686,6.4016,6.4237,6.4714,6.4751,6.5044,6.5705,6.5999,6.6586,6.688,6.7136,6.721,6.7467,6.765,6.7687,6.7687,6.7724,6.8054,6.8458,6.8678,6.9082,6.9265,6.8825,6.9054,6.9282,6.9315,6.8841,6.8598,6.8919,6.9278,6.9795,7.0386,7.1189,7.1733,7.1749,7.1691,7.1991,7.2269,7.2481,7.2618,7.3101,7.3224,7.3372,7.341,7.341,7.3372,7.3372,7.3372,7.3149,7.2815,7.2741,7.2555,7.2592,7.2927,7.2815,7.2481,7.2704,7.3112,7.3075,7.2815,6.2415,6.2415,6.2415,6.2415,6.2415,6.2415,6.2415,6.2415,6.2415,6.2615,6.3155,6.4147,6.5108,6.5985,6.6668,6.6793,6.6714,6.6388,6.6279,6.6243,6.5844,6.57,6.5627,6.4975,6.4626,6.4447,6.4121,6.3955,6.38,6.3195,6.2805,6.2879,6.2842,6.2805,6.2989,6.2842,6.2805,6.2805,6.2842,6.3062,6.3392,6.3576,6.3759,6.4163,6.4163,6.4163,6.4163,6.4237,6.4237,6.4237,6.4237,6.4237,6.4237,6.431,6.4604,6.5338,6.5448,6.5411,6.5301,6.5375,6.5852,6.6292,6.6586,6.6806,6.7467,6.7687,6.7687,6.7687,6.7687,6.7724,6.7871,6.8128,6.8495,6.8898,6.9412,6.9743,7.011,7.0036,6.9945,7.0174,7.033,6.9958,6.9632,6.988,7.0275,7.0655,7.1098,7.1689,7.2287,7.26,7.2542,7.2458,7.2737,7.2964,7.3064,7.3287,7.3298,7.341,7.3447,7.341,7.341,7.3372,7.3632,7.3584,7.3261,7.3261,7.3447,7.3335,7.3187,7.3261,7.3372,7.3372,7.3372,7.3335,7.3149,6.2415,6.2415,6.2415,6.2415,6.2415,6.2415,6.2415,6.2415,6.2415,6.2615,6.323,6.4182,6.5439,6.6421,6.6668,6.6727,6.6822,6.6822,6.6822,6.6822,6.6822,6.6714,6.6351,6.5917,6.554,6.5734,6.4738,6.4549,6.441,6.4046,6.3525,6.3404,6.3686,6.3576,6.3477,6.3613,6.3649,6.3649,6.3649,6.3906,6.4273,6.4383,6.4714,6.5081,6.5301,6.5338,6.5338,6.5264,6.5228,6.5191,6.5154,6.5081,6.5118,6.5081,6.5485,6.6072,6.6256,6.6256,6.6145,6.6182,6.6256,6.6586,6.6806,6.7136,6.7504,6.7687,6.7871,6.8054,6.8054,6.8164,6.8348,6.8935,6.9339,6.9743,7.0146,7.0403,7.066,7.0844,7.1047,7.1305,7.1425,7.1332,7.1119,7.1135,7.132,7.1615,7.1948,7.229,7.2613,7.2963,7.2926,7.2741,7.3256,7.34,7.3241,7.3342,7.3379,7.3506,7.3543,7.3681,7.3766,7.4052,7.4413,7.4153,7.3881,7.4153,7.4561,7.3967,7.3372,7.3372,7.3372,7.3372,7.3372,7.3447,7.3447,6.2415,6.2415,6.2415,6.2415,6.2415,6.2415,6.2415,6.2415,6.2415,6.2654,6.3193,6.4253,6.5308,6.6177,6.6452,6.6608,6.6822,6.6822,6.6822,6.6822,6.6822,6.6822,6.6569,6.617,6.57,6.5649,6.5234,6.4919,6.4776,6.5067,6.4924,6.5092,6.4798,6.4982,6.4934,6.4714,6.4751,6.4751,6.4787,6.4897,6.5154,6.5228,6.5338,6.5411,6.5411,6.5338,6.5338,6.5521,6.5632,6.5632,6.5668,6.5668,6.5778,6.5705,6.6109,6.6549,6.6696,6.6843,6.699,6.7136,6.743,6.754,6.754,6.7504,6.765,6.7724,6.8017,6.8605,6.8678,6.9082,6.9522,7.0036,7.0293,7.0587,7.0991,7.1505,7.1798,7.2092,7.2296,7.2483,7.2539,7.2604,7.2632,7.266,7.2069,7.2216,7.2272,7.2567,7.2558,7.2807,7.2853,7.2991,7.3656,7.3748,7.3332,7.3434,7.3774,7.3929,7.3993,7.4179,7.4391,7.4741,7.5081,7.5156,7.497,7.5304,7.5416,7.4673,7.4041,7.3595,7.3484,7.393,7.4004,7.4041,7.393,6.2415,6.2415,6.2415,6.2415,6.2415,6.2415,6.2415,6.2415,6.2381,6.2736,6.3308,6.4111,6.4976,6.5764,6.611,6.6421,6.6763,6.6822,6.6822,6.6822,6.6822,6.6822,6.6641,6.6533,6.6351,6.6243,6.6011,6.5989,6.6175,6.6033,6.6382,6.6399,6.5836,6.5349,6.5301,6.5485,6.5411,6.5411,6.5411,6.5485,6.5999,6.6072,6.6256,6.6733,6.6769,6.6769,6.6806,6.6769,6.6769,6.6733,6.6696,6.6623,6.6623,6.6623,6.6806,6.71,6.7136,6.7357,6.7614,6.7724,6.7687,6.7687,6.765,6.776,6.7907,6.8128,6.8495,6.8935,6.9412,6.9889,7.0,7.055,7.0991,7.1329,7.1798,7.2349,7.2753,7.2973,7.3377,7.3492,7.3831,7.4088,7.4117,7.4146,7.3406,7.2816,7.2798,7.2853,7.2916,7.2969,7.3182,7.3468,7.4143,7.4523,7.4145,7.421,7.434,7.4395,7.4478,7.4791,7.5105,7.5288,7.5601,7.5787,7.5936,7.5973,7.5787,7.5267,7.4858,7.4561,7.4673,7.497,7.4933,7.471,7.4598,6.2415,6.2415,6.2415,6.2415,6.2415,6.2415,6.2415,6.2415,6.2415,6.277,6.3383,6.3823,6.4567,6.5406,6.5828,6.6269,6.6668,6.6822,6.6822,6.6822,6.6822,6.6822,6.6822,6.6786,6.6677,6.6822,6.6822,6.6772,6.6751,6.6954,6.7045,6.6875,6.6563,6.6176,6.6109,6.5999,6.5999,6.6035,6.6072,6.6219,6.6843,6.688,6.699,6.7504,6.754,6.7504,6.7467,6.743,6.7504,6.7504,6.754,6.7614,6.765,6.7687,6.7687,6.7687,6.7687,6.776,6.7981,6.8054,6.8164,6.8531,6.8568,6.8531,6.8568,6.8935,6.9376,6.9779,7.022,7.055,7.0697,7.1394,7.1688,7.1945,7.2092,7.2569,7.3156,7.3523,7.4074,7.4471,7.4698,7.4764,7.4757,7.4706,7.4499,7.3913,7.3922,7.3865,7.3836,7.3889,7.386,7.422,7.4719,7.4961,7.5101,7.5195,7.5224,7.4985,7.5172,7.5606,7.5911,7.6104,7.6456,7.6902,7.6939,7.6604,7.653,7.6567,7.6196,7.5713,7.575,7.5676,7.549,7.5304,7.5416,6.2415,6.2415,6.2415,6.2415,6.2415,6.2415,6.2415,6.2415,6.2415,6.2615,6.3042,6.3531,6.4288,6.511,6.5504,6.6079,6.6668,6.6822,6.6822,6.6822,6.6822,6.6822,6.6822,6.6822,6.6822,6.6822,6.6822,6.6822,6.6852,6.6932,6.7076,6.7238,6.714,6.7239,6.754,6.7577,6.7577,6.7604,6.7494,6.7494,6.7467,6.7467,6.7577,6.765,6.7687,6.7687,6.7687,6.7687,6.7687,6.7687,6.7687,6.7687,6.7687,6.7687,6.7687,6.7687,6.776,6.8128,6.8825,6.8898,6.9229,6.9596,6.9486,6.9596,6.9853,7.011,7.0367,7.0844,7.1358,7.1798,7.2129,7.2496,7.2606,7.2716,7.2899,7.323,7.3891,7.4294,7.4845,7.5469,7.5212,7.4992,7.5051,7.511,7.5242,7.5117,7.508,7.494,7.4698,7.4595,7.4463,7.4867,7.5294,7.5588,7.5831,7.6074,7.6096,7.5822,7.5854,7.6282,7.6829,7.7218,7.7608,7.7979,7.783,7.7422,7.7784,7.8155,7.7422,7.6716,7.6307,7.6121,7.5973,7.6047,7.6344,6.2415,6.2415,6.2415,6.2415,6.2415,6.2415,6.2415,6.2415,6.2454,6.2498,6.2693,6.308,6.3825,6.467,6.5242,6.5891,6.6668,6.6822,6.6822,6.6822,6.6822,6.6822,6.6822,6.6822,6.6822,6.6822,6.6822,6.6822,6.6822,6.6874,6.7019,6.7182,6.7433,6.7633,6.765,6.7687,6.765,6.765,6.765,6.765,6.7687,6.7687,6.7687,6.7687,6.7687,6.7687,6.7687,6.7687,6.7687,6.7687,6.7687,6.7687,6.7687,6.7687,6.7687,6.7834,6.8054,6.9155,7.0073,7.0513,7.033,7.033,7.0257,7.0257,7.011,7.066,7.1284,7.1945,7.2349,7.2973,7.3891,7.4001,7.4111,7.4147,7.4368,7.4698,7.5139,7.5359,7.5799,7.6423,7.6497,7.635,7.6307,7.605,7.6036,7.5912,7.5801,7.5367,7.5051,7.4978,7.4882,7.5462,7.5903,7.6203,7.6454,7.6574,7.684,7.6781,7.6733,7.6931,7.7497,7.8007,7.8183,7.8258,7.8286,7.8341,7.8601,7.8713,7.823,7.7645,7.7496,7.7236,7.7125,7.731,7.7635,6.2415,6.2415,6.2415,6.2415,6.2415,6.2415,6.2415,6.2415,6.2415,6.2415,6.2498,6.2847,6.3531,6.4358,6.4942,6.5636,6.6578,6.6668,6.6757,6.6793,6.6822,6.6822,6.6822,6.6822,6.6822,6.6822,6.6822,6.6822,6.6822,6.6822,6.6961,6.721,6.7497,6.7606,6.766,6.7687,6.7687,6.7687,6.7687,6.7687,6.7687,6.7687,6.7687,6.7687,6.7687,6.7687,6.7687,6.7687,6.7687,6.7687,6.7687,6.7687,6.7687,6.7687,6.7687,6.7907,6.8788,6.9889,7.0881,7.1615,7.1358,7.1138,7.0954,7.0917,7.0954,7.1505,7.1872,7.2459,7.3083,7.3523,7.4074,7.4294,7.4404,7.4404,7.4515,7.4808,7.5469,7.5652,7.613,7.6796,7.7237,7.7273,7.731,7.72,7.6974,7.6778,7.6484,7.605,7.5652,7.5652,7.5652,7.6093,7.646,7.6717,7.6894,7.7015,7.7282,7.7666,7.7583,7.7459,7.7764,7.8208,7.8376,7.8656,7.9018,7.9269,7.9242,7.9131,7.9056,7.9094,7.9131,7.8833,7.849,7.8453,7.8564,6.2415,6.2415,6.2415,6.2415,6.2415,6.2415,6.2415,6.2415,6.2415,6.2415,6.2454,6.2808,6.3383,6.404,6.4601,6.5376,6.6146,6.6391,6.6608,6.6757,6.6822,6.6822,6.6822,6.6822,6.6822,6.6822,6.6822,6.6822,6.6822,6.6815,6.699,6.719,6.7561,6.7772,6.789,6.8091,6.7944,6.7861,6.7687,6.7687,6.7687,6.7687,6.7687,6.7687,6.7687,6.7687,6.7687,6.7687,6.7687,6.7687,6.7687,6.7687,6.7687,6.7687,6.7687,6.8201,6.9376,7.0477,7.1394,7.2092,7.2275,7.2055,7.2202,7.2386,7.2312,7.2202,7.2422,7.2642,7.301,7.2973,7.312,7.334,7.3523,7.356,7.3634,7.4258,7.5109,7.5622,7.6136,7.6686,7.7127,7.731,7.731,7.731,7.731,7.7268,7.7115,7.7298,7.6937,7.6717,7.6723,7.6723,7.7084,7.7163,7.7292,7.7346,7.7406,7.7673,7.7762,7.7723,7.81,7.8425,7.8668,7.9097,7.9903,8.0184,7.9965,8.0097,8.0357,8.0357,8.0134,7.9837,7.9279,7.8982,7.8982,6.2415,6.2415,6.2415,6.2415,6.2415,6.2415,6.2415,6.2415,6.2415,6.2415,6.242,6.2688,6.3155,6.3679,6.4111,6.4942,6.5568,6.6079,6.6421,6.6638,6.6793,6.6793,6.6822,6.6822,6.6822,6.6822,6.6822,6.6822,6.6815,6.6874,6.6932,6.7141,6.7842,6.8173,6.8541,6.9027,6.8568,6.8118,6.7944,6.7907,6.7871,6.7907,6.7871,6.7907,6.7934,6.7907,6.7907,6.7898,6.7898,6.7824,6.776,6.7724,6.7687,6.776,6.7944,6.9412,7.044,7.1321,7.2018,7.2386,7.2532,7.2532,7.2532,7.2532,7.2496,7.2606,7.2753,7.2863,7.3156,7.3303,7.3817,7.4111,7.4331,7.4551,7.4625,7.5035,7.5806,7.6093,7.6576,7.6833,7.7273,7.731,7.731,7.731,7.731,7.7457,7.7677,7.7965,7.8112,7.7855,7.775,7.7781,7.7714,7.7855,7.7592,7.7573,7.756,7.765,7.7813,7.7939,7.8005,7.8367,7.8877,7.9668,8.057,8.0732,8.0551,8.084,8.1211,8.084,8.0542,8.0357,8.0134,7.9874,7.9688,6.2415,6.2415,6.2415,6.2415,6.2415,6.2415,6.2415,6.2415,6.2415,6.2415,6.2454,6.2649,6.2889,6.3308,6.3823,6.4463,6.5275,6.5668,6.6083,6.6488,6.6668,6.6727,6.6793,6.6822,6.6822,6.6822,6.6822,6.6822,6.6852,6.6845,6.6932,6.712,6.8049,6.8528,6.886,6.931,6.9467,6.9018,6.8715,6.8641,6.8605,6.8568,6.8641,6.8568,6.8568,6.8568,6.8568,6.8568,6.8605,6.8669,6.8641,6.8641,6.8678,6.8715,6.9119,7.0403,7.0917,7.1651,7.2239,7.2459,7.2532,7.2532,7.2532,7.2716,7.2753,7.2826,7.2863,7.2936,7.345,7.3964,7.4698,7.5395,7.5763,7.613,7.624,7.6319,7.6533,7.6717,7.6974,7.7163,7.731,7.731,7.731,7.731,7.7347,7.7494,7.7855,7.8295,7.8552,7.8662,7.8699,7.8772,7.8626,7.8552,7.8321,7.8131,7.8162,7.8223,7.824,7.83,7.8138,7.8781,7.9727,8.0585,8.137,8.1458,8.1583,8.1731,8.1954,8.1583,8.1471,8.1583,8.1323,8.0765,8.0617,6.2415,6.2415,6.2415,6.2415,6.2415,6.2415,6.2415,6.2415,6.2415,6.2415,6.242,6.2576,6.277,6.3004,6.3383,6.3967,6.4567,6.5045,6.5604,6.6207,6.6361,6.6512,6.6727,6.6822,6.6822,6.6822,6.6822,6.6822,6.6822,6.6997,6.72,6.7135,6.8211,6.8874,6.9266,7.0067,7.0372,7.0384,7.0192,7.0183,6.9926,7.0,7.011,6.9963,6.9926,6.9963,6.9963,7.0036,7.011,7.0073,7.0036,6.9926,6.9889,7.0073,7.0587,7.1027,7.1394,7.1872,7.2312,7.2496,7.2532,7.2532,7.2606,7.2973,7.3156,7.3083,7.312,7.3487,7.4001,7.4404,7.5065,7.5469,7.5873,7.624,7.643,7.654,7.6723,7.7047,7.7488,7.7745,7.8075,7.8075,7.8148,7.8259,7.8332,7.8038,7.8405,7.8993,7.925,7.9543,7.9543,7.9617,7.9323,7.9176,7.9281,7.9061,7.8987,7.8939,7.8811,7.832,7.7901,7.9127,8.0829,8.1504,8.2179,8.2572,8.2779,8.2734,8.2623,8.266,8.266,8.2957,8.2586,8.1768,8.1591,6.2415,6.2415,6.2415,6.2415,6.2415,6.2415,6.2415,6.2415,6.2415,6.2415,6.2415,6.2459,6.2498,6.2654,6.2923,6.338,6.3825,6.4393,6.5009,6.5636,6.6016,6.6361,6.6697,6.6757,6.6793,6.6822,6.6822,6.6822,6.6895,6.7257,6.7728,6.7896,6.8965,6.9841,7.0003,7.0909,7.1458,7.1443,7.1492,7.1044,7.0412,7.0183,7.011,7.0146,7.0183,7.0293,7.0293,7.022,7.0146,7.011,7.011,7.0073,7.0073,7.0697,7.1064,7.1394,7.1872,7.2202,7.2386,7.2532,7.2569,7.2789,7.2973,7.3377,7.3523,7.345,7.3634,7.4111,7.4551,7.4918,7.5285,7.5616,7.5983,7.6283,7.6576,7.676,7.6943,7.7451,7.7928,7.8332,7.8736,7.8956,7.9029,7.9103,7.9176,7.9543,8.0057,8.0498,8.0608,8.0755,8.0388,8.0351,7.9874,7.9764,7.9979,8.0021,7.9874,7.9459,7.9148,7.8511,7.7878,7.9416,8.1178,8.2163,8.295,8.3061,8.3091,8.3076,8.3106,8.3151,8.3151,8.3151,8.318,8.2586,8.2527,6.2415,6.2415,6.2415,6.2415,6.2415,6.2415,6.2415,6.2415,6.2415,6.2415,6.2415,6.2415,6.2415,6.2454,6.2649,6.2847,6.3308,6.3787,6.4463,6.511,6.5636,6.6115,6.6361,6.6638,6.6727,6.6793,6.6822,6.6858,6.7003,6.751,6.8017,6.8343,6.9661,7.0593,7.0726,7.1556,7.2114,7.2137,7.2263,7.1772,7.0979,7.1044,7.1138,7.1174,7.1138,7.1138,7.1174,7.1174,7.1174,7.1174,7.1284,7.1284,7.1358,7.1651,7.1835,7.1982,7.2239,7.2532,7.2532,7.2532,7.2679,7.3046,7.3303,7.367,7.4882,7.4845,7.4551,7.4955,7.5285,7.5652,7.5909,7.6203,7.657,7.6907,7.698,7.709,7.7384,7.7818,7.8185,7.8479,7.8956,7.9433,7.947,7.947,7.958,7.9727,8.0461,8.1012,8.1305,8.1636,8.1342,8.1085,8.0681,8.0718,8.1122,8.1048,8.0791,8.0268,7.9595,7.9781,7.9822,8.0452,8.1452,8.2408,8.2964,8.2971,8.3001,8.3061,8.3061,8.2994,8.3024,8.3091,8.3151,8.318,8.298,6.2415,6.2415,6.2415,6.2415,6.2415,6.2415,6.2415,6.2415,6.2415,6.2415,6.2415,6.2415,6.2415,6.2493,6.2571,6.277,6.3,6.3308,6.3967,6.4498,6.5045,6.5604,6.6048,6.6361,6.6548,6.6806,6.7003,6.704,6.7148,6.8017,6.8706,6.8669,6.9497,7.0615,7.0919,7.1375,7.1872,7.1994,7.2084,7.2144,7.2189,7.238,7.2291,7.2357,7.2532,7.2532,7.2496,7.2496,7.2459,7.2386,7.2239,7.2202,7.2165,7.2239,7.2312,7.2386,7.2386,7.2532,7.2532,7.2532,7.2973,7.3413,7.367,7.4441,7.5652,7.5983,7.5689,7.5763,7.6093,7.6276,7.6533,7.6717,7.7053,7.7384,7.7384,7.7494,7.7892,7.8369,7.8736,7.8993,7.9507,8.0057,8.0131,8.0094,8.0167,8.0241,8.0461,8.0865,8.1305,8.1709,8.1782,8.1746,8.1562,8.1782,8.2039,8.1819,8.1415,8.0966,8.0472,8.109,8.1525,8.1407,8.1659,8.2497,8.2904,8.2843,8.285,8.285,8.288,8.2904,8.3024,8.3121,8.3151,8.318,8.3091,6.2415,6.2415,6.2415,6.2415,6.2415,6.2415,6.2415,6.2415,6.2415,6.2415,6.2415,6.2415,6.2415,6.2415,6.2454,6.2537,6.2654,6.2928,6.3233,6.3716,6.4288,6.5009,6.5633,6.6079,6.6391,6.6789,6.73,6.7692,6.78,6.8995,6.9865,6.9865,7.0625,7.1272,7.134,7.1656,7.178,7.1842,7.1897,7.1988,7.2048,7.2233,7.2416,7.2475,7.2532,7.2532,7.2496,7.2496,7.2496,7.2496,7.2532,7.2532,7.2532,7.2532,7.2569,7.2716,7.2679,7.2789,7.2826,7.2899,7.3377,7.3964,7.4368,7.5065,7.6056,7.6754,7.6607,7.6717,7.6937,7.6937,7.7053,7.7053,7.731,7.7604,7.775,7.8148,7.8516,7.9433,8.0204,8.0534,8.0938,8.1269,8.1452,8.1415,8.1415,8.1489,8.1452,8.1782,8.1746,8.2003,8.2186,8.2186,8.2186,8.2186,8.215,8.2113,8.1852,8.1406,8.1213,8.1544,8.1668,8.1575,8.1938,8.2597,8.2752,8.2727,8.2696,8.2696,8.2813,8.2904,8.3091,8.318,8.318,8.318,8.3121]}]]